<?xml version="1.0" encoding="UTF-8" standalone="no" ?>
<gpx xmlns="http://www.topografix.com/GPX/1/1" xmlns:xsi="http://www.w3.org/2001/XMLSchema-instance" xsi:schemaLocation="http://www.topografix.com/GPX/1/1 http://www.topografix.com/GPX/1/1/gpx.xsd" version="1.1" creator="VisuGPX - https://www.visugpx.com">
  <metadata>
    <name>SkiRando - Tentative Carlit 2760m</name>
    <desc><![CDATA[2 juin 2013 , Départ du Refuge du CAF des Bouillouses , chaussage des skis à l'Estany Sec 2160m , brouillard intense à partir de 2400m , Demi tour à 2761m (trop de brouillard vent fort , entendu coulée de neige)]]></desc>
  </metadata>
  <trk>
    <name><![CDATA[02-JUIN-13 13:28:31]]></name>
    <trkseg>
      <trkpt lat="42.55892" lon="2.00348">
        <ele>2008.33</ele>
        <time>2013-06-02T05:06:56Z</time>
      </trkpt>
      <trkpt lat="42.55893" lon="2.00348">
        <ele>2008.33</ele>
        <time>2013-06-02T05:07:20Z</time>
      </trkpt>
      <trkpt lat="42.55893" lon="2.00348">
        <ele>2008.33</ele>
        <time>2013-06-02T05:07:21Z</time>
      </trkpt>
      <trkpt lat="42.55893" lon="2.00345">
        <ele>2005.93</ele>
        <time>2013-06-02T05:07:35Z</time>
      </trkpt>
      <trkpt lat="42.55895" lon="2.0034">
        <ele>2007.37</ele>
        <time>2013-06-02T05:08:06Z</time>
      </trkpt>
      <trkpt lat="42.55893" lon="2.00341">
        <ele>2005.93</ele>
        <time>2013-06-02T05:08:36Z</time>
      </trkpt>
      <trkpt lat="42.55893" lon="2.00346">
        <ele>2006.89</ele>
        <time>2013-06-02T05:09:11Z</time>
      </trkpt>
      <trkpt lat="42.55893" lon="2.00344">
        <ele>2008.81</ele>
        <time>2013-06-02T05:09:27Z</time>
      </trkpt>
      <trkpt lat="42.55893" lon="2.00341">
        <ele>2011.22</ele>
        <time>2013-06-02T05:09:45Z</time>
      </trkpt>
      <trkpt lat="42.55893" lon="2.00344">
        <ele>2012.18</ele>
        <time>2013-06-02T05:10:02Z</time>
      </trkpt>
      <trkpt lat="42.55893" lon="2.00339">
        <ele>2011.22</ele>
        <time>2013-06-02T05:10:14Z</time>
      </trkpt>
      <trkpt lat="42.55892" lon="2.00333">
        <ele>2010.73</ele>
        <time>2013-06-02T05:10:21Z</time>
      </trkpt>
      <trkpt lat="42.55892" lon="2.00322">
        <ele>2009.77</ele>
        <time>2013-06-02T05:10:29Z</time>
      </trkpt>
      <trkpt lat="42.55902" lon="2.00307">
        <ele>2008.33</ele>
        <time>2013-06-02T05:10:43Z</time>
      </trkpt>
      <trkpt lat="42.55906" lon="2.00308">
        <ele>2009.77</ele>
        <time>2013-06-02T05:10:49Z</time>
      </trkpt>
      <trkpt lat="42.55922" lon="2.00308">
        <ele>2011.22</ele>
        <time>2013-06-02T05:11:03Z</time>
      </trkpt>
      <trkpt lat="42.55935" lon="2.00306">
        <ele>2010.73</ele>
        <time>2013-06-02T05:11:15Z</time>
      </trkpt>
      <trkpt lat="42.55935" lon="2.00303">
        <ele>2010.25</ele>
        <time>2013-06-02T05:11:20Z</time>
      </trkpt>
      <trkpt lat="42.55938" lon="2.00291">
        <ele>2010.25</ele>
        <time>2013-06-02T05:11:29Z</time>
      </trkpt>
      <trkpt lat="42.55935" lon="2.00278">
        <ele>2007.85</ele>
        <time>2013-06-02T05:11:38Z</time>
      </trkpt>
      <trkpt lat="42.55931" lon="2.0025">
        <ele>2003.52</ele>
        <time>2013-06-02T05:11:55Z</time>
      </trkpt>
      <trkpt lat="42.55928" lon="2.00235">
        <ele>2002.56</ele>
        <time>2013-06-02T05:12:04Z</time>
      </trkpt>
      <trkpt lat="42.55921" lon="2.0021">
        <ele>2000.64</ele>
        <time>2013-06-02T05:12:20Z</time>
      </trkpt>
      <trkpt lat="42.55919" lon="2.00189">
        <ele>1998.24</ele>
        <time>2013-06-02T05:12:36Z</time>
      </trkpt>
      <trkpt lat="42.5592" lon="2.00186">
        <ele>1996.8</ele>
        <time>2013-06-02T05:12:39Z</time>
      </trkpt>
      <trkpt lat="42.55924" lon="2.00179">
        <ele>1995.35</ele>
        <time>2013-06-02T05:12:45Z</time>
      </trkpt>
      <trkpt lat="42.55932" lon="2.00169">
        <ele>1996.32</ele>
        <time>2013-06-02T05:12:55Z</time>
      </trkpt>
      <trkpt lat="42.55944" lon="2.0016">
        <ele>1997.28</ele>
        <time>2013-06-02T05:13:07Z</time>
      </trkpt>
      <trkpt lat="42.55955" lon="2.00151">
        <ele>1996.8</ele>
        <time>2013-06-02T05:13:19Z</time>
      </trkpt>
      <trkpt lat="42.55964" lon="2.0013">
        <ele>1997.76</ele>
        <time>2013-06-02T05:13:33Z</time>
      </trkpt>
      <trkpt lat="42.55973" lon="2.001">
        <ele>2000.16</ele>
        <time>2013-06-02T05:13:53Z</time>
      </trkpt>
      <trkpt lat="42.55975" lon="2.00092">
        <ele>2000.16</ele>
        <time>2013-06-02T05:14:04Z</time>
      </trkpt>
      <trkpt lat="42.55978" lon="2.00066">
        <ele>2000.64</ele>
        <time>2013-06-02T05:14:21Z</time>
      </trkpt>
      <trkpt lat="42.55979" lon="2.00056">
        <ele>2000.64</ele>
        <time>2013-06-02T05:14:27Z</time>
      </trkpt>
      <trkpt lat="42.55977" lon="2.00027">
        <ele>1998.24</ele>
        <time>2013-06-02T05:14:45Z</time>
      </trkpt>
      <trkpt lat="42.55974" lon="2.00016">
        <ele>2000.16</ele>
        <time>2013-06-02T05:14:53Z</time>
      </trkpt>
      <trkpt lat="42.55975" lon="1.99996">
        <ele>2006.89</ele>
        <time>2013-06-02T05:15:10Z</time>
      </trkpt>
      <trkpt lat="42.55979" lon="1.99986">
        <ele>2009.77</ele>
        <time>2013-06-02T05:15:24Z</time>
      </trkpt>
      <trkpt lat="42.55982" lon="1.99972">
        <ele>2011.7</ele>
        <time>2013-06-02T05:15:37Z</time>
      </trkpt>
      <trkpt lat="42.55982" lon="1.99957">
        <ele>2013.14</ele>
        <time>2013-06-02T05:15:50Z</time>
      </trkpt>
      <trkpt lat="42.55981" lon="1.99946">
        <ele>2014.1</ele>
        <time>2013-06-02T05:16:00Z</time>
      </trkpt>
      <trkpt lat="42.55979" lon="1.99933">
        <ele>2014.1</ele>
        <time>2013-06-02T05:16:13Z</time>
      </trkpt>
      <trkpt lat="42.55978" lon="1.9992">
        <ele>2014.58</ele>
        <time>2013-06-02T05:16:25Z</time>
      </trkpt>
      <trkpt lat="42.55972" lon="1.9991">
        <ele>2017.94</ele>
        <time>2013-06-02T05:16:36Z</time>
      </trkpt>
      <trkpt lat="42.55971" lon="1.99896">
        <ele>2022.27</ele>
        <time>2013-06-02T05:16:51Z</time>
      </trkpt>
      <trkpt lat="42.55971" lon="1.99885">
        <ele>2024.67</ele>
        <time>2013-06-02T05:17:02Z</time>
      </trkpt>
      <trkpt lat="42.55972" lon="1.9988">
        <ele>2025.15</ele>
        <time>2013-06-02T05:17:06Z</time>
      </trkpt>
      <trkpt lat="42.5598" lon="1.99868">
        <ele>2025.15</ele>
        <time>2013-06-02T05:17:19Z</time>
      </trkpt>
      <trkpt lat="42.55989" lon="1.9986">
        <ele>2025.15</ele>
        <time>2013-06-02T05:17:31Z</time>
      </trkpt>
      <trkpt lat="42.55994" lon="1.99856">
        <ele>2025.64</ele>
        <time>2013-06-02T05:17:37Z</time>
      </trkpt>
      <trkpt lat="42.55998" lon="1.99851">
        <ele>2025.64</ele>
        <time>2013-06-02T05:17:42Z</time>
      </trkpt>
      <trkpt lat="42.56001" lon="1.99846">
        <ele>2025.15</ele>
        <time>2013-06-02T05:17:46Z</time>
      </trkpt>
      <trkpt lat="42.56009" lon="1.99838">
        <ele>2023.71</ele>
        <time>2013-06-02T05:17:55Z</time>
      </trkpt>
      <trkpt lat="42.5602" lon="1.99819">
        <ele>2024.19</ele>
        <time>2013-06-02T05:18:11Z</time>
      </trkpt>
      <trkpt lat="42.56021" lon="1.99814">
        <ele>2024.67</ele>
        <time>2013-06-02T05:18:14Z</time>
      </trkpt>
      <trkpt lat="42.5603" lon="1.998">
        <ele>2027.08</ele>
        <time>2013-06-02T05:18:28Z</time>
      </trkpt>
      <trkpt lat="42.56031" lon="1.99799">
        <ele>2027.08</ele>
        <time>2013-06-02T05:18:29Z</time>
      </trkpt>
      <trkpt lat="42.56035" lon="1.99793">
        <ele>2028.52</ele>
        <time>2013-06-02T05:18:36Z</time>
      </trkpt>
      <trkpt lat="42.56041" lon="1.99774">
        <ele>2029</ele>
        <time>2013-06-02T05:18:51Z</time>
      </trkpt>
      <trkpt lat="42.56041" lon="1.99772">
        <ele>2029.48</ele>
        <time>2013-06-02T05:18:53Z</time>
      </trkpt>
      <trkpt lat="42.5604" lon="1.99768">
        <ele>2029.48</ele>
        <time>2013-06-02T05:18:56Z</time>
      </trkpt>
      <trkpt lat="42.56034" lon="1.99753">
        <ele>2031.88</ele>
        <time>2013-06-02T05:19:11Z</time>
      </trkpt>
      <trkpt lat="42.56032" lon="1.9975">
        <ele>2032.36</ele>
        <time>2013-06-02T05:19:14Z</time>
      </trkpt>
      <trkpt lat="42.56028" lon="1.99744">
        <ele>2032.84</ele>
        <time>2013-06-02T05:19:21Z</time>
      </trkpt>
      <trkpt lat="42.56012" lon="1.99736">
        <ele>2033.33</ele>
        <time>2013-06-02T05:19:37Z</time>
      </trkpt>
      <trkpt lat="42.56005" lon="1.99732">
        <ele>2033.33</ele>
        <time>2013-06-02T05:19:45Z</time>
      </trkpt>
      <trkpt lat="42.56002" lon="1.99735">
        <ele>2033.33</ele>
        <time>2013-06-02T05:19:48Z</time>
      </trkpt>
      <trkpt lat="42.55988" lon="1.9973">
        <ele>2032.36</ele>
        <time>2013-06-02T05:20:02Z</time>
      </trkpt>
      <trkpt lat="42.55984" lon="1.99721">
        <ele>2032.84</ele>
        <time>2013-06-02T05:20:11Z</time>
      </trkpt>
      <trkpt lat="42.55981" lon="1.99706">
        <ele>2035.25</ele>
        <time>2013-06-02T05:20:22Z</time>
      </trkpt>
      <trkpt lat="42.55973" lon="1.99687">
        <ele>2037.17</ele>
        <time>2013-06-02T05:20:37Z</time>
      </trkpt>
      <trkpt lat="42.55975" lon="1.99672">
        <ele>2038.13</ele>
        <time>2013-06-02T05:20:47Z</time>
      </trkpt>
      <trkpt lat="42.55978" lon="1.99667">
        <ele>2038.13</ele>
        <time>2013-06-02T05:20:51Z</time>
      </trkpt>
      <trkpt lat="42.55978" lon="1.99664">
        <ele>2038.61</ele>
        <time>2013-06-02T05:20:53Z</time>
      </trkpt>
      <trkpt lat="42.5598" lon="1.9966">
        <ele>2038.61</ele>
        <time>2013-06-02T05:20:57Z</time>
      </trkpt>
      <trkpt lat="42.55981" lon="1.99657">
        <ele>2038.61</ele>
        <time>2013-06-02T05:20:59Z</time>
      </trkpt>
      <trkpt lat="42.55983" lon="1.99653">
        <ele>2038.61</ele>
        <time>2013-06-02T05:21:02Z</time>
      </trkpt>
      <trkpt lat="42.55989" lon="1.99636">
        <ele>2039.57</ele>
        <time>2013-06-02T05:21:16Z</time>
      </trkpt>
      <trkpt lat="42.55996" lon="1.99623">
        <ele>2039.57</ele>
        <time>2013-06-02T05:21:30Z</time>
      </trkpt>
      <trkpt lat="42.55995" lon="1.99621">
        <ele>2040.05</ele>
        <time>2013-06-02T05:21:40Z</time>
      </trkpt>
      <trkpt lat="42.55995" lon="1.9962">
        <ele>2039.09</ele>
        <time>2013-06-02T05:22:00Z</time>
      </trkpt>
      <trkpt lat="42.55997" lon="1.99613">
        <ele>2038.61</ele>
        <time>2013-06-02T05:22:16Z</time>
      </trkpt>
      <trkpt lat="42.56" lon="1.99605">
        <ele>2036.69</ele>
        <time>2013-06-02T05:22:27Z</time>
      </trkpt>
      <trkpt lat="42.56002" lon="1.99595">
        <ele>2038.61</ele>
        <time>2013-06-02T05:22:40Z</time>
      </trkpt>
      <trkpt lat="42.56003" lon="1.99588">
        <ele>2039.57</ele>
        <time>2013-06-02T05:22:52Z</time>
      </trkpt>
      <trkpt lat="42.56004" lon="1.99576">
        <ele>2042.94</ele>
        <time>2013-06-02T05:23:03Z</time>
      </trkpt>
      <trkpt lat="42.56006" lon="1.99567">
        <ele>2043.9</ele>
        <time>2013-06-02T05:23:17Z</time>
      </trkpt>
      <trkpt lat="42.56009" lon="1.99554">
        <ele>2045.34</ele>
        <time>2013-06-02T05:23:29Z</time>
      </trkpt>
      <trkpt lat="42.56011" lon="1.9954">
        <ele>2042.46</ele>
        <time>2013-06-02T05:23:42Z</time>
      </trkpt>
      <trkpt lat="42.56011" lon="1.99531">
        <ele>2040.54</ele>
        <time>2013-06-02T05:23:53Z</time>
      </trkpt>
      <trkpt lat="42.56015" lon="1.99523">
        <ele>2041.5</ele>
        <time>2013-06-02T05:24:06Z</time>
      </trkpt>
      <trkpt lat="42.56015" lon="1.99521">
        <ele>2042.94</ele>
        <time>2013-06-02T05:24:19Z</time>
      </trkpt>
      <trkpt lat="42.56019" lon="1.99518">
        <ele>2046.3</ele>
        <time>2013-06-02T05:24:30Z</time>
      </trkpt>
      <trkpt lat="42.56023" lon="1.99511">
        <ele>2048.23</ele>
        <time>2013-06-02T05:24:42Z</time>
      </trkpt>
      <trkpt lat="42.56026" lon="1.99502">
        <ele>2050.63</ele>
        <time>2013-06-02T05:24:54Z</time>
      </trkpt>
      <trkpt lat="42.56033" lon="1.99496">
        <ele>2052.07</ele>
        <time>2013-06-02T05:25:09Z</time>
      </trkpt>
      <trkpt lat="42.56034" lon="1.99489">
        <ele>2053.51</ele>
        <time>2013-06-02T05:25:22Z</time>
      </trkpt>
      <trkpt lat="42.5603" lon="1.99481">
        <ele>2054.47</ele>
        <time>2013-06-02T05:25:34Z</time>
      </trkpt>
      <trkpt lat="42.56029" lon="1.99478">
        <ele>2054.96</ele>
        <time>2013-06-02T05:25:36Z</time>
      </trkpt>
      <trkpt lat="42.56029" lon="1.99475">
        <ele>2054.47</ele>
        <time>2013-06-02T05:25:38Z</time>
      </trkpt>
      <trkpt lat="42.5603" lon="1.99465">
        <ele>2054.96</ele>
        <time>2013-06-02T05:25:52Z</time>
      </trkpt>
      <trkpt lat="42.56032" lon="1.99462">
        <ele>2055.44</ele>
        <time>2013-06-02T05:26:04Z</time>
      </trkpt>
      <trkpt lat="42.56032" lon="1.99457">
        <ele>2056.4</ele>
        <time>2013-06-02T05:26:17Z</time>
      </trkpt>
      <trkpt lat="42.56029" lon="1.99453">
        <ele>2058.8</ele>
        <time>2013-06-02T05:26:31Z</time>
      </trkpt>
      <trkpt lat="42.5603" lon="1.9945">
        <ele>2057.84</ele>
        <time>2013-06-02T05:26:47Z</time>
      </trkpt>
      <trkpt lat="42.56032" lon="1.99445">
        <ele>2059.28</ele>
        <time>2013-06-02T05:26:59Z</time>
      </trkpt>
      <trkpt lat="42.56033" lon="1.9944">
        <ele>2059.76</ele>
        <time>2013-06-02T05:27:15Z</time>
      </trkpt>
      <trkpt lat="42.56032" lon="1.99433">
        <ele>2061.68</ele>
        <time>2013-06-02T05:27:30Z</time>
      </trkpt>
      <trkpt lat="42.56028" lon="1.99429">
        <ele>2063.61</ele>
        <time>2013-06-02T05:27:43Z</time>
      </trkpt>
      <trkpt lat="42.56026" lon="1.99424">
        <ele>2068.41</ele>
        <time>2013-06-02T05:27:58Z</time>
      </trkpt>
      <trkpt lat="42.56021" lon="1.99423">
        <ele>2069.38</ele>
        <time>2013-06-02T05:28:12Z</time>
      </trkpt>
      <trkpt lat="42.56023" lon="1.9942">
        <ele>2072.26</ele>
        <time>2013-06-02T05:28:28Z</time>
      </trkpt>
      <trkpt lat="42.56021" lon="1.99424">
        <ele>2070.82</ele>
        <time>2013-06-02T05:28:43Z</time>
      </trkpt>
      <trkpt lat="42.56023" lon="1.9942">
        <ele>2070.34</ele>
        <time>2013-06-02T05:29:17Z</time>
      </trkpt>
      <trkpt lat="42.56021" lon="1.99422">
        <ele>2070.34</ele>
        <time>2013-06-02T05:29:51Z</time>
      </trkpt>
      <trkpt lat="42.56022" lon="1.9943">
        <ele>2064.57</ele>
        <time>2013-06-02T05:30:32Z</time>
      </trkpt>
      <trkpt lat="42.56021" lon="1.99423">
        <ele>2064.09</ele>
        <time>2013-06-02T05:31:02Z</time>
      </trkpt>
      <trkpt lat="42.56019" lon="1.99423">
        <ele>2061.68</ele>
        <time>2013-06-02T05:31:34Z</time>
      </trkpt>
      <trkpt lat="42.56022" lon="1.99425">
        <ele>2057.36</ele>
        <time>2013-06-02T05:32:17Z</time>
      </trkpt>
      <trkpt lat="42.56021" lon="1.99423">
        <ele>2061.2</ele>
        <time>2013-06-02T05:32:50Z</time>
      </trkpt>
      <trkpt lat="42.56023" lon="1.99423">
        <ele>2063.61</ele>
        <time>2013-06-02T05:33:01Z</time>
      </trkpt>
      <trkpt lat="42.56022" lon="1.9942">
        <ele>2061.68</ele>
        <time>2013-06-02T05:33:18Z</time>
      </trkpt>
      <trkpt lat="42.56022" lon="1.99419">
        <ele>2063.13</ele>
        <time>2013-06-02T05:33:36Z</time>
      </trkpt>
      <trkpt lat="42.56022" lon="1.99414">
        <ele>2062.17</ele>
        <time>2013-06-02T05:33:51Z</time>
      </trkpt>
      <trkpt lat="42.56021" lon="1.99409">
        <ele>2061.68</ele>
        <time>2013-06-02T05:34:17Z</time>
      </trkpt>
      <trkpt lat="42.56021" lon="1.99409">
        <ele>2062.65</ele>
        <time>2013-06-02T05:34:36Z</time>
      </trkpt>
      <trkpt lat="42.56021" lon="1.99408">
        <ele>2065.05</ele>
        <time>2013-06-02T05:34:51Z</time>
      </trkpt>
      <trkpt lat="42.56016" lon="1.99407">
        <ele>2066.49</ele>
        <time>2013-06-02T05:35:06Z</time>
      </trkpt>
      <trkpt lat="42.56012" lon="1.99401">
        <ele>2066.97</ele>
        <time>2013-06-02T05:35:20Z</time>
      </trkpt>
      <trkpt lat="42.5601" lon="1.99399">
        <ele>2066.49</ele>
        <time>2013-06-02T05:35:35Z</time>
      </trkpt>
      <trkpt lat="42.56007" lon="1.99392">
        <ele>2065.05</ele>
        <time>2013-06-02T05:35:47Z</time>
      </trkpt>
      <trkpt lat="42.56008" lon="1.99387">
        <ele>2065.05</ele>
        <time>2013-06-02T05:35:59Z</time>
      </trkpt>
      <trkpt lat="42.56011" lon="1.99386">
        <ele>2066.49</ele>
        <time>2013-06-02T05:36:11Z</time>
      </trkpt>
      <trkpt lat="42.56012" lon="1.99376">
        <ele>2069.38</ele>
        <time>2013-06-02T05:36:24Z</time>
      </trkpt>
      <trkpt lat="42.56011" lon="1.99373">
        <ele>2070.82</ele>
        <time>2013-06-02T05:36:28Z</time>
      </trkpt>
      <trkpt lat="42.56009" lon="1.99362">
        <ele>2073.7</ele>
        <time>2013-06-02T05:36:41Z</time>
      </trkpt>
      <trkpt lat="42.56007" lon="1.99353">
        <ele>2074.66</ele>
        <time>2013-06-02T05:36:53Z</time>
      </trkpt>
      <trkpt lat="42.56005" lon="1.99343">
        <ele>2074.18</ele>
        <time>2013-06-02T05:37:05Z</time>
      </trkpt>
      <trkpt lat="42.56001" lon="1.99329">
        <ele>2075.14</ele>
        <time>2013-06-02T05:37:18Z</time>
      </trkpt>
      <trkpt lat="42.55999" lon="1.99315">
        <ele>2072.74</ele>
        <time>2013-06-02T05:37:30Z</time>
      </trkpt>
      <trkpt lat="42.56" lon="1.99305">
        <ele>2071.78</ele>
        <time>2013-06-02T05:37:42Z</time>
      </trkpt>
      <trkpt lat="42.56" lon="1.99304">
        <ele>2071.78</ele>
        <time>2013-06-02T05:37:43Z</time>
      </trkpt>
      <trkpt lat="42.55999" lon="1.99289">
        <ele>2075.14</ele>
        <time>2013-06-02T05:37:55Z</time>
      </trkpt>
      <trkpt lat="42.55996" lon="1.9928">
        <ele>2077.07</ele>
        <time>2013-06-02T05:38:06Z</time>
      </trkpt>
      <trkpt lat="42.55995" lon="1.99267">
        <ele>2081.87</ele>
        <time>2013-06-02T05:38:18Z</time>
      </trkpt>
      <trkpt lat="42.55995" lon="1.99265">
        <ele>2082.35</ele>
        <time>2013-06-02T05:38:20Z</time>
      </trkpt>
      <trkpt lat="42.55992" lon="1.99254">
        <ele>2085.24</ele>
        <time>2013-06-02T05:38:31Z</time>
      </trkpt>
      <trkpt lat="42.55989" lon="1.99242">
        <ele>2085.72</ele>
        <time>2013-06-02T05:38:43Z</time>
      </trkpt>
      <trkpt lat="42.55996" lon="1.99234">
        <ele>2083.31</ele>
        <time>2013-06-02T05:38:57Z</time>
      </trkpt>
      <trkpt lat="42.56002" lon="1.99222">
        <ele>2077.07</ele>
        <time>2013-06-02T05:39:09Z</time>
      </trkpt>
      <trkpt lat="42.56002" lon="1.99214">
        <ele>2074.18</ele>
        <time>2013-06-02T05:39:14Z</time>
      </trkpt>
      <trkpt lat="42.56007" lon="1.99202">
        <ele>2068.41</ele>
        <time>2013-06-02T05:39:26Z</time>
      </trkpt>
      <trkpt lat="42.56007" lon="1.99189">
        <ele>2069.38</ele>
        <time>2013-06-02T05:39:39Z</time>
      </trkpt>
      <trkpt lat="42.56009" lon="1.99181">
        <ele>2071.3</ele>
        <time>2013-06-02T05:39:51Z</time>
      </trkpt>
      <trkpt lat="42.56009" lon="1.99168">
        <ele>2076.59</ele>
        <time>2013-06-02T05:40:03Z</time>
      </trkpt>
      <trkpt lat="42.5601" lon="1.99159">
        <ele>2078.03</ele>
        <time>2013-06-02T05:40:09Z</time>
      </trkpt>
      <trkpt lat="42.56014" lon="1.99152">
        <ele>2080.43</ele>
        <time>2013-06-02T05:40:20Z</time>
      </trkpt>
      <trkpt lat="42.56017" lon="1.99142">
        <ele>2081.87</ele>
        <time>2013-06-02T05:40:31Z</time>
      </trkpt>
      <trkpt lat="42.56021" lon="1.99133">
        <ele>2082.35</ele>
        <time>2013-06-02T05:40:42Z</time>
      </trkpt>
      <trkpt lat="42.56019" lon="1.99123">
        <ele>2084.28</ele>
        <time>2013-06-02T05:40:54Z</time>
      </trkpt>
      <trkpt lat="42.56022" lon="1.99112">
        <ele>2085.72</ele>
        <time>2013-06-02T05:41:08Z</time>
      </trkpt>
      <trkpt lat="42.56023" lon="1.99103">
        <ele>2087.64</ele>
        <time>2013-06-02T05:41:21Z</time>
      </trkpt>
      <trkpt lat="42.56026" lon="1.99099">
        <ele>2089.08</ele>
        <time>2013-06-02T05:41:34Z</time>
      </trkpt>
      <trkpt lat="42.56025" lon="1.99093">
        <ele>2089.56</ele>
        <time>2013-06-02T05:41:44Z</time>
      </trkpt>
      <trkpt lat="42.56026" lon="1.99084">
        <ele>2087.64</ele>
        <time>2013-06-02T05:42:00Z</time>
      </trkpt>
      <trkpt lat="42.56027" lon="1.99076">
        <ele>2088.6</ele>
        <time>2013-06-02T05:42:12Z</time>
      </trkpt>
      <trkpt lat="42.56031" lon="1.99067">
        <ele>2090.52</ele>
        <time>2013-06-02T05:42:24Z</time>
      </trkpt>
      <trkpt lat="42.56037" lon="1.99061">
        <ele>2089.56</ele>
        <time>2013-06-02T05:42:36Z</time>
      </trkpt>
      <trkpt lat="42.56046" lon="1.99057">
        <ele>2087.16</ele>
        <time>2013-06-02T05:42:47Z</time>
      </trkpt>
      <trkpt lat="42.56051" lon="1.99054">
        <ele>2085.72</ele>
        <time>2013-06-02T05:42:58Z</time>
      </trkpt>
      <trkpt lat="42.56054" lon="1.99043">
        <ele>2086.68</ele>
        <time>2013-06-02T05:43:10Z</time>
      </trkpt>
      <trkpt lat="42.56058" lon="1.99034">
        <ele>2087.64</ele>
        <time>2013-06-02T05:43:23Z</time>
      </trkpt>
      <trkpt lat="42.56066" lon="1.99025">
        <ele>2090.04</ele>
        <time>2013-06-02T05:43:36Z</time>
      </trkpt>
      <trkpt lat="42.56075" lon="1.99016">
        <ele>2091.49</ele>
        <time>2013-06-02T05:43:53Z</time>
      </trkpt>
      <trkpt lat="42.56086" lon="1.99016">
        <ele>2091.49</ele>
        <time>2013-06-02T05:44:07Z</time>
      </trkpt>
      <trkpt lat="42.56094" lon="1.9901">
        <ele>2095.81</ele>
        <time>2013-06-02T05:44:18Z</time>
      </trkpt>
      <trkpt lat="42.56097" lon="1.98999">
        <ele>2095.33</ele>
        <time>2013-06-02T05:44:32Z</time>
      </trkpt>
      <trkpt lat="42.56102" lon="1.98986">
        <ele>2090.04</ele>
        <time>2013-06-02T05:44:45Z</time>
      </trkpt>
      <trkpt lat="42.56103" lon="1.98985">
        <ele>2090.52</ele>
        <time>2013-06-02T05:44:47Z</time>
      </trkpt>
      <trkpt lat="42.56104" lon="1.98983">
        <ele>2090.52</ele>
        <time>2013-06-02T05:44:49Z</time>
      </trkpt>
      <trkpt lat="42.56108" lon="1.98974">
        <ele>2089.56</ele>
        <time>2013-06-02T05:45:03Z</time>
      </trkpt>
      <trkpt lat="42.56115" lon="1.98971">
        <ele>2089.08</ele>
        <time>2013-06-02T05:45:14Z</time>
      </trkpt>
      <trkpt lat="42.56121" lon="1.98966">
        <ele>2090.04</ele>
        <time>2013-06-02T05:45:29Z</time>
      </trkpt>
      <trkpt lat="42.56117" lon="1.98955">
        <ele>2090.04</ele>
        <time>2013-06-02T05:45:44Z</time>
      </trkpt>
      <trkpt lat="42.56113" lon="1.98944">
        <ele>2091</ele>
        <time>2013-06-02T05:45:57Z</time>
      </trkpt>
      <trkpt lat="42.56116" lon="1.98936">
        <ele>2092.93</ele>
        <time>2013-06-02T05:46:09Z</time>
      </trkpt>
      <trkpt lat="42.56119" lon="1.98928">
        <ele>2093.89</ele>
        <time>2013-06-02T05:46:21Z</time>
      </trkpt>
      <trkpt lat="42.56126" lon="1.98919">
        <ele>2092.45</ele>
        <time>2013-06-02T05:46:34Z</time>
      </trkpt>
      <trkpt lat="42.56132" lon="1.98913">
        <ele>2091</ele>
        <time>2013-06-02T05:46:45Z</time>
      </trkpt>
      <trkpt lat="42.56139" lon="1.98904">
        <ele>2090.04</ele>
        <time>2013-06-02T05:46:57Z</time>
      </trkpt>
      <trkpt lat="42.56147" lon="1.98898">
        <ele>2090.04</ele>
        <time>2013-06-02T05:47:09Z</time>
      </trkpt>
      <trkpt lat="42.56152" lon="1.98889">
        <ele>2091.49</ele>
        <time>2013-06-02T05:47:21Z</time>
      </trkpt>
      <trkpt lat="42.56158" lon="1.98879">
        <ele>2095.81</ele>
        <time>2013-06-02T05:47:35Z</time>
      </trkpt>
      <trkpt lat="42.56163" lon="1.98872">
        <ele>2097.73</ele>
        <time>2013-06-02T05:47:48Z</time>
      </trkpt>
      <trkpt lat="42.56168" lon="1.98865">
        <ele>2099.66</ele>
        <time>2013-06-02T05:48:00Z</time>
      </trkpt>
      <trkpt lat="42.56173" lon="1.98859">
        <ele>2101.1</ele>
        <time>2013-06-02T05:48:13Z</time>
      </trkpt>
      <trkpt lat="42.56181" lon="1.98851">
        <ele>2103.5</ele>
        <time>2013-06-02T05:48:29Z</time>
      </trkpt>
      <trkpt lat="42.56187" lon="1.98846">
        <ele>2105.42</ele>
        <time>2013-06-02T05:48:42Z</time>
      </trkpt>
      <trkpt lat="42.56193" lon="1.98838">
        <ele>2107.83</ele>
        <time>2013-06-02T05:48:55Z</time>
      </trkpt>
      <trkpt lat="42.56197" lon="1.9883">
        <ele>2109.27</ele>
        <time>2013-06-02T05:49:06Z</time>
      </trkpt>
      <trkpt lat="42.56201" lon="1.98823">
        <ele>2108.79</ele>
        <time>2013-06-02T05:49:17Z</time>
      </trkpt>
      <trkpt lat="42.56208" lon="1.98816">
        <ele>2109.27</ele>
        <time>2013-06-02T05:49:30Z</time>
      </trkpt>
      <trkpt lat="42.56214" lon="1.9881">
        <ele>2109.27</ele>
        <time>2013-06-02T05:49:42Z</time>
      </trkpt>
      <trkpt lat="42.56219" lon="1.98806">
        <ele>2109.27</ele>
        <time>2013-06-02T05:49:49Z</time>
      </trkpt>
      <trkpt lat="42.56222" lon="1.98805">
        <ele>2109.75</ele>
        <time>2013-06-02T05:49:52Z</time>
      </trkpt>
      <trkpt lat="42.56223" lon="1.98805">
        <ele>2109.75</ele>
        <time>2013-06-02T05:49:54Z</time>
      </trkpt>
      <trkpt lat="42.56234" lon="1.98799">
        <ele>2109.27</ele>
        <time>2013-06-02T05:50:07Z</time>
      </trkpt>
      <trkpt lat="42.5624" lon="1.98791">
        <ele>2109.75</ele>
        <time>2013-06-02T05:50:19Z</time>
      </trkpt>
      <trkpt lat="42.56249" lon="1.98788">
        <ele>2109.27</ele>
        <time>2013-06-02T05:50:31Z</time>
      </trkpt>
      <trkpt lat="42.56255" lon="1.98781">
        <ele>2110.23</ele>
        <time>2013-06-02T05:50:44Z</time>
      </trkpt>
      <trkpt lat="42.56257" lon="1.98774">
        <ele>2114.08</ele>
        <time>2013-06-02T05:50:59Z</time>
      </trkpt>
      <trkpt lat="42.5626" lon="1.98767">
        <ele>2113.6</ele>
        <time>2013-06-02T05:51:11Z</time>
      </trkpt>
      <trkpt lat="42.56262" lon="1.98761">
        <ele>2114.08</ele>
        <time>2013-06-02T05:51:23Z</time>
      </trkpt>
      <trkpt lat="42.56265" lon="1.98751">
        <ele>2116.96</ele>
        <time>2013-06-02T05:51:40Z</time>
      </trkpt>
      <trkpt lat="42.56269" lon="1.98742">
        <ele>2116.48</ele>
        <time>2013-06-02T05:51:55Z</time>
      </trkpt>
      <trkpt lat="42.56272" lon="1.98733">
        <ele>2117.44</ele>
        <time>2013-06-02T05:52:10Z</time>
      </trkpt>
      <trkpt lat="42.56274" lon="1.98728">
        <ele>2117.44</ele>
        <time>2013-06-02T05:52:16Z</time>
      </trkpt>
      <trkpt lat="42.56276" lon="1.98725">
        <ele>2117.92</ele>
        <time>2013-06-02T05:52:20Z</time>
      </trkpt>
      <trkpt lat="42.56283" lon="1.98722">
        <ele>2119.36</ele>
        <time>2013-06-02T05:52:33Z</time>
      </trkpt>
      <trkpt lat="42.56289" lon="1.98721">
        <ele>2118.88</ele>
        <time>2013-06-02T05:52:43Z</time>
      </trkpt>
      <trkpt lat="42.56289" lon="1.98722">
        <ele>2118.88</ele>
        <time>2013-06-02T05:52:44Z</time>
      </trkpt>
      <trkpt lat="42.563" lon="1.98717">
        <ele>2120.32</ele>
        <time>2013-06-02T05:52:58Z</time>
      </trkpt>
      <trkpt lat="42.56309" lon="1.9871">
        <ele>2119.84</ele>
        <time>2013-06-02T05:53:11Z</time>
      </trkpt>
      <trkpt lat="42.56315" lon="1.98703">
        <ele>2118.88</ele>
        <time>2013-06-02T05:53:24Z</time>
      </trkpt>
      <trkpt lat="42.56318" lon="1.98699">
        <ele>2121.77</ele>
        <time>2013-06-02T05:53:38Z</time>
      </trkpt>
      <trkpt lat="42.56321" lon="1.98695">
        <ele>2121.29</ele>
        <time>2013-06-02T05:53:50Z</time>
      </trkpt>
      <trkpt lat="42.56323" lon="1.9869">
        <ele>2121.77</ele>
        <time>2013-06-02T05:54:04Z</time>
      </trkpt>
      <trkpt lat="42.56327" lon="1.98683">
        <ele>2122.25</ele>
        <time>2013-06-02T05:54:16Z</time>
      </trkpt>
      <trkpt lat="42.5633" lon="1.98673">
        <ele>2124.17</ele>
        <time>2013-06-02T05:54:31Z</time>
      </trkpt>
      <trkpt lat="42.56336" lon="1.98665">
        <ele>2125.61</ele>
        <time>2013-06-02T05:54:45Z</time>
      </trkpt>
      <trkpt lat="42.56339" lon="1.98658">
        <ele>2127.05</ele>
        <time>2013-06-02T05:54:58Z</time>
      </trkpt>
      <trkpt lat="42.56338" lon="1.98649">
        <ele>2128.5</ele>
        <time>2013-06-02T05:55:10Z</time>
      </trkpt>
      <trkpt lat="42.56343" lon="1.98638">
        <ele>2130.42</ele>
        <time>2013-06-02T05:55:25Z</time>
      </trkpt>
      <trkpt lat="42.56351" lon="1.98632">
        <ele>2130.42</ele>
        <time>2013-06-02T05:55:39Z</time>
      </trkpt>
      <trkpt lat="42.56356" lon="1.98625">
        <ele>2132.34</ele>
        <time>2013-06-02T05:55:54Z</time>
      </trkpt>
      <trkpt lat="42.56362" lon="1.9862">
        <ele>2135.23</ele>
        <time>2013-06-02T05:56:07Z</time>
      </trkpt>
      <trkpt lat="42.5637" lon="1.98616">
        <ele>2137.15</ele>
        <time>2013-06-02T05:56:22Z</time>
      </trkpt>
      <trkpt lat="42.56371" lon="1.98612">
        <ele>2138.11</ele>
        <time>2013-06-02T05:56:36Z</time>
      </trkpt>
      <trkpt lat="42.56377" lon="1.98605">
        <ele>2139.55</ele>
        <time>2013-06-02T05:56:50Z</time>
      </trkpt>
      <trkpt lat="42.5638" lon="1.98598">
        <ele>2138.59</ele>
        <time>2013-06-02T05:57:03Z</time>
      </trkpt>
      <trkpt lat="42.56388" lon="1.98591">
        <ele>2138.11</ele>
        <time>2013-06-02T05:57:15Z</time>
      </trkpt>
      <trkpt lat="42.56392" lon="1.98588">
        <ele>2137.63</ele>
        <time>2013-06-02T05:57:20Z</time>
      </trkpt>
      <trkpt lat="42.56399" lon="1.98583">
        <ele>2137.15</ele>
        <time>2013-06-02T05:57:33Z</time>
      </trkpt>
      <trkpt lat="42.56408" lon="1.98578">
        <ele>2137.15</ele>
        <time>2013-06-02T05:57:46Z</time>
      </trkpt>
      <trkpt lat="42.56412" lon="1.98574">
        <ele>2137.63</ele>
        <time>2013-06-02T05:57:51Z</time>
      </trkpt>
      <trkpt lat="42.56422" lon="1.98565">
        <ele>2138.59</ele>
        <time>2013-06-02T05:58:04Z</time>
      </trkpt>
      <trkpt lat="42.56426" lon="1.98559">
        <ele>2139.07</ele>
        <time>2013-06-02T05:58:14Z</time>
      </trkpt>
      <trkpt lat="42.5643" lon="1.98551">
        <ele>2142.44</ele>
        <time>2013-06-02T05:58:27Z</time>
      </trkpt>
      <trkpt lat="42.56432" lon="1.9854">
        <ele>2143.88</ele>
        <time>2013-06-02T05:58:40Z</time>
      </trkpt>
      <trkpt lat="42.56432" lon="1.98525">
        <ele>2145.32</ele>
        <time>2013-06-02T05:58:54Z</time>
      </trkpt>
      <trkpt lat="42.56433" lon="1.98509">
        <ele>2148.68</ele>
        <time>2013-06-02T05:59:09Z</time>
      </trkpt>
      <trkpt lat="42.56437" lon="1.985">
        <ele>2148.68</ele>
        <time>2013-06-02T05:59:23Z</time>
      </trkpt>
      <trkpt lat="42.56436" lon="1.98494">
        <ele>2149.65</ele>
        <time>2013-06-02T05:59:29Z</time>
      </trkpt>
      <trkpt lat="42.56433" lon="1.98481">
        <ele>2150.61</ele>
        <time>2013-06-02T05:59:42Z</time>
      </trkpt>
      <trkpt lat="42.56429" lon="1.98464">
        <ele>2149.16</ele>
        <time>2013-06-02T05:59:57Z</time>
      </trkpt>
      <trkpt lat="42.56427" lon="1.98458">
        <ele>2153.01</ele>
        <time>2013-06-02T06:00:09Z</time>
      </trkpt>
      <trkpt lat="42.56424" lon="1.98448">
        <ele>2151.57</ele>
        <time>2013-06-02T06:00:20Z</time>
      </trkpt>
      <trkpt lat="42.56422" lon="1.98445">
        <ele>2152.05</ele>
        <time>2013-06-02T06:00:22Z</time>
      </trkpt>
      <trkpt lat="42.56418" lon="1.98434">
        <ele>2153.49</ele>
        <time>2013-06-02T06:00:35Z</time>
      </trkpt>
      <trkpt lat="42.56415" lon="1.9842">
        <ele>2153.49</ele>
        <time>2013-06-02T06:00:49Z</time>
      </trkpt>
      <trkpt lat="42.56415" lon="1.98409">
        <ele>2155.41</ele>
        <time>2013-06-02T06:01:02Z</time>
      </trkpt>
      <trkpt lat="42.56415" lon="1.98395">
        <ele>2154.93</ele>
        <time>2013-06-02T06:01:14Z</time>
      </trkpt>
      <trkpt lat="42.56415" lon="1.98392">
        <ele>2155.41</ele>
        <time>2013-06-02T06:01:16Z</time>
      </trkpt>
      <trkpt lat="42.56417" lon="1.98372">
        <ele>2154.93</ele>
        <time>2013-06-02T06:01:30Z</time>
      </trkpt>
      <trkpt lat="42.5642" lon="1.98363">
        <ele>2154.93</ele>
        <time>2013-06-02T06:01:38Z</time>
      </trkpt>
      <trkpt lat="42.56426" lon="1.9835">
        <ele>2155.41</ele>
        <time>2013-06-02T06:01:50Z</time>
      </trkpt>
      <trkpt lat="42.5643" lon="1.98345">
        <ele>2156.37</ele>
        <time>2013-06-02T06:02:04Z</time>
      </trkpt>
      <trkpt lat="42.56434" lon="1.9834">
        <ele>2155.41</ele>
        <time>2013-06-02T06:02:14Z</time>
      </trkpt>
      <trkpt lat="42.56441" lon="1.98329">
        <ele>2154.45</ele>
        <time>2013-06-02T06:02:26Z</time>
      </trkpt>
      <trkpt lat="42.56444" lon="1.98318">
        <ele>2154.45</ele>
        <time>2013-06-02T06:02:39Z</time>
      </trkpt>
      <trkpt lat="42.56446" lon="1.98307">
        <ele>2153.49</ele>
        <time>2013-06-02T06:02:51Z</time>
      </trkpt>
      <trkpt lat="42.56448" lon="1.98307">
        <ele>2153.01</ele>
        <time>2013-06-02T06:02:53Z</time>
      </trkpt>
      <trkpt lat="42.56459" lon="1.98304">
        <ele>2150.61</ele>
        <time>2013-06-02T06:03:06Z</time>
      </trkpt>
      <trkpt lat="42.56463" lon="1.98295">
        <ele>2149.65</ele>
        <time>2013-06-02T06:03:16Z</time>
      </trkpt>
      <trkpt lat="42.56467" lon="1.98286">
        <ele>2150.13</ele>
        <time>2013-06-02T06:03:29Z</time>
      </trkpt>
      <trkpt lat="42.56474" lon="1.98278">
        <ele>2148.2</ele>
        <time>2013-06-02T06:03:42Z</time>
      </trkpt>
      <trkpt lat="42.56481" lon="1.9827">
        <ele>2149.65</ele>
        <time>2013-06-02T06:03:54Z</time>
      </trkpt>
      <trkpt lat="42.5649" lon="1.98269">
        <ele>2149.65</ele>
        <time>2013-06-02T06:04:07Z</time>
      </trkpt>
      <trkpt lat="42.56494" lon="1.98262">
        <ele>2153.01</ele>
        <time>2013-06-02T06:04:20Z</time>
      </trkpt>
      <trkpt lat="42.56495" lon="1.98254">
        <ele>2155.89</ele>
        <time>2013-06-02T06:04:36Z</time>
      </trkpt>
      <trkpt lat="42.56502" lon="1.9825">
        <ele>2156.86</ele>
        <time>2013-06-02T06:04:49Z</time>
      </trkpt>
      <trkpt lat="42.56507" lon="1.98242">
        <ele>2157.82</ele>
        <time>2013-06-02T06:05:03Z</time>
      </trkpt>
      <trkpt lat="42.56515" lon="1.98238">
        <ele>2158.3</ele>
        <time>2013-06-02T06:05:17Z</time>
      </trkpt>
      <trkpt lat="42.56522" lon="1.98232">
        <ele>2159.74</ele>
        <time>2013-06-02T06:05:28Z</time>
      </trkpt>
      <trkpt lat="42.56525" lon="1.98227">
        <ele>2160.22</ele>
        <time>2013-06-02T06:05:40Z</time>
      </trkpt>
      <trkpt lat="42.5653" lon="1.98224">
        <ele>2160.7</ele>
        <time>2013-06-02T06:05:48Z</time>
      </trkpt>
      <trkpt lat="42.56533" lon="1.98216">
        <ele>2162.14</ele>
        <time>2013-06-02T06:06:00Z</time>
      </trkpt>
      <trkpt lat="42.56538" lon="1.98207">
        <ele>2161.66</ele>
        <time>2013-06-02T06:06:13Z</time>
      </trkpt>
      <trkpt lat="42.56543" lon="1.982">
        <ele>2162.62</ele>
        <time>2013-06-02T06:06:27Z</time>
      </trkpt>
      <trkpt lat="42.56544" lon="1.98195">
        <ele>2166.47</ele>
        <time>2013-06-02T06:06:37Z</time>
      </trkpt>
      <trkpt lat="42.56545" lon="1.98195">
        <ele>2168.87</ele>
        <time>2013-06-02T06:06:56Z</time>
      </trkpt>
      <trkpt lat="42.56545" lon="1.98195">
        <ele>2168.87</ele>
        <time>2013-06-02T06:07:20Z</time>
      </trkpt>
      <trkpt lat="42.56548" lon="1.98197">
        <ele>2169.35</ele>
        <time>2013-06-02T06:07:31Z</time>
      </trkpt>
      <trkpt lat="42.56546" lon="1.98196">
        <ele>2170.79</ele>
        <time>2013-06-02T06:07:53Z</time>
      </trkpt>
      <trkpt lat="42.56545" lon="1.98195">
        <ele>2171.76</ele>
        <time>2013-06-02T06:08:06Z</time>
      </trkpt>
      <trkpt lat="42.56544" lon="1.98189">
        <ele>2168.39</ele>
        <time>2013-06-02T06:08:29Z</time>
      </trkpt>
      <trkpt lat="42.56543" lon="1.98176">
        <ele>2165.03</ele>
        <time>2013-06-02T06:08:42Z</time>
      </trkpt>
      <trkpt lat="42.56536" lon="1.98164">
        <ele>2166.95</ele>
        <time>2013-06-02T06:08:56Z</time>
      </trkpt>
      <trkpt lat="42.56531" lon="1.98158">
        <ele>2167.91</ele>
        <time>2013-06-02T06:09:04Z</time>
      </trkpt>
      <trkpt lat="42.56527" lon="1.98146">
        <ele>2171.76</ele>
        <time>2013-06-02T06:09:16Z</time>
      </trkpt>
      <trkpt lat="42.56526" lon="1.98145">
        <ele>2173.2</ele>
        <time>2013-06-02T06:09:19Z</time>
      </trkpt>
      <trkpt lat="42.56522" lon="1.98131">
        <ele>2174.16</ele>
        <time>2013-06-02T06:09:32Z</time>
      </trkpt>
      <trkpt lat="42.56517" lon="1.98119">
        <ele>2175.6</ele>
        <time>2013-06-02T06:09:45Z</time>
      </trkpt>
      <trkpt lat="42.56517" lon="1.98113">
        <ele>2173.68</ele>
        <time>2013-06-02T06:09:58Z</time>
      </trkpt>
      <trkpt lat="42.56515" lon="1.98102">
        <ele>2171.76</ele>
        <time>2013-06-02T06:10:10Z</time>
      </trkpt>
      <trkpt lat="42.56512" lon="1.98095">
        <ele>2170.31</ele>
        <time>2013-06-02T06:10:17Z</time>
      </trkpt>
      <trkpt lat="42.5651" lon="1.9809">
        <ele>2170.79</ele>
        <time>2013-06-02T06:10:32Z</time>
      </trkpt>
      <trkpt lat="42.56504" lon="1.98082">
        <ele>2173.2</ele>
        <time>2013-06-02T06:10:43Z</time>
      </trkpt>
      <trkpt lat="42.56502" lon="1.98078">
        <ele>2172.24</ele>
        <time>2013-06-02T06:10:49Z</time>
      </trkpt>
      <trkpt lat="42.565" lon="1.98068">
        <ele>2172.72</ele>
        <time>2013-06-02T06:11:00Z</time>
      </trkpt>
      <trkpt lat="42.56502" lon="1.98058">
        <ele>2172.72</ele>
        <time>2013-06-02T06:11:06Z</time>
      </trkpt>
      <trkpt lat="42.56501" lon="1.98052">
        <ele>2172.24</ele>
        <time>2013-06-02T06:11:11Z</time>
      </trkpt>
      <trkpt lat="42.56501" lon="1.98043">
        <ele>2171.27</ele>
        <time>2013-06-02T06:11:18Z</time>
      </trkpt>
      <trkpt lat="42.56498" lon="1.9803">
        <ele>2173.2</ele>
        <time>2013-06-02T06:11:31Z</time>
      </trkpt>
      <trkpt lat="42.56495" lon="1.98015">
        <ele>2173.68</ele>
        <time>2013-06-02T06:11:44Z</time>
      </trkpt>
      <trkpt lat="42.56491" lon="1.98008">
        <ele>2173.68</ele>
        <time>2013-06-02T06:11:50Z</time>
      </trkpt>
      <trkpt lat="42.5649" lon="1.98006">
        <ele>2173.68</ele>
        <time>2013-06-02T06:11:52Z</time>
      </trkpt>
      <trkpt lat="42.56488" lon="1.97998">
        <ele>2174.16</ele>
        <time>2013-06-02T06:12:00Z</time>
      </trkpt>
      <trkpt lat="42.56488" lon="1.97987">
        <ele>2174.16</ele>
        <time>2013-06-02T06:12:09Z</time>
      </trkpt>
      <trkpt lat="42.56489" lon="1.9797">
        <ele>2173.2</ele>
        <time>2013-06-02T06:12:22Z</time>
      </trkpt>
      <trkpt lat="42.56489" lon="1.97957">
        <ele>2172.24</ele>
        <time>2013-06-02T06:12:35Z</time>
      </trkpt>
      <trkpt lat="42.56491" lon="1.97941">
        <ele>2174.16</ele>
        <time>2013-06-02T06:12:48Z</time>
      </trkpt>
      <trkpt lat="42.56492" lon="1.97928">
        <ele>2175.12</ele>
        <time>2013-06-02T06:13:01Z</time>
      </trkpt>
      <trkpt lat="42.56494" lon="1.97926">
        <ele>2176.08</ele>
        <time>2013-06-02T06:13:14Z</time>
      </trkpt>
      <trkpt lat="42.56493" lon="1.97925">
        <ele>2175.12</ele>
        <time>2013-06-02T06:13:21Z</time>
      </trkpt>
      <trkpt lat="42.56498" lon="1.97913">
        <ele>2173.2</ele>
        <time>2013-06-02T06:13:34Z</time>
      </trkpt>
      <trkpt lat="42.56499" lon="1.97901">
        <ele>2171.76</ele>
        <time>2013-06-02T06:13:47Z</time>
      </trkpt>
      <trkpt lat="42.56495" lon="1.97893">
        <ele>2169.35</ele>
        <time>2013-06-02T06:13:59Z</time>
      </trkpt>
      <trkpt lat="42.56494" lon="1.97893">
        <ele>2169.35</ele>
        <time>2013-06-02T06:14:00Z</time>
      </trkpt>
      <trkpt lat="42.56487" lon="1.97885">
        <ele>2169.35</ele>
        <time>2013-06-02T06:14:12Z</time>
      </trkpt>
      <trkpt lat="42.5648" lon="1.97876">
        <ele>2168.87</ele>
        <time>2013-06-02T06:14:24Z</time>
      </trkpt>
      <trkpt lat="42.56475" lon="1.97862">
        <ele>2168.87</ele>
        <time>2013-06-02T06:14:38Z</time>
      </trkpt>
      <trkpt lat="42.56475" lon="1.97861">
        <ele>2168.87</ele>
        <time>2013-06-02T06:14:39Z</time>
      </trkpt>
      <trkpt lat="42.56473" lon="1.97851">
        <ele>2167.91</ele>
        <time>2013-06-02T06:14:51Z</time>
      </trkpt>
      <trkpt lat="42.56472" lon="1.97843">
        <ele>2167.91</ele>
        <time>2013-06-02T06:15:08Z</time>
      </trkpt>
      <trkpt lat="42.56468" lon="1.97832">
        <ele>2168.87</ele>
        <time>2013-06-02T06:15:20Z</time>
      </trkpt>
      <trkpt lat="42.56462" lon="1.97824">
        <ele>2170.79</ele>
        <time>2013-06-02T06:15:32Z</time>
      </trkpt>
      <trkpt lat="42.56461" lon="1.97815">
        <ele>2169.35</ele>
        <time>2013-06-02T06:15:45Z</time>
      </trkpt>
      <trkpt lat="42.56459" lon="1.97812">
        <ele>2168.87</ele>
        <time>2013-06-02T06:15:48Z</time>
      </trkpt>
      <trkpt lat="42.56456" lon="1.97801">
        <ele>2166.95</ele>
        <time>2013-06-02T06:15:56Z</time>
      </trkpt>
      <trkpt lat="42.56453" lon="1.97793">
        <ele>2165.99</ele>
        <time>2013-06-02T06:16:05Z</time>
      </trkpt>
      <trkpt lat="42.56453" lon="1.9779">
        <ele>2165.51</ele>
        <time>2013-06-02T06:16:07Z</time>
      </trkpt>
      <trkpt lat="42.56451" lon="1.97788">
        <ele>2165.51</ele>
        <time>2013-06-02T06:16:09Z</time>
      </trkpt>
      <trkpt lat="42.5645" lon="1.97779">
        <ele>2163.1</ele>
        <time>2013-06-02T06:16:21Z</time>
      </trkpt>
      <trkpt lat="42.5645" lon="1.97783">
        <ele>2164.06</ele>
        <time>2013-06-02T06:16:37Z</time>
      </trkpt>
      <trkpt lat="42.56452" lon="1.9778">
        <ele>2165.51</ele>
        <time>2013-06-02T06:16:47Z</time>
      </trkpt>
      <trkpt lat="42.56453" lon="1.97779">
        <ele>2165.99</ele>
        <time>2013-06-02T06:17:01Z</time>
      </trkpt>
      <trkpt lat="42.5645" lon="1.97776">
        <ele>2165.99</ele>
        <time>2013-06-02T06:17:13Z</time>
      </trkpt>
      <trkpt lat="42.56447" lon="1.97776">
        <ele>2165.51</ele>
        <time>2013-06-02T06:17:16Z</time>
      </trkpt>
      <trkpt lat="42.56445" lon="1.97772">
        <ele>2165.51</ele>
        <time>2013-06-02T06:17:20Z</time>
      </trkpt>
      <trkpt lat="42.56445" lon="1.97759">
        <ele>2165.51</ele>
        <time>2013-06-02T06:17:33Z</time>
      </trkpt>
      <trkpt lat="42.56443" lon="1.97748">
        <ele>2163.58</ele>
        <time>2013-06-02T06:17:45Z</time>
      </trkpt>
      <trkpt lat="42.56442" lon="1.97733">
        <ele>2164.55</ele>
        <time>2013-06-02T06:17:59Z</time>
      </trkpt>
      <trkpt lat="42.5644" lon="1.97729">
        <ele>2163.58</ele>
        <time>2013-06-02T06:18:04Z</time>
      </trkpt>
      <trkpt lat="42.56437" lon="1.97718">
        <ele>2162.62</ele>
        <time>2013-06-02T06:18:16Z</time>
      </trkpt>
      <trkpt lat="42.56439" lon="1.97706">
        <ele>2162.62</ele>
        <time>2013-06-02T06:18:29Z</time>
      </trkpt>
      <trkpt lat="42.56448" lon="1.97699">
        <ele>2163.58</ele>
        <time>2013-06-02T06:18:43Z</time>
      </trkpt>
      <trkpt lat="42.56454" lon="1.9769">
        <ele>2166.47</ele>
        <time>2013-06-02T06:18:59Z</time>
      </trkpt>
      <trkpt lat="42.56454" lon="1.97685">
        <ele>2167.91</ele>
        <time>2013-06-02T06:19:11Z</time>
      </trkpt>
      <trkpt lat="42.56458" lon="1.97678">
        <ele>2165.51</ele>
        <time>2013-06-02T06:19:23Z</time>
      </trkpt>
      <trkpt lat="42.5646" lon="1.97665">
        <ele>2165.51</ele>
        <time>2013-06-02T06:19:36Z</time>
      </trkpt>
      <trkpt lat="42.5646" lon="1.97664">
        <ele>2165.51</ele>
        <time>2013-06-02T06:19:37Z</time>
      </trkpt>
      <trkpt lat="42.56461" lon="1.97658">
        <ele>2164.06</ele>
        <time>2013-06-02T06:19:46Z</time>
      </trkpt>
      <trkpt lat="42.56464" lon="1.97646">
        <ele>2164.55</ele>
        <time>2013-06-02T06:19:58Z</time>
      </trkpt>
      <trkpt lat="42.56465" lon="1.97645">
        <ele>2164.06</ele>
        <time>2013-06-02T06:19:59Z</time>
      </trkpt>
      <trkpt lat="42.5647" lon="1.97637">
        <ele>2163.58</ele>
        <time>2013-06-02T06:20:12Z</time>
      </trkpt>
      <trkpt lat="42.56475" lon="1.97635">
        <ele>2162.62</ele>
        <time>2013-06-02T06:20:21Z</time>
      </trkpt>
      <trkpt lat="42.56477" lon="1.97632">
        <ele>2162.62</ele>
        <time>2013-06-02T06:20:25Z</time>
      </trkpt>
      <trkpt lat="42.56478" lon="1.97628">
        <ele>2163.1</ele>
        <time>2013-06-02T06:20:29Z</time>
      </trkpt>
      <trkpt lat="42.56478" lon="1.97621">
        <ele>2162.62</ele>
        <time>2013-06-02T06:20:35Z</time>
      </trkpt>
      <trkpt lat="42.56479" lon="1.97605">
        <ele>2162.62</ele>
        <time>2013-06-02T06:20:48Z</time>
      </trkpt>
      <trkpt lat="42.5648" lon="1.97589">
        <ele>2162.14</ele>
        <time>2013-06-02T06:21:02Z</time>
      </trkpt>
      <trkpt lat="42.56477" lon="1.97576">
        <ele>2161.66</ele>
        <time>2013-06-02T06:21:15Z</time>
      </trkpt>
      <trkpt lat="42.56477" lon="1.97571">
        <ele>2162.62</ele>
        <time>2013-06-02T06:21:28Z</time>
      </trkpt>
      <trkpt lat="42.56477" lon="1.97571">
        <ele>2163.1</ele>
        <time>2013-06-02T06:21:47Z</time>
      </trkpt>
      <trkpt lat="42.56477" lon="1.97571">
        <ele>2163.1</ele>
        <time>2013-06-02T06:22:05Z</time>
      </trkpt>
      <trkpt lat="42.56477" lon="1.97571">
        <ele>2164.06</ele>
        <time>2013-06-02T06:22:15Z</time>
      </trkpt>
      <trkpt lat="42.56476" lon="1.97571">
        <ele>2166.47</ele>
        <time>2013-06-02T06:22:30Z</time>
      </trkpt>
      <trkpt lat="42.56477" lon="1.9757">
        <ele>2164.06</ele>
        <time>2013-06-02T06:22:47Z</time>
      </trkpt>
      <trkpt lat="42.56474" lon="1.97572">
        <ele>2159.74</ele>
        <time>2013-06-02T06:23:28Z</time>
      </trkpt>
      <trkpt lat="42.56478" lon="1.97574">
        <ele>2157.82</ele>
        <time>2013-06-02T06:24:06Z</time>
      </trkpt>
      <trkpt lat="42.56476" lon="1.9757">
        <ele>2156.86</ele>
        <time>2013-06-02T06:24:41Z</time>
      </trkpt>
      <trkpt lat="42.56476" lon="1.9757">
        <ele>2159.74</ele>
        <time>2013-06-02T06:25:07Z</time>
      </trkpt>
      <trkpt lat="42.56477" lon="1.97571">
        <ele>2161.18</ele>
        <time>2013-06-02T06:25:20Z</time>
      </trkpt>
      <trkpt lat="42.56478" lon="1.97572">
        <ele>2162.14</ele>
        <time>2013-06-02T06:25:37Z</time>
      </trkpt>
      <trkpt lat="42.56477" lon="1.9757">
        <ele>2163.58</ele>
        <time>2013-06-02T06:25:52Z</time>
      </trkpt>
      <trkpt lat="42.56478" lon="1.97571">
        <ele>2165.03</ele>
        <time>2013-06-02T06:26:04Z</time>
      </trkpt>
      <trkpt lat="42.56478" lon="1.9757">
        <ele>2162.62</ele>
        <time>2013-06-02T06:26:23Z</time>
      </trkpt>
      <trkpt lat="42.56478" lon="1.9757">
        <ele>2161.66</ele>
        <time>2013-06-02T06:26:32Z</time>
      </trkpt>
      <trkpt lat="42.56482" lon="1.97564">
        <ele>2160.7</ele>
        <time>2013-06-02T06:26:48Z</time>
      </trkpt>
      <trkpt lat="42.56483" lon="1.97564">
        <ele>2161.18</ele>
        <time>2013-06-02T06:26:50Z</time>
      </trkpt>
      <trkpt lat="42.56484" lon="1.97561">
        <ele>2161.66</ele>
        <time>2013-06-02T06:26:53Z</time>
      </trkpt>
      <trkpt lat="42.56495" lon="1.97545">
        <ele>2162.62</ele>
        <time>2013-06-02T06:27:07Z</time>
      </trkpt>
      <trkpt lat="42.56499" lon="1.97532">
        <ele>2164.55</ele>
        <time>2013-06-02T06:27:18Z</time>
      </trkpt>
      <trkpt lat="42.565" lon="1.97526">
        <ele>2166.47</ele>
        <time>2013-06-02T06:27:23Z</time>
      </trkpt>
      <trkpt lat="42.56497" lon="1.97507">
        <ele>2169.35</ele>
        <time>2013-06-02T06:27:39Z</time>
      </trkpt>
      <trkpt lat="42.56496" lon="1.97496">
        <ele>2172.72</ele>
        <time>2013-06-02T06:27:51Z</time>
      </trkpt>
      <trkpt lat="42.56496" lon="1.97485">
        <ele>2175.12</ele>
        <time>2013-06-02T06:28:04Z</time>
      </trkpt>
      <trkpt lat="42.56497" lon="1.97476">
        <ele>2177.52</ele>
        <time>2013-06-02T06:28:15Z</time>
      </trkpt>
      <trkpt lat="42.56499" lon="1.97464">
        <ele>2178.97</ele>
        <time>2013-06-02T06:28:27Z</time>
      </trkpt>
      <trkpt lat="42.56501" lon="1.97453">
        <ele>2179.93</ele>
        <time>2013-06-02T06:28:40Z</time>
      </trkpt>
      <trkpt lat="42.56503" lon="1.97442">
        <ele>2182.33</ele>
        <time>2013-06-02T06:28:53Z</time>
      </trkpt>
      <trkpt lat="42.56506" lon="1.97431">
        <ele>2185.21</ele>
        <time>2013-06-02T06:29:06Z</time>
      </trkpt>
      <trkpt lat="42.56505" lon="1.9742">
        <ele>2185.69</ele>
        <time>2013-06-02T06:29:18Z</time>
      </trkpt>
      <trkpt lat="42.56505" lon="1.97408">
        <ele>2189.06</ele>
        <time>2013-06-02T06:29:32Z</time>
      </trkpt>
      <trkpt lat="42.56507" lon="1.97403">
        <ele>2190.02</ele>
        <time>2013-06-02T06:29:37Z</time>
      </trkpt>
      <trkpt lat="42.56512" lon="1.97393">
        <ele>2192.9</ele>
        <time>2013-06-02T06:29:49Z</time>
      </trkpt>
      <trkpt lat="42.56512" lon="1.97387">
        <ele>2193.39</ele>
        <time>2013-06-02T06:29:56Z</time>
      </trkpt>
      <trkpt lat="42.56514" lon="1.97383">
        <ele>2193.87</ele>
        <time>2013-06-02T06:30:00Z</time>
      </trkpt>
      <trkpt lat="42.5652" lon="1.97371">
        <ele>2193.39</ele>
        <time>2013-06-02T06:30:14Z</time>
      </trkpt>
      <trkpt lat="42.56521" lon="1.97363">
        <ele>2193.39</ele>
        <time>2013-06-02T06:30:25Z</time>
      </trkpt>
      <trkpt lat="42.5652" lon="1.97364">
        <ele>2192.9</ele>
        <time>2013-06-02T06:30:43Z</time>
      </trkpt>
      <trkpt lat="42.56523" lon="1.97366">
        <ele>2192.42</ele>
        <time>2013-06-02T06:30:55Z</time>
      </trkpt>
      <trkpt lat="42.5653" lon="1.97368">
        <ele>2192.42</ele>
        <time>2013-06-02T06:31:04Z</time>
      </trkpt>
      <trkpt lat="42.56541" lon="1.97371">
        <ele>2191.94</ele>
        <time>2013-06-02T06:31:17Z</time>
      </trkpt>
      <trkpt lat="42.5655" lon="1.9737">
        <ele>2191.46</ele>
        <time>2013-06-02T06:31:29Z</time>
      </trkpt>
      <trkpt lat="42.56564" lon="1.97369">
        <ele>2190.98</ele>
        <time>2013-06-02T06:31:42Z</time>
      </trkpt>
      <trkpt lat="42.56578" lon="1.97369">
        <ele>2190.02</ele>
        <time>2013-06-02T06:31:56Z</time>
      </trkpt>
      <trkpt lat="42.56589" lon="1.9736">
        <ele>2190.5</ele>
        <time>2013-06-02T06:32:09Z</time>
      </trkpt>
      <trkpt lat="42.56594" lon="1.9736">
        <ele>2190.5</ele>
        <time>2013-06-02T06:32:15Z</time>
      </trkpt>
      <trkpt lat="42.56601" lon="1.97363">
        <ele>2190.02</ele>
        <time>2013-06-02T06:32:21Z</time>
      </trkpt>
      <trkpt lat="42.56614" lon="1.97359">
        <ele>2190.5</ele>
        <time>2013-06-02T06:32:34Z</time>
      </trkpt>
      <trkpt lat="42.56624" lon="1.97356">
        <ele>2190.98</ele>
        <time>2013-06-02T06:32:45Z</time>
      </trkpt>
      <trkpt lat="42.56635" lon="1.97352">
        <ele>2192.42</ele>
        <time>2013-06-02T06:32:55Z</time>
      </trkpt>
      <trkpt lat="42.56637" lon="1.97352">
        <ele>2191.94</ele>
        <time>2013-06-02T06:32:58Z</time>
      </trkpt>
      <trkpt lat="42.56643" lon="1.97347">
        <ele>2192.42</ele>
        <time>2013-06-02T06:33:05Z</time>
      </trkpt>
      <trkpt lat="42.56654" lon="1.97341">
        <ele>2191.94</ele>
        <time>2013-06-02T06:33:19Z</time>
      </trkpt>
      <trkpt lat="42.56663" lon="1.97338">
        <ele>2192.42</ele>
        <time>2013-06-02T06:33:31Z</time>
      </trkpt>
      <trkpt lat="42.56675" lon="1.97333">
        <ele>2193.39</ele>
        <time>2013-06-02T06:33:44Z</time>
      </trkpt>
      <trkpt lat="42.56685" lon="1.97331">
        <ele>2194.35</ele>
        <time>2013-06-02T06:33:55Z</time>
      </trkpt>
      <trkpt lat="42.56697" lon="1.97326">
        <ele>2195.79</ele>
        <time>2013-06-02T06:34:08Z</time>
      </trkpt>
      <trkpt lat="42.56699" lon="1.97322">
        <ele>2195.79</ele>
        <time>2013-06-02T06:34:13Z</time>
      </trkpt>
      <trkpt lat="42.56703" lon="1.97318">
        <ele>2196.27</ele>
        <time>2013-06-02T06:34:19Z</time>
      </trkpt>
      <trkpt lat="42.56719" lon="1.97317">
        <ele>2195.79</ele>
        <time>2013-06-02T06:34:34Z</time>
      </trkpt>
      <trkpt lat="42.56721" lon="1.97317">
        <ele>2195.79</ele>
        <time>2013-06-02T06:34:37Z</time>
      </trkpt>
      <trkpt lat="42.56729" lon="1.97316">
        <ele>2196.75</ele>
        <time>2013-06-02T06:34:45Z</time>
      </trkpt>
      <trkpt lat="42.56739" lon="1.97307">
        <ele>2196.75</ele>
        <time>2013-06-02T06:34:59Z</time>
      </trkpt>
      <trkpt lat="42.5674" lon="1.97306">
        <ele>2196.75</ele>
        <time>2013-06-02T06:35:01Z</time>
      </trkpt>
      <trkpt lat="42.56754" lon="1.97301">
        <ele>2197.71</ele>
        <time>2013-06-02T06:35:14Z</time>
      </trkpt>
      <trkpt lat="42.56755" lon="1.97301">
        <ele>2198.19</ele>
        <time>2013-06-02T06:35:16Z</time>
      </trkpt>
      <trkpt lat="42.56766" lon="1.97291">
        <ele>2198.67</ele>
        <time>2013-06-02T06:35:29Z</time>
      </trkpt>
      <trkpt lat="42.56773" lon="1.97284">
        <ele>2199.63</ele>
        <time>2013-06-02T06:35:40Z</time>
      </trkpt>
      <trkpt lat="42.56782" lon="1.97274">
        <ele>2200.11</ele>
        <time>2013-06-02T06:35:53Z</time>
      </trkpt>
      <trkpt lat="42.56784" lon="1.97272">
        <ele>2200.11</ele>
        <time>2013-06-02T06:35:57Z</time>
      </trkpt>
      <trkpt lat="42.56793" lon="1.97266">
        <ele>2202.04</ele>
        <time>2013-06-02T06:36:09Z</time>
      </trkpt>
      <trkpt lat="42.56796" lon="1.97262">
        <ele>2202.52</ele>
        <time>2013-06-02T06:36:22Z</time>
      </trkpt>
      <trkpt lat="42.56796" lon="1.97263">
        <ele>2203.96</ele>
        <time>2013-06-02T06:36:46Z</time>
      </trkpt>
      <trkpt lat="42.56797" lon="1.97263">
        <ele>2203</ele>
        <time>2013-06-02T06:37:06Z</time>
      </trkpt>
      <trkpt lat="42.56802" lon="1.97258">
        <ele>2202.52</ele>
        <time>2013-06-02T06:37:19Z</time>
      </trkpt>
      <trkpt lat="42.56814" lon="1.9725">
        <ele>2204.44</ele>
        <time>2013-06-02T06:37:33Z</time>
      </trkpt>
      <trkpt lat="42.56822" lon="1.97244">
        <ele>2206.36</ele>
        <time>2013-06-02T06:37:44Z</time>
      </trkpt>
      <trkpt lat="42.56833" lon="1.97237">
        <ele>2207.32</ele>
        <time>2013-06-02T06:37:57Z</time>
      </trkpt>
      <trkpt lat="42.56841" lon="1.9723">
        <ele>2207.32</ele>
        <time>2013-06-02T06:38:09Z</time>
      </trkpt>
      <trkpt lat="42.56844" lon="1.97228">
        <ele>2208.29</ele>
        <time>2013-06-02T06:38:14Z</time>
      </trkpt>
      <trkpt lat="42.56851" lon="1.97225">
        <ele>2210.21</ele>
        <time>2013-06-02T06:38:26Z</time>
      </trkpt>
      <trkpt lat="42.56856" lon="1.97221">
        <ele>2211.17</ele>
        <time>2013-06-02T06:38:44Z</time>
      </trkpt>
      <trkpt lat="42.56857" lon="1.9722">
        <ele>2209.25</ele>
        <time>2013-06-02T06:39:00Z</time>
      </trkpt>
      <trkpt lat="42.56867" lon="1.97213">
        <ele>2211.17</ele>
        <time>2013-06-02T06:39:13Z</time>
      </trkpt>
      <trkpt lat="42.56868" lon="1.97212">
        <ele>2210.69</ele>
        <time>2013-06-02T06:39:15Z</time>
      </trkpt>
      <trkpt lat="42.56879" lon="1.97207">
        <ele>2212.61</ele>
        <time>2013-06-02T06:39:28Z</time>
      </trkpt>
      <trkpt lat="42.56883" lon="1.97206">
        <ele>2212.61</ele>
        <time>2013-06-02T06:39:33Z</time>
      </trkpt>
      <trkpt lat="42.56885" lon="1.97205">
        <ele>2213.09</ele>
        <time>2013-06-02T06:39:35Z</time>
      </trkpt>
      <trkpt lat="42.56897" lon="1.972">
        <ele>2215.01</ele>
        <time>2013-06-02T06:39:48Z</time>
      </trkpt>
      <trkpt lat="42.56908" lon="1.97195">
        <ele>2215.98</ele>
        <time>2013-06-02T06:40:01Z</time>
      </trkpt>
      <trkpt lat="42.56919" lon="1.9719">
        <ele>2218.38</ele>
        <time>2013-06-02T06:40:13Z</time>
      </trkpt>
      <trkpt lat="42.56929" lon="1.97186">
        <ele>2220.3</ele>
        <time>2013-06-02T06:40:26Z</time>
      </trkpt>
      <trkpt lat="42.56938" lon="1.9718">
        <ele>2222.22</ele>
        <time>2013-06-02T06:40:40Z</time>
      </trkpt>
      <trkpt lat="42.56945" lon="1.97171">
        <ele>2222.71</ele>
        <time>2013-06-02T06:40:54Z</time>
      </trkpt>
      <trkpt lat="42.56952" lon="1.97163">
        <ele>2224.63</ele>
        <time>2013-06-02T06:41:07Z</time>
      </trkpt>
      <trkpt lat="42.56959" lon="1.97155">
        <ele>2226.55</ele>
        <time>2013-06-02T06:41:20Z</time>
      </trkpt>
      <trkpt lat="42.5696" lon="1.97154">
        <ele>2227.03</ele>
        <time>2013-06-02T06:41:21Z</time>
      </trkpt>
      <trkpt lat="42.5697" lon="1.97145">
        <ele>2229.92</ele>
        <time>2013-06-02T06:41:34Z</time>
      </trkpt>
      <trkpt lat="42.5698" lon="1.97136">
        <ele>2231.36</ele>
        <time>2013-06-02T06:41:50Z</time>
      </trkpt>
      <trkpt lat="42.5699" lon="1.97126">
        <ele>2232.8</ele>
        <time>2013-06-02T06:42:04Z</time>
      </trkpt>
      <trkpt lat="42.56996" lon="1.97116">
        <ele>2233.28</ele>
        <time>2013-06-02T06:42:16Z</time>
      </trkpt>
      <trkpt lat="42.57" lon="1.97115">
        <ele>2233.76</ele>
        <time>2013-06-02T06:42:20Z</time>
      </trkpt>
      <trkpt lat="42.57011" lon="1.97113">
        <ele>2234.24</ele>
        <time>2013-06-02T06:42:32Z</time>
      </trkpt>
      <trkpt lat="42.57024" lon="1.97108">
        <ele>2236.64</ele>
        <time>2013-06-02T06:42:46Z</time>
      </trkpt>
      <trkpt lat="42.57026" lon="1.97107">
        <ele>2236.64</ele>
        <time>2013-06-02T06:42:47Z</time>
      </trkpt>
      <trkpt lat="42.57039" lon="1.97105">
        <ele>2236.16</ele>
        <time>2013-06-02T06:43:01Z</time>
      </trkpt>
      <trkpt lat="42.57055" lon="1.97103">
        <ele>2237.13</ele>
        <time>2013-06-02T06:43:17Z</time>
      </trkpt>
      <trkpt lat="42.57061" lon="1.97103">
        <ele>2237.61</ele>
        <time>2013-06-02T06:43:23Z</time>
      </trkpt>
      <trkpt lat="42.57076" lon="1.97102">
        <ele>2239.05</ele>
        <time>2013-06-02T06:43:38Z</time>
      </trkpt>
      <trkpt lat="42.57088" lon="1.97101">
        <ele>2239.05</ele>
        <time>2013-06-02T06:43:49Z</time>
      </trkpt>
      <trkpt lat="42.57101" lon="1.97106">
        <ele>2238.09</ele>
        <time>2013-06-02T06:44:03Z</time>
      </trkpt>
      <trkpt lat="42.57114" lon="1.97107">
        <ele>2238.09</ele>
        <time>2013-06-02T06:44:16Z</time>
      </trkpt>
      <trkpt lat="42.57114" lon="1.97108">
        <ele>2239.53</ele>
        <time>2013-06-02T06:44:28Z</time>
      </trkpt>
      <trkpt lat="42.57116" lon="1.97107">
        <ele>2238.57</ele>
        <time>2013-06-02T06:44:46Z</time>
      </trkpt>
      <trkpt lat="42.57115" lon="1.97107">
        <ele>2238.09</ele>
        <time>2013-06-02T06:45:01Z</time>
      </trkpt>
      <trkpt lat="42.57116" lon="1.97107">
        <ele>2238.57</ele>
        <time>2013-06-02T06:45:22Z</time>
      </trkpt>
      <trkpt lat="42.57116" lon="1.97107">
        <ele>2238.09</ele>
        <time>2013-06-02T06:45:41Z</time>
      </trkpt>
      <trkpt lat="42.57116" lon="1.97106">
        <ele>2239.05</ele>
        <time>2013-06-02T06:46:02Z</time>
      </trkpt>
      <trkpt lat="42.57116" lon="1.97105">
        <ele>2239.05</ele>
        <time>2013-06-02T06:46:27Z</time>
      </trkpt>
      <trkpt lat="42.57115" lon="1.97106">
        <ele>2238.57</ele>
        <time>2013-06-02T06:46:50Z</time>
      </trkpt>
      <trkpt lat="42.57115" lon="1.97106">
        <ele>2237.61</ele>
        <time>2013-06-02T06:47:04Z</time>
      </trkpt>
      <trkpt lat="42.57115" lon="1.97107">
        <ele>2236.16</ele>
        <time>2013-06-02T06:47:31Z</time>
      </trkpt>
      <trkpt lat="42.57116" lon="1.97107">
        <ele>2235.68</ele>
        <time>2013-06-02T06:47:59Z</time>
      </trkpt>
      <trkpt lat="42.5712" lon="1.97107">
        <ele>2235.68</ele>
        <time>2013-06-02T06:48:06Z</time>
      </trkpt>
      <trkpt lat="42.57135" lon="1.97103">
        <ele>2235.2</ele>
        <time>2013-06-02T06:48:21Z</time>
      </trkpt>
      <trkpt lat="42.57148" lon="1.97097">
        <ele>2234.72</ele>
        <time>2013-06-02T06:48:35Z</time>
      </trkpt>
      <trkpt lat="42.57156" lon="1.97094">
        <ele>2234.24</ele>
        <time>2013-06-02T06:48:47Z</time>
      </trkpt>
      <trkpt lat="42.57165" lon="1.97095">
        <ele>2231.36</ele>
        <time>2013-06-02T06:48:59Z</time>
      </trkpt>
      <trkpt lat="42.57175" lon="1.97094">
        <ele>2232.32</ele>
        <time>2013-06-02T06:49:09Z</time>
      </trkpt>
      <trkpt lat="42.57191" lon="1.97097">
        <ele>2232.32</ele>
        <time>2013-06-02T06:49:22Z</time>
      </trkpt>
      <trkpt lat="42.57196" lon="1.97098">
        <ele>2232.8</ele>
        <time>2013-06-02T06:49:25Z</time>
      </trkpt>
      <trkpt lat="42.57202" lon="1.97102">
        <ele>2231.36</ele>
        <time>2013-06-02T06:49:38Z</time>
      </trkpt>
      <trkpt lat="42.57214" lon="1.97104">
        <ele>2234.72</ele>
        <time>2013-06-02T06:49:50Z</time>
      </trkpt>
      <trkpt lat="42.57226" lon="1.97106">
        <ele>2238.09</ele>
        <time>2013-06-02T06:50:11Z</time>
      </trkpt>
      <trkpt lat="42.57231" lon="1.97109">
        <ele>2237.61</ele>
        <time>2013-06-02T06:50:26Z</time>
      </trkpt>
      <trkpt lat="42.5723" lon="1.9711">
        <ele>2237.61</ele>
        <time>2013-06-02T06:50:46Z</time>
      </trkpt>
      <trkpt lat="42.57239" lon="1.9711">
        <ele>2237.13</ele>
        <time>2013-06-02T06:51:03Z</time>
      </trkpt>
      <trkpt lat="42.57242" lon="1.97109">
        <ele>2237.13</ele>
        <time>2013-06-02T06:51:16Z</time>
      </trkpt>
      <trkpt lat="42.5724" lon="1.97113">
        <ele>2235.2</ele>
        <time>2013-06-02T06:51:27Z</time>
      </trkpt>
      <trkpt lat="42.5725" lon="1.97109">
        <ele>2235.2</ele>
        <time>2013-06-02T06:51:33Z</time>
      </trkpt>
      <trkpt lat="42.57271" lon="1.97093">
        <ele>2232.32</ele>
        <time>2013-06-02T06:51:49Z</time>
      </trkpt>
      <trkpt lat="42.57278" lon="1.9708">
        <ele>2229.92</ele>
        <time>2013-06-02T06:52:01Z</time>
      </trkpt>
      <trkpt lat="42.57275" lon="1.97074">
        <ele>2228.47</ele>
        <time>2013-06-02T06:52:08Z</time>
      </trkpt>
      <trkpt lat="42.57271" lon="1.9705">
        <ele>2224.63</ele>
        <time>2013-06-02T06:52:21Z</time>
      </trkpt>
      <trkpt lat="42.57273" lon="1.97028">
        <ele>2223.19</ele>
        <time>2013-06-02T06:52:32Z</time>
      </trkpt>
      <trkpt lat="42.57274" lon="1.97019">
        <ele>2222.71</ele>
        <time>2013-06-02T06:52:37Z</time>
      </trkpt>
      <trkpt lat="42.57274" lon="1.97001">
        <ele>2223.67</ele>
        <time>2013-06-02T06:52:48Z</time>
      </trkpt>
      <trkpt lat="42.57276" lon="1.96988">
        <ele>2222.71</ele>
        <time>2013-06-02T06:53:01Z</time>
      </trkpt>
      <trkpt lat="42.57279" lon="1.96975">
        <ele>2221.74</ele>
        <time>2013-06-02T06:53:12Z</time>
      </trkpt>
      <trkpt lat="42.57279" lon="1.96968">
        <ele>2220.3</ele>
        <time>2013-06-02T06:53:25Z</time>
      </trkpt>
      <trkpt lat="42.57283" lon="1.9696">
        <ele>2223.19</ele>
        <time>2013-06-02T06:53:37Z</time>
      </trkpt>
      <trkpt lat="42.57282" lon="1.9696">
        <ele>2221.26</ele>
        <time>2013-06-02T06:54:02Z</time>
      </trkpt>
      <trkpt lat="42.57286" lon="1.96951">
        <ele>2221.74</ele>
        <time>2013-06-02T06:54:13Z</time>
      </trkpt>
      <trkpt lat="42.5729" lon="1.9694">
        <ele>2220.78</ele>
        <time>2013-06-02T06:54:23Z</time>
      </trkpt>
      <trkpt lat="42.57292" lon="1.96934">
        <ele>2220.3</ele>
        <time>2013-06-02T06:54:35Z</time>
      </trkpt>
      <trkpt lat="42.57298" lon="1.96919">
        <ele>2219.82</ele>
        <time>2013-06-02T06:54:48Z</time>
      </trkpt>
      <trkpt lat="42.57299" lon="1.96913">
        <ele>2219.82</ele>
        <time>2013-06-02T06:54:52Z</time>
      </trkpt>
      <trkpt lat="42.57301" lon="1.9691">
        <ele>2220.78</ele>
        <time>2013-06-02T06:54:55Z</time>
      </trkpt>
      <trkpt lat="42.57307" lon="1.96905">
        <ele>2219.34</ele>
        <time>2013-06-02T06:55:06Z</time>
      </trkpt>
      <trkpt lat="42.57307" lon="1.96899">
        <ele>2219.34</ele>
        <time>2013-06-02T06:55:10Z</time>
      </trkpt>
      <trkpt lat="42.57305" lon="1.96891">
        <ele>2219.34</ele>
        <time>2013-06-02T06:55:15Z</time>
      </trkpt>
      <trkpt lat="42.57301" lon="1.9688">
        <ele>2220.3</ele>
        <time>2013-06-02T06:55:23Z</time>
      </trkpt>
      <trkpt lat="42.57305" lon="1.9687">
        <ele>2221.26</ele>
        <time>2013-06-02T06:55:36Z</time>
      </trkpt>
      <trkpt lat="42.57304" lon="1.96871">
        <ele>2222.71</ele>
        <time>2013-06-02T06:55:54Z</time>
      </trkpt>
      <trkpt lat="42.57304" lon="1.96871">
        <ele>2222.71</ele>
        <time>2013-06-02T06:56:04Z</time>
      </trkpt>
      <trkpt lat="42.57305" lon="1.96866">
        <ele>2221.74</ele>
        <time>2013-06-02T06:56:19Z</time>
      </trkpt>
      <trkpt lat="42.57309" lon="1.96858">
        <ele>2222.22</ele>
        <time>2013-06-02T06:56:34Z</time>
      </trkpt>
      <trkpt lat="42.57319" lon="1.96853">
        <ele>2223.67</ele>
        <time>2013-06-02T06:56:46Z</time>
      </trkpt>
      <trkpt lat="42.5732" lon="1.96848">
        <ele>2224.63</ele>
        <time>2013-06-02T06:56:51Z</time>
      </trkpt>
      <trkpt lat="42.5732" lon="1.96842">
        <ele>2226.55</ele>
        <time>2013-06-02T06:57:06Z</time>
      </trkpt>
      <trkpt lat="42.5732" lon="1.96842">
        <ele>2226.07</ele>
        <time>2013-06-02T06:57:10Z</time>
      </trkpt>
      <trkpt lat="42.57325" lon="1.96829">
        <ele>2225.59</ele>
        <time>2013-06-02T06:57:24Z</time>
      </trkpt>
      <trkpt lat="42.57327" lon="1.96823">
        <ele>2226.07</ele>
        <time>2013-06-02T06:57:36Z</time>
      </trkpt>
      <trkpt lat="42.57333" lon="1.9681">
        <ele>2226.07</ele>
        <time>2013-06-02T06:57:50Z</time>
      </trkpt>
      <trkpt lat="42.57336" lon="1.96803">
        <ele>2225.59</ele>
        <time>2013-06-02T06:57:56Z</time>
      </trkpt>
      <trkpt lat="42.57338" lon="1.96783">
        <ele>2227.51</ele>
        <time>2013-06-02T06:58:12Z</time>
      </trkpt>
      <trkpt lat="42.57341" lon="1.96769">
        <ele>2229.43</ele>
        <time>2013-06-02T06:58:26Z</time>
      </trkpt>
      <trkpt lat="42.57343" lon="1.96753">
        <ele>2230.4</ele>
        <time>2013-06-02T06:58:39Z</time>
      </trkpt>
      <trkpt lat="42.57342" lon="1.96735">
        <ele>2231.36</ele>
        <time>2013-06-02T06:58:53Z</time>
      </trkpt>
      <trkpt lat="42.5734" lon="1.96723">
        <ele>2230.88</ele>
        <time>2013-06-02T06:59:03Z</time>
      </trkpt>
      <trkpt lat="42.5734" lon="1.96716">
        <ele>2230.88</ele>
        <time>2013-06-02T06:59:08Z</time>
      </trkpt>
      <trkpt lat="42.57339" lon="1.9671">
        <ele>2230.88</ele>
        <time>2013-06-02T06:59:12Z</time>
      </trkpt>
      <trkpt lat="42.57336" lon="1.96694">
        <ele>2232.8</ele>
        <time>2013-06-02T06:59:26Z</time>
      </trkpt>
      <trkpt lat="42.57335" lon="1.96688">
        <ele>2233.76</ele>
        <time>2013-06-02T06:59:31Z</time>
      </trkpt>
      <trkpt lat="42.57334" lon="1.96685">
        <ele>2234.24</ele>
        <time>2013-06-02T06:59:33Z</time>
      </trkpt>
      <trkpt lat="42.57332" lon="1.96677">
        <ele>2234.72</ele>
        <time>2013-06-02T06:59:41Z</time>
      </trkpt>
      <trkpt lat="42.57327" lon="1.96664">
        <ele>2234.72</ele>
        <time>2013-06-02T06:59:54Z</time>
      </trkpt>
      <trkpt lat="42.57321" lon="1.96654">
        <ele>2236.64</ele>
        <time>2013-06-02T07:00:07Z</time>
      </trkpt>
      <trkpt lat="42.57314" lon="1.96647">
        <ele>2238.57</ele>
        <time>2013-06-02T07:00:19Z</time>
      </trkpt>
      <trkpt lat="42.57306" lon="1.96642">
        <ele>2240.01</ele>
        <time>2013-06-02T07:00:31Z</time>
      </trkpt>
      <trkpt lat="42.57296" lon="1.96634">
        <ele>2241.93</ele>
        <time>2013-06-02T07:00:46Z</time>
      </trkpt>
      <trkpt lat="42.57288" lon="1.96626">
        <ele>2242.89</ele>
        <time>2013-06-02T07:01:00Z</time>
      </trkpt>
      <trkpt lat="42.57281" lon="1.96619">
        <ele>2244.33</ele>
        <time>2013-06-02T07:01:12Z</time>
      </trkpt>
      <trkpt lat="42.57275" lon="1.96614">
        <ele>2245.3</ele>
        <time>2013-06-02T07:01:25Z</time>
      </trkpt>
      <trkpt lat="42.57268" lon="1.96606">
        <ele>2247.22</ele>
        <time>2013-06-02T07:01:40Z</time>
      </trkpt>
      <trkpt lat="42.5727" lon="1.96605">
        <ele>2248.18</ele>
        <time>2013-06-02T07:02:01Z</time>
      </trkpt>
      <trkpt lat="42.5727" lon="1.966">
        <ele>2249.62</ele>
        <time>2013-06-02T07:02:23Z</time>
      </trkpt>
      <trkpt lat="42.57271" lon="1.96598">
        <ele>2249.62</ele>
        <time>2013-06-02T07:02:52Z</time>
      </trkpt>
      <trkpt lat="42.5727" lon="1.96596">
        <ele>2248.18</ele>
        <time>2013-06-02T07:03:19Z</time>
      </trkpt>
      <trkpt lat="42.5727" lon="1.96591">
        <ele>2248.18</ele>
        <time>2013-06-02T07:03:45Z</time>
      </trkpt>
      <trkpt lat="42.57273" lon="1.96587">
        <ele>2250.1</ele>
        <time>2013-06-02T07:03:54Z</time>
      </trkpt>
      <trkpt lat="42.57275" lon="1.96578">
        <ele>2251.54</ele>
        <time>2013-06-02T07:04:08Z</time>
      </trkpt>
      <trkpt lat="42.57276" lon="1.96568">
        <ele>2251.54</ele>
        <time>2013-06-02T07:04:16Z</time>
      </trkpt>
      <trkpt lat="42.57273" lon="1.96553">
        <ele>2251.54</ele>
        <time>2013-06-02T07:04:29Z</time>
      </trkpt>
      <trkpt lat="42.57271" lon="1.96541">
        <ele>2252.51</ele>
        <time>2013-06-02T07:04:40Z</time>
      </trkpt>
      <trkpt lat="42.57271" lon="1.96538">
        <ele>2252.99</ele>
        <time>2013-06-02T07:04:43Z</time>
      </trkpt>
      <trkpt lat="42.57271" lon="1.96525">
        <ele>2256.35</ele>
        <time>2013-06-02T07:04:56Z</time>
      </trkpt>
      <trkpt lat="42.57273" lon="1.96513">
        <ele>2258.27</ele>
        <time>2013-06-02T07:05:09Z</time>
      </trkpt>
      <trkpt lat="42.57276" lon="1.96501">
        <ele>2258.75</ele>
        <time>2013-06-02T07:05:22Z</time>
      </trkpt>
      <trkpt lat="42.57279" lon="1.96488">
        <ele>2262.12</ele>
        <time>2013-06-02T07:05:36Z</time>
      </trkpt>
      <trkpt lat="42.57281" lon="1.96473">
        <ele>2264.04</ele>
        <time>2013-06-02T07:05:50Z</time>
      </trkpt>
      <trkpt lat="42.57282" lon="1.96463">
        <ele>2265.96</ele>
        <time>2013-06-02T07:06:00Z</time>
      </trkpt>
      <trkpt lat="42.57284" lon="1.96458">
        <ele>2267.89</ele>
        <time>2013-06-02T07:06:06Z</time>
      </trkpt>
      <trkpt lat="42.57288" lon="1.96446">
        <ele>2268.85</ele>
        <time>2013-06-02T07:06:20Z</time>
      </trkpt>
      <trkpt lat="42.57294" lon="1.96433">
        <ele>2270.77</ele>
        <time>2013-06-02T07:06:34Z</time>
      </trkpt>
      <trkpt lat="42.57298" lon="1.96427">
        <ele>2271.73</ele>
        <time>2013-06-02T07:06:42Z</time>
      </trkpt>
      <trkpt lat="42.57304" lon="1.9642">
        <ele>2273.66</ele>
        <time>2013-06-02T07:06:54Z</time>
      </trkpt>
      <trkpt lat="42.57309" lon="1.96412">
        <ele>2276.06</ele>
        <time>2013-06-02T07:07:08Z</time>
      </trkpt>
      <trkpt lat="42.57313" lon="1.96401">
        <ele>2277.98</ele>
        <time>2013-06-02T07:07:20Z</time>
      </trkpt>
      <trkpt lat="42.57315" lon="1.9639">
        <ele>2279.42</ele>
        <time>2013-06-02T07:07:33Z</time>
      </trkpt>
      <trkpt lat="42.5732" lon="1.96377">
        <ele>2282.31</ele>
        <time>2013-06-02T07:07:48Z</time>
      </trkpt>
      <trkpt lat="42.57326" lon="1.96369">
        <ele>2283.27</ele>
        <time>2013-06-02T07:08:01Z</time>
      </trkpt>
      <trkpt lat="42.57334" lon="1.96361">
        <ele>2286.63</ele>
        <time>2013-06-02T07:08:15Z</time>
      </trkpt>
      <trkpt lat="42.57341" lon="1.96353">
        <ele>2288.08</ele>
        <time>2013-06-02T07:08:27Z</time>
      </trkpt>
      <trkpt lat="42.57346" lon="1.96343">
        <ele>2290</ele>
        <time>2013-06-02T07:08:39Z</time>
      </trkpt>
      <trkpt lat="42.57349" lon="1.96328">
        <ele>2291.92</ele>
        <time>2013-06-02T07:08:54Z</time>
      </trkpt>
      <trkpt lat="42.57352" lon="1.96315">
        <ele>2293.84</ele>
        <time>2013-06-02T07:09:08Z</time>
      </trkpt>
      <trkpt lat="42.57354" lon="1.96302">
        <ele>2295.77</ele>
        <time>2013-06-02T07:09:23Z</time>
      </trkpt>
      <trkpt lat="42.57356" lon="1.96295">
        <ele>2298.17</ele>
        <time>2013-06-02T07:09:36Z</time>
      </trkpt>
      <trkpt lat="42.57356" lon="1.96295">
        <ele>2298.65</ele>
        <time>2013-06-02T07:09:51Z</time>
      </trkpt>
      <trkpt lat="42.57357" lon="1.96287">
        <ele>2297.21</ele>
        <time>2013-06-02T07:10:01Z</time>
      </trkpt>
      <trkpt lat="42.57356" lon="1.96272">
        <ele>2297.21</ele>
        <time>2013-06-02T07:10:14Z</time>
      </trkpt>
      <trkpt lat="42.57356" lon="1.9626">
        <ele>2299.13</ele>
        <time>2013-06-02T07:10:26Z</time>
      </trkpt>
      <trkpt lat="42.57356" lon="1.96259">
        <ele>2301.05</ele>
        <time>2013-06-02T07:10:41Z</time>
      </trkpt>
      <trkpt lat="42.57356" lon="1.96258">
        <ele>2301.53</ele>
        <time>2013-06-02T07:10:56Z</time>
      </trkpt>
      <trkpt lat="42.57356" lon="1.96258">
        <ele>2302.49</ele>
        <time>2013-06-02T07:11:22Z</time>
      </trkpt>
      <trkpt lat="42.57356" lon="1.96259">
        <ele>2303.94</ele>
        <time>2013-06-02T07:11:46Z</time>
      </trkpt>
      <trkpt lat="42.57356" lon="1.96257">
        <ele>2304.9</ele>
        <time>2013-06-02T07:12:11Z</time>
      </trkpt>
      <trkpt lat="42.57357" lon="1.96257">
        <ele>2303.94</ele>
        <time>2013-06-02T07:12:41Z</time>
      </trkpt>
      <trkpt lat="42.57357" lon="1.96257">
        <ele>2302.98</ele>
        <time>2013-06-02T07:13:12Z</time>
      </trkpt>
      <trkpt lat="42.57357" lon="1.96256">
        <ele>2300.09</ele>
        <time>2013-06-02T07:13:51Z</time>
      </trkpt>
      <trkpt lat="42.57357" lon="1.96258">
        <ele>2303.46</ele>
        <time>2013-06-02T07:14:10Z</time>
      </trkpt>
      <trkpt lat="42.57356" lon="1.96256">
        <ele>2302.98</ele>
        <time>2013-06-02T07:14:41Z</time>
      </trkpt>
      <trkpt lat="42.57354" lon="1.96256">
        <ele>2305.86</ele>
        <time>2013-06-02T07:15:07Z</time>
      </trkpt>
      <trkpt lat="42.57355" lon="1.96257">
        <ele>2308.26</ele>
        <time>2013-06-02T07:15:42Z</time>
      </trkpt>
      <trkpt lat="42.5735" lon="1.96248">
        <ele>2310.19</ele>
        <time>2013-06-02T07:15:58Z</time>
      </trkpt>
      <trkpt lat="42.57351" lon="1.96241">
        <ele>2310.67</ele>
        <time>2013-06-02T07:16:04Z</time>
      </trkpt>
      <trkpt lat="42.57355" lon="1.96225">
        <ele>2313.07</ele>
        <time>2013-06-02T07:16:19Z</time>
      </trkpt>
      <trkpt lat="42.57357" lon="1.96211">
        <ele>2314.51</ele>
        <time>2013-06-02T07:16:30Z</time>
      </trkpt>
      <trkpt lat="42.57358" lon="1.96197">
        <ele>2316.91</ele>
        <time>2013-06-02T07:16:42Z</time>
      </trkpt>
      <trkpt lat="42.57361" lon="1.96196">
        <ele>2316.43</ele>
        <time>2013-06-02T07:16:52Z</time>
      </trkpt>
      <trkpt lat="42.57362" lon="1.96192">
        <ele>2316.43</ele>
        <time>2013-06-02T07:17:01Z</time>
      </trkpt>
      <trkpt lat="42.57363" lon="1.96184">
        <ele>2315.47</ele>
        <time>2013-06-02T07:17:13Z</time>
      </trkpt>
      <trkpt lat="42.57363" lon="1.96178">
        <ele>2314.99</ele>
        <time>2013-06-02T07:17:20Z</time>
      </trkpt>
      <trkpt lat="42.57359" lon="1.96162">
        <ele>2311.63</ele>
        <time>2013-06-02T07:17:30Z</time>
      </trkpt>
      <trkpt lat="42.57353" lon="1.96147">
        <ele>2314.51</ele>
        <time>2013-06-02T07:17:39Z</time>
      </trkpt>
      <trkpt lat="42.57348" lon="1.96137">
        <ele>2316.43</ele>
        <time>2013-06-02T07:17:46Z</time>
      </trkpt>
      <trkpt lat="42.57345" lon="1.96135">
        <ele>2315.47</ele>
        <time>2013-06-02T07:17:57Z</time>
      </trkpt>
      <trkpt lat="42.57346" lon="1.96134">
        <ele>2312.59</ele>
        <time>2013-06-02T07:18:16Z</time>
      </trkpt>
      <trkpt lat="42.57346" lon="1.96133">
        <ele>2312.11</ele>
        <time>2013-06-02T07:18:18Z</time>
      </trkpt>
      <trkpt lat="42.57352" lon="1.96114">
        <ele>2311.15</ele>
        <time>2013-06-02T07:18:30Z</time>
      </trkpt>
      <trkpt lat="42.57352" lon="1.96103">
        <ele>2311.63</ele>
        <time>2013-06-02T07:18:37Z</time>
      </trkpt>
      <trkpt lat="42.5735" lon="1.96086">
        <ele>2311.15</ele>
        <time>2013-06-02T07:18:47Z</time>
      </trkpt>
      <trkpt lat="42.57346" lon="1.96076">
        <ele>2311.63</ele>
        <time>2013-06-02T07:18:54Z</time>
      </trkpt>
      <trkpt lat="42.57334" lon="1.96063">
        <ele>2311.63</ele>
        <time>2013-06-02T07:19:07Z</time>
      </trkpt>
      <trkpt lat="42.57323" lon="1.96059">
        <ele>2312.11</ele>
        <time>2013-06-02T07:19:18Z</time>
      </trkpt>
      <trkpt lat="42.57321" lon="1.96059">
        <ele>2312.11</ele>
        <time>2013-06-02T07:19:20Z</time>
      </trkpt>
      <trkpt lat="42.57307" lon="1.96053">
        <ele>2313.55</ele>
        <time>2013-06-02T07:19:35Z</time>
      </trkpt>
      <trkpt lat="42.57295" lon="1.96045">
        <ele>2315.95</ele>
        <time>2013-06-02T07:19:48Z</time>
      </trkpt>
      <trkpt lat="42.57284" lon="1.96038">
        <ele>2319.32</ele>
        <time>2013-06-02T07:20:01Z</time>
      </trkpt>
      <trkpt lat="42.57275" lon="1.96027">
        <ele>2322.68</ele>
        <time>2013-06-02T07:20:15Z</time>
      </trkpt>
      <trkpt lat="42.57268" lon="1.96016">
        <ele>2324.12</ele>
        <time>2013-06-02T07:20:27Z</time>
      </trkpt>
      <trkpt lat="42.57259" lon="1.95997">
        <ele>2326.53</ele>
        <time>2013-06-02T07:20:44Z</time>
      </trkpt>
      <trkpt lat="42.57258" lon="1.95994">
        <ele>2326.53</ele>
        <time>2013-06-02T07:20:47Z</time>
      </trkpt>
      <trkpt lat="42.57253" lon="1.95986">
        <ele>2327.49</ele>
        <time>2013-06-02T07:21:00Z</time>
      </trkpt>
      <trkpt lat="42.57254" lon="1.95986">
        <ele>2328.45</ele>
        <time>2013-06-02T07:21:23Z</time>
      </trkpt>
      <trkpt lat="42.57254" lon="1.95972">
        <ele>2328.93</ele>
        <time>2013-06-02T07:21:39Z</time>
      </trkpt>
      <trkpt lat="42.57253" lon="1.95952">
        <ele>2332.3</ele>
        <time>2013-06-02T07:21:53Z</time>
      </trkpt>
      <trkpt lat="42.57255" lon="1.95934">
        <ele>2333.74</ele>
        <time>2013-06-02T07:22:08Z</time>
      </trkpt>
      <trkpt lat="42.57256" lon="1.95925">
        <ele>2333.74</ele>
        <time>2013-06-02T07:22:15Z</time>
      </trkpt>
      <trkpt lat="42.57256" lon="1.95917">
        <ele>2333.26</ele>
        <time>2013-06-02T07:22:22Z</time>
      </trkpt>
      <trkpt lat="42.57255" lon="1.95908">
        <ele>2332.78</ele>
        <time>2013-06-02T07:22:31Z</time>
      </trkpt>
      <trkpt lat="42.57251" lon="1.95899">
        <ele>2331.33</ele>
        <time>2013-06-02T07:22:37Z</time>
      </trkpt>
      <trkpt lat="42.57248" lon="1.95882">
        <ele>2328.45</ele>
        <time>2013-06-02T07:22:54Z</time>
      </trkpt>
      <trkpt lat="42.57248" lon="1.95875">
        <ele>2327.49</ele>
        <time>2013-06-02T07:23:02Z</time>
      </trkpt>
      <trkpt lat="42.57249" lon="1.95861">
        <ele>2329.41</ele>
        <time>2013-06-02T07:23:15Z</time>
      </trkpt>
      <trkpt lat="42.57248" lon="1.95849">
        <ele>2331.81</ele>
        <time>2013-06-02T07:23:28Z</time>
      </trkpt>
      <trkpt lat="42.57247" lon="1.9584">
        <ele>2334.22</ele>
        <time>2013-06-02T07:23:37Z</time>
      </trkpt>
      <trkpt lat="42.57245" lon="1.95829">
        <ele>2337.1</ele>
        <time>2013-06-02T07:23:49Z</time>
      </trkpt>
      <trkpt lat="42.57243" lon="1.95822">
        <ele>2338.54</ele>
        <time>2013-06-02T07:23:56Z</time>
      </trkpt>
      <trkpt lat="42.57241" lon="1.95812">
        <ele>2340.47</ele>
        <time>2013-06-02T07:24:07Z</time>
      </trkpt>
      <trkpt lat="42.57241" lon="1.95805">
        <ele>2343.35</ele>
        <time>2013-06-02T07:24:13Z</time>
      </trkpt>
      <trkpt lat="42.57241" lon="1.95796">
        <ele>2346.23</ele>
        <time>2013-06-02T07:24:18Z</time>
      </trkpt>
      <trkpt lat="42.57236" lon="1.95787">
        <ele>2347.2</ele>
        <time>2013-06-02T07:24:28Z</time>
      </trkpt>
      <trkpt lat="42.57234" lon="1.95782">
        <ele>2348.16</ele>
        <time>2013-06-02T07:24:43Z</time>
      </trkpt>
      <trkpt lat="42.57235" lon="1.95781">
        <ele>2349.12</ele>
        <time>2013-06-02T07:25:03Z</time>
      </trkpt>
      <trkpt lat="42.57234" lon="1.9578">
        <ele>2348.16</ele>
        <time>2013-06-02T07:25:24Z</time>
      </trkpt>
      <trkpt lat="42.57233" lon="1.95777">
        <ele>2347.2</ele>
        <time>2013-06-02T07:25:36Z</time>
      </trkpt>
      <trkpt lat="42.57231" lon="1.9577">
        <ele>2347.2</ele>
        <time>2013-06-02T07:25:41Z</time>
      </trkpt>
      <trkpt lat="42.57228" lon="1.95766">
        <ele>2346.23</ele>
        <time>2013-06-02T07:25:45Z</time>
      </trkpt>
      <trkpt lat="42.57218" lon="1.95757">
        <ele>2347.2</ele>
        <time>2013-06-02T07:25:59Z</time>
      </trkpt>
      <trkpt lat="42.57212" lon="1.9575">
        <ele>2348.16</ele>
        <time>2013-06-02T07:26:09Z</time>
      </trkpt>
      <trkpt lat="42.57209" lon="1.95748">
        <ele>2348.64</ele>
        <time>2013-06-02T07:26:12Z</time>
      </trkpt>
      <trkpt lat="42.57197" lon="1.95738">
        <ele>2352.96</ele>
        <time>2013-06-02T07:26:24Z</time>
      </trkpt>
      <trkpt lat="42.57196" lon="1.95737">
        <ele>2353.44</ele>
        <time>2013-06-02T07:26:26Z</time>
      </trkpt>
      <trkpt lat="42.57184" lon="1.95727">
        <ele>2358.73</ele>
        <time>2013-06-02T07:26:41Z</time>
      </trkpt>
      <trkpt lat="42.57175" lon="1.95705">
        <ele>2357.77</ele>
        <time>2013-06-02T07:26:54Z</time>
      </trkpt>
      <trkpt lat="42.57169" lon="1.95693">
        <ele>2359.21</ele>
        <time>2013-06-02T07:27:07Z</time>
      </trkpt>
      <trkpt lat="42.57165" lon="1.95692">
        <ele>2359.21</ele>
        <time>2013-06-02T07:27:16Z</time>
      </trkpt>
      <trkpt lat="42.57164" lon="1.95694">
        <ele>2359.21</ele>
        <time>2013-06-02T07:27:18Z</time>
      </trkpt>
      <trkpt lat="42.57163" lon="1.95695">
        <ele>2359.21</ele>
        <time>2013-06-02T07:27:19Z</time>
      </trkpt>
      <trkpt lat="42.57161" lon="1.95698">
        <ele>2358.25</ele>
        <time>2013-06-02T07:27:21Z</time>
      </trkpt>
      <trkpt lat="42.57155" lon="1.95703">
        <ele>2355.85</ele>
        <time>2013-06-02T07:27:26Z</time>
      </trkpt>
      <trkpt lat="42.5715" lon="1.95699">
        <ele>2354.89</ele>
        <time>2013-06-02T07:27:37Z</time>
      </trkpt>
      <trkpt lat="42.57149" lon="1.95695">
        <ele>2354.41</ele>
        <time>2013-06-02T07:27:40Z</time>
      </trkpt>
      <trkpt lat="42.57148" lon="1.95691">
        <ele>2353.93</ele>
        <time>2013-06-02T07:27:43Z</time>
      </trkpt>
      <trkpt lat="42.5715" lon="1.95674">
        <ele>2353.44</ele>
        <time>2013-06-02T07:27:59Z</time>
      </trkpt>
      <trkpt lat="42.57154" lon="1.95665">
        <ele>2352.96</ele>
        <time>2013-06-02T07:28:11Z</time>
      </trkpt>
      <trkpt lat="42.57155" lon="1.95661">
        <ele>2352.96</ele>
        <time>2013-06-02T07:28:13Z</time>
      </trkpt>
      <trkpt lat="42.57156" lon="1.95654">
        <ele>2353.44</ele>
        <time>2013-06-02T07:28:18Z</time>
      </trkpt>
      <trkpt lat="42.57158" lon="1.95649">
        <ele>2352.96</ele>
        <time>2013-06-02T07:28:21Z</time>
      </trkpt>
      <trkpt lat="42.57158" lon="1.95632">
        <ele>2353.93</ele>
        <time>2013-06-02T07:28:32Z</time>
      </trkpt>
      <trkpt lat="42.57157" lon="1.95622">
        <ele>2354.41</ele>
        <time>2013-06-02T07:28:38Z</time>
      </trkpt>
      <trkpt lat="42.57156" lon="1.95612">
        <ele>2353.93</ele>
        <time>2013-06-02T07:28:45Z</time>
      </trkpt>
      <trkpt lat="42.57156" lon="1.95609">
        <ele>2354.89</ele>
        <time>2013-06-02T07:28:47Z</time>
      </trkpt>
      <trkpt lat="42.57155" lon="1.95605">
        <ele>2355.85</ele>
        <time>2013-06-02T07:28:50Z</time>
      </trkpt>
      <trkpt lat="42.57154" lon="1.95593">
        <ele>2359.69</ele>
        <time>2013-06-02T07:29:02Z</time>
      </trkpt>
      <trkpt lat="42.57154" lon="1.9559">
        <ele>2360.65</ele>
        <time>2013-06-02T07:29:04Z</time>
      </trkpt>
      <trkpt lat="42.57154" lon="1.95575">
        <ele>2364.02</ele>
        <time>2013-06-02T07:29:15Z</time>
      </trkpt>
      <trkpt lat="42.57152" lon="1.9557">
        <ele>2364.98</ele>
        <time>2013-06-02T07:29:21Z</time>
      </trkpt>
      <trkpt lat="42.57153" lon="1.95553">
        <ele>2367.38</ele>
        <time>2013-06-02T07:29:32Z</time>
      </trkpt>
      <trkpt lat="42.57153" lon="1.95552">
        <ele>2367.38</ele>
        <time>2013-06-02T07:29:33Z</time>
      </trkpt>
      <trkpt lat="42.57154" lon="1.95546">
        <ele>2367.38</ele>
        <time>2013-06-02T07:29:37Z</time>
      </trkpt>
      <trkpt lat="42.57156" lon="1.95533">
        <ele>2366.42</ele>
        <time>2013-06-02T07:29:47Z</time>
      </trkpt>
      <trkpt lat="42.57154" lon="1.95523">
        <ele>2367.86</ele>
        <time>2013-06-02T07:29:57Z</time>
      </trkpt>
      <trkpt lat="42.57152" lon="1.9552">
        <ele>2368.83</ele>
        <time>2013-06-02T07:30:00Z</time>
      </trkpt>
      <trkpt lat="42.57152" lon="1.95514">
        <ele>2370.27</ele>
        <time>2013-06-02T07:30:04Z</time>
      </trkpt>
      <trkpt lat="42.57151" lon="1.95506">
        <ele>2372.19</ele>
        <time>2013-06-02T07:30:10Z</time>
      </trkpt>
      <trkpt lat="42.57151" lon="1.95499">
        <ele>2373.15</ele>
        <time>2013-06-02T07:30:16Z</time>
      </trkpt>
      <trkpt lat="42.57152" lon="1.95486">
        <ele>2374.11</ele>
        <time>2013-06-02T07:30:25Z</time>
      </trkpt>
      <trkpt lat="42.5715" lon="1.95485">
        <ele>2374.11</ele>
        <time>2013-06-02T07:30:27Z</time>
      </trkpt>
      <trkpt lat="42.57149" lon="1.95472">
        <ele>2374.11</ele>
        <time>2013-06-02T07:30:37Z</time>
      </trkpt>
      <trkpt lat="42.57148" lon="1.95455">
        <ele>2375.07</ele>
        <time>2013-06-02T07:30:50Z</time>
      </trkpt>
      <trkpt lat="42.57147" lon="1.95454">
        <ele>2375.07</ele>
        <time>2013-06-02T07:30:51Z</time>
      </trkpt>
      <trkpt lat="42.57144" lon="1.95439">
        <ele>2376.52</ele>
        <time>2013-06-02T07:31:04Z</time>
      </trkpt>
      <trkpt lat="42.5714" lon="1.95428">
        <ele>2377.96</ele>
        <time>2013-06-02T07:31:17Z</time>
      </trkpt>
      <trkpt lat="42.57136" lon="1.95425">
        <ele>2380.84</ele>
        <time>2013-06-02T07:31:23Z</time>
      </trkpt>
      <trkpt lat="42.57135" lon="1.95425">
        <ele>2381.8</ele>
        <time>2013-06-02T07:31:25Z</time>
      </trkpt>
      <trkpt lat="42.57133" lon="1.95415">
        <ele>2383.25</ele>
        <time>2013-06-02T07:31:31Z</time>
      </trkpt>
      <trkpt lat="42.57132" lon="1.95414">
        <ele>2383.25</ele>
        <time>2013-06-02T07:31:33Z</time>
      </trkpt>
      <trkpt lat="42.57131" lon="1.95409">
        <ele>2383.73</ele>
        <time>2013-06-02T07:31:36Z</time>
      </trkpt>
      <trkpt lat="42.5713" lon="1.95401">
        <ele>2383.73</ele>
        <time>2013-06-02T07:31:42Z</time>
      </trkpt>
      <trkpt lat="42.57126" lon="1.95383">
        <ele>2382.76</ele>
        <time>2013-06-02T07:31:55Z</time>
      </trkpt>
      <trkpt lat="42.57126" lon="1.95381">
        <ele>2379.88</ele>
        <time>2013-06-02T07:32:07Z</time>
      </trkpt>
      <trkpt lat="42.57125" lon="1.9538">
        <ele>2377.48</ele>
        <time>2013-06-02T07:32:14Z</time>
      </trkpt>
      <trkpt lat="42.57121" lon="1.95368">
        <ele>2377</ele>
        <time>2013-06-02T07:32:21Z</time>
      </trkpt>
      <trkpt lat="42.57121" lon="1.95355">
        <ele>2377</ele>
        <time>2013-06-02T07:32:29Z</time>
      </trkpt>
      <trkpt lat="42.57121" lon="1.95347">
        <ele>2376.52</ele>
        <time>2013-06-02T07:32:43Z</time>
      </trkpt>
      <trkpt lat="42.57119" lon="1.95339">
        <ele>2377</ele>
        <time>2013-06-02T07:32:50Z</time>
      </trkpt>
      <trkpt lat="42.57116" lon="1.95324">
        <ele>2377.48</ele>
        <time>2013-06-02T07:33:00Z</time>
      </trkpt>
      <trkpt lat="42.57114" lon="1.95319">
        <ele>2378.44</ele>
        <time>2013-06-02T07:33:03Z</time>
      </trkpt>
      <trkpt lat="42.57113" lon="1.95313">
        <ele>2379.4</ele>
        <time>2013-06-02T07:33:07Z</time>
      </trkpt>
      <trkpt lat="42.57109" lon="1.953">
        <ele>2380.36</ele>
        <time>2013-06-02T07:33:15Z</time>
      </trkpt>
      <trkpt lat="42.57106" lon="1.95288">
        <ele>2380.36</ele>
        <time>2013-06-02T07:33:21Z</time>
      </trkpt>
      <trkpt lat="42.57102" lon="1.95267">
        <ele>2380.84</ele>
        <time>2013-06-02T07:33:34Z</time>
      </trkpt>
      <trkpt lat="42.57097" lon="1.95256">
        <ele>2381.32</ele>
        <time>2013-06-02T07:33:41Z</time>
      </trkpt>
      <trkpt lat="42.57096" lon="1.95246">
        <ele>2382.28</ele>
        <time>2013-06-02T07:33:47Z</time>
      </trkpt>
      <trkpt lat="42.57093" lon="1.95224">
        <ele>2382.76</ele>
        <time>2013-06-02T07:34:00Z</time>
      </trkpt>
      <trkpt lat="42.57091" lon="1.9521">
        <ele>2382.28</ele>
        <time>2013-06-02T07:34:09Z</time>
      </trkpt>
      <trkpt lat="42.5709" lon="1.952">
        <ele>2380.36</ele>
        <time>2013-06-02T07:34:16Z</time>
      </trkpt>
      <trkpt lat="42.5709" lon="1.95194">
        <ele>2380.36</ele>
        <time>2013-06-02T07:34:21Z</time>
      </trkpt>
      <trkpt lat="42.57089" lon="1.9518">
        <ele>2380.84</ele>
        <time>2013-06-02T07:34:33Z</time>
      </trkpt>
      <trkpt lat="42.57089" lon="1.9517">
        <ele>2382.76</ele>
        <time>2013-06-02T07:34:44Z</time>
      </trkpt>
      <trkpt lat="42.57087" lon="1.95162">
        <ele>2389.49</ele>
        <time>2013-06-02T07:34:56Z</time>
      </trkpt>
      <trkpt lat="42.57088" lon="1.95145">
        <ele>2391.9</ele>
        <time>2013-06-02T07:35:09Z</time>
      </trkpt>
      <trkpt lat="42.57088" lon="1.95139">
        <ele>2388.05</ele>
        <time>2013-06-02T07:35:16Z</time>
      </trkpt>
      <trkpt lat="42.57084" lon="1.95129">
        <ele>2389.49</ele>
        <time>2013-06-02T07:35:27Z</time>
      </trkpt>
      <trkpt lat="42.5708" lon="1.95123">
        <ele>2392.86</ele>
        <time>2013-06-02T07:35:38Z</time>
      </trkpt>
      <trkpt lat="42.57075" lon="1.95113">
        <ele>2396.7</ele>
        <time>2013-06-02T07:35:49Z</time>
      </trkpt>
      <trkpt lat="42.57071" lon="1.95104">
        <ele>2396.7</ele>
        <time>2013-06-02T07:36:02Z</time>
      </trkpt>
      <trkpt lat="42.57068" lon="1.951">
        <ele>2396.7</ele>
        <time>2013-06-02T07:36:10Z</time>
      </trkpt>
      <trkpt lat="42.57064" lon="1.95094">
        <ele>2397.18</ele>
        <time>2013-06-02T07:36:19Z</time>
      </trkpt>
      <trkpt lat="42.57061" lon="1.95084">
        <ele>2400.07</ele>
        <time>2013-06-02T07:36:31Z</time>
      </trkpt>
      <trkpt lat="42.57065" lon="1.95072">
        <ele>2400.55</ele>
        <time>2013-06-02T07:36:43Z</time>
      </trkpt>
      <trkpt lat="42.57067" lon="1.95062">
        <ele>2401.99</ele>
        <time>2013-06-02T07:36:51Z</time>
      </trkpt>
      <trkpt lat="42.57067" lon="1.95055">
        <ele>2401.99</ele>
        <time>2013-06-02T07:36:55Z</time>
      </trkpt>
      <trkpt lat="42.57069" lon="1.95052">
        <ele>2401.03</ele>
        <time>2013-06-02T07:36:58Z</time>
      </trkpt>
      <trkpt lat="42.57074" lon="1.95035">
        <ele>2396.22</ele>
        <time>2013-06-02T07:37:10Z</time>
      </trkpt>
      <trkpt lat="42.5708" lon="1.95019">
        <ele>2395.26</ele>
        <time>2013-06-02T07:37:22Z</time>
      </trkpt>
      <trkpt lat="42.57084" lon="1.95006">
        <ele>2396.22</ele>
        <time>2013-06-02T07:37:32Z</time>
      </trkpt>
      <trkpt lat="42.57086" lon="1.95004">
        <ele>2396.22</ele>
        <time>2013-06-02T07:37:35Z</time>
      </trkpt>
      <trkpt lat="42.57086" lon="1.94999">
        <ele>2396.22</ele>
        <time>2013-06-02T07:37:39Z</time>
      </trkpt>
      <trkpt lat="42.57091" lon="1.94986">
        <ele>2397.67</ele>
        <time>2013-06-02T07:37:51Z</time>
      </trkpt>
      <trkpt lat="42.57092" lon="1.94978">
        <ele>2401.03</ele>
        <time>2013-06-02T07:38:01Z</time>
      </trkpt>
      <trkpt lat="42.57093" lon="1.94974">
        <ele>2403.91</ele>
        <time>2013-06-02T07:38:13Z</time>
      </trkpt>
      <trkpt lat="42.57094" lon="1.94972">
        <ele>2403.91</ele>
        <time>2013-06-02T07:38:15Z</time>
      </trkpt>
      <trkpt lat="42.57096" lon="1.94967">
        <ele>2404.39</ele>
        <time>2013-06-02T07:38:19Z</time>
      </trkpt>
      <trkpt lat="42.57099" lon="1.94955">
        <ele>2404.88</ele>
        <time>2013-06-02T07:38:28Z</time>
      </trkpt>
      <trkpt lat="42.57101" lon="1.94944">
        <ele>2406.8</ele>
        <time>2013-06-02T07:38:38Z</time>
      </trkpt>
      <trkpt lat="42.57105" lon="1.9493">
        <ele>2407.28</ele>
        <time>2013-06-02T07:38:50Z</time>
      </trkpt>
      <trkpt lat="42.57109" lon="1.94917">
        <ele>2408.24</ele>
        <time>2013-06-02T07:39:01Z</time>
      </trkpt>
      <trkpt lat="42.57115" lon="1.94904">
        <ele>2407.76</ele>
        <time>2013-06-02T07:39:10Z</time>
      </trkpt>
      <trkpt lat="42.57118" lon="1.9489">
        <ele>2404.39</ele>
        <time>2013-06-02T07:39:21Z</time>
      </trkpt>
      <trkpt lat="42.57119" lon="1.94887">
        <ele>2401.99</ele>
        <time>2013-06-02T07:39:23Z</time>
      </trkpt>
      <trkpt lat="42.5712" lon="1.94868">
        <ele>2403.43</ele>
        <time>2013-06-02T07:39:36Z</time>
      </trkpt>
      <trkpt lat="42.5712" lon="1.94866">
        <ele>2403.91</ele>
        <time>2013-06-02T07:39:37Z</time>
      </trkpt>
      <trkpt lat="42.57119" lon="1.94858">
        <ele>2407.28</ele>
        <time>2013-06-02T07:39:42Z</time>
      </trkpt>
      <trkpt lat="42.5712" lon="1.9485">
        <ele>2408.72</ele>
        <time>2013-06-02T07:39:47Z</time>
      </trkpt>
      <trkpt lat="42.57118" lon="1.94841">
        <ele>2413.05</ele>
        <time>2013-06-02T07:39:52Z</time>
      </trkpt>
      <trkpt lat="42.57118" lon="1.94831">
        <ele>2414.97</ele>
        <time>2013-06-02T07:39:59Z</time>
      </trkpt>
      <trkpt lat="42.57118" lon="1.94815">
        <ele>2416.41</ele>
        <time>2013-06-02T07:40:10Z</time>
      </trkpt>
      <trkpt lat="42.57121" lon="1.94803">
        <ele>2414.97</ele>
        <time>2013-06-02T07:40:20Z</time>
      </trkpt>
      <trkpt lat="42.57124" lon="1.9479">
        <ele>2416.89</ele>
        <time>2013-06-02T07:40:30Z</time>
      </trkpt>
      <trkpt lat="42.57124" lon="1.94782">
        <ele>2414.97</ele>
        <time>2013-06-02T07:40:36Z</time>
      </trkpt>
      <trkpt lat="42.57124" lon="1.9478">
        <ele>2414.49</ele>
        <time>2013-06-02T07:40:38Z</time>
      </trkpt>
      <trkpt lat="42.57125" lon="1.94769">
        <ele>2414.49</ele>
        <time>2013-06-02T07:40:46Z</time>
      </trkpt>
      <trkpt lat="42.57123" lon="1.94751">
        <ele>2418.33</ele>
        <time>2013-06-02T07:40:57Z</time>
      </trkpt>
      <trkpt lat="42.57123" lon="1.94749">
        <ele>2418.81</ele>
        <time>2013-06-02T07:40:58Z</time>
      </trkpt>
      <trkpt lat="42.57123" lon="1.94732">
        <ele>2420.26</ele>
        <time>2013-06-02T07:41:09Z</time>
      </trkpt>
      <trkpt lat="42.57122" lon="1.94721">
        <ele>2420.74</ele>
        <time>2013-06-02T07:41:16Z</time>
      </trkpt>
      <trkpt lat="42.57122" lon="1.947">
        <ele>2422.66</ele>
        <time>2013-06-02T07:41:28Z</time>
      </trkpt>
      <trkpt lat="42.57121" lon="1.94692">
        <ele>2421.7</ele>
        <time>2013-06-02T07:41:33Z</time>
      </trkpt>
      <trkpt lat="42.57121" lon="1.94689">
        <ele>2420.26</ele>
        <time>2013-06-02T07:41:35Z</time>
      </trkpt>
      <trkpt lat="42.5712" lon="1.9468">
        <ele>2420.26</ele>
        <time>2013-06-02T07:41:42Z</time>
      </trkpt>
      <trkpt lat="42.57121" lon="1.94664">
        <ele>2421.7</ele>
        <time>2013-06-02T07:41:53Z</time>
      </trkpt>
      <trkpt lat="42.57123" lon="1.9465">
        <ele>2422.66</ele>
        <time>2013-06-02T07:42:02Z</time>
      </trkpt>
      <trkpt lat="42.57123" lon="1.94637">
        <ele>2423.62</ele>
        <time>2013-06-02T07:42:14Z</time>
      </trkpt>
      <trkpt lat="42.57124" lon="1.9462">
        <ele>2426.02</ele>
        <time>2013-06-02T07:42:25Z</time>
      </trkpt>
      <trkpt lat="42.57124" lon="1.94615">
        <ele>2426.02</ele>
        <time>2013-06-02T07:42:28Z</time>
      </trkpt>
      <trkpt lat="42.57126" lon="1.94602">
        <ele>2424.58</ele>
        <time>2013-06-02T07:42:39Z</time>
      </trkpt>
      <trkpt lat="42.57126" lon="1.946">
        <ele>2424.58</ele>
        <time>2013-06-02T07:42:40Z</time>
      </trkpt>
      <trkpt lat="42.57125" lon="1.94597">
        <ele>2426.02</ele>
        <time>2013-06-02T07:42:42Z</time>
      </trkpt>
      <trkpt lat="42.57123" lon="1.9458">
        <ele>2429.87</ele>
        <time>2013-06-02T07:42:55Z</time>
      </trkpt>
      <trkpt lat="42.57122" lon="1.94568">
        <ele>2427.95</ele>
        <time>2013-06-02T07:43:06Z</time>
      </trkpt>
      <trkpt lat="42.57119" lon="1.9456">
        <ele>2430.35</ele>
        <time>2013-06-02T07:43:14Z</time>
      </trkpt>
      <trkpt lat="42.57116" lon="1.94554">
        <ele>2432.27</ele>
        <time>2013-06-02T07:43:26Z</time>
      </trkpt>
      <trkpt lat="42.57112" lon="1.94541">
        <ele>2431.79</ele>
        <time>2013-06-02T07:43:39Z</time>
      </trkpt>
      <trkpt lat="42.5711" lon="1.94532">
        <ele>2434.68</ele>
        <time>2013-06-02T07:43:51Z</time>
      </trkpt>
      <trkpt lat="42.57109" lon="1.94528">
        <ele>2434.2</ele>
        <time>2013-06-02T07:44:02Z</time>
      </trkpt>
      <trkpt lat="42.57107" lon="1.94512">
        <ele>2439.48</ele>
        <time>2013-06-02T07:44:14Z</time>
      </trkpt>
      <trkpt lat="42.57104" lon="1.94509">
        <ele>2439</ele>
        <time>2013-06-02T07:44:16Z</time>
      </trkpt>
      <trkpt lat="42.57101" lon="1.94501">
        <ele>2439.96</ele>
        <time>2013-06-02T07:44:25Z</time>
      </trkpt>
      <trkpt lat="42.571" lon="1.94498">
        <ele>2440.44</ele>
        <time>2013-06-02T07:44:27Z</time>
      </trkpt>
      <trkpt lat="42.57098" lon="1.94489">
        <ele>2441.89</ele>
        <time>2013-06-02T07:44:36Z</time>
      </trkpt>
      <trkpt lat="42.57096" lon="1.9448">
        <ele>2443.81</ele>
        <time>2013-06-02T07:44:46Z</time>
      </trkpt>
      <trkpt lat="42.57095" lon="1.94476">
        <ele>2444.77</ele>
        <time>2013-06-02T07:44:49Z</time>
      </trkpt>
      <trkpt lat="42.57093" lon="1.94471">
        <ele>2445.25</ele>
        <time>2013-06-02T07:44:53Z</time>
      </trkpt>
      <trkpt lat="42.5709" lon="1.9446">
        <ele>2446.21</ele>
        <time>2013-06-02T07:45:02Z</time>
      </trkpt>
      <trkpt lat="42.57087" lon="1.94453">
        <ele>2446.21</ele>
        <time>2013-06-02T07:45:07Z</time>
      </trkpt>
      <trkpt lat="42.57086" lon="1.94451">
        <ele>2446.69</ele>
        <time>2013-06-02T07:45:09Z</time>
      </trkpt>
      <trkpt lat="42.57084" lon="1.94438">
        <ele>2450.06</ele>
        <time>2013-06-02T07:45:20Z</time>
      </trkpt>
      <trkpt lat="42.57081" lon="1.94432">
        <ele>2451.98</ele>
        <time>2013-06-02T07:45:31Z</time>
      </trkpt>
      <trkpt lat="42.57077" lon="1.9442">
        <ele>2451.02</ele>
        <time>2013-06-02T07:45:44Z</time>
      </trkpt>
      <trkpt lat="42.57078" lon="1.94421">
        <ele>2448.62</ele>
        <time>2013-06-02T07:45:58Z</time>
      </trkpt>
      <trkpt lat="42.57077" lon="1.94415">
        <ele>2448.62</ele>
        <time>2013-06-02T07:46:03Z</time>
      </trkpt>
      <trkpt lat="42.57076" lon="1.94411">
        <ele>2448.13</ele>
        <time>2013-06-02T07:46:06Z</time>
      </trkpt>
      <trkpt lat="42.57075" lon="1.94399">
        <ele>2451.02</ele>
        <time>2013-06-02T07:46:18Z</time>
      </trkpt>
      <trkpt lat="42.57073" lon="1.94386">
        <ele>2455.82</ele>
        <time>2013-06-02T07:46:29Z</time>
      </trkpt>
      <trkpt lat="42.57072" lon="1.94385">
        <ele>2457.75</ele>
        <time>2013-06-02T07:46:44Z</time>
      </trkpt>
      <trkpt lat="42.5707" lon="1.94382">
        <ele>2456.79</ele>
        <time>2013-06-02T07:47:00Z</time>
      </trkpt>
      <trkpt lat="42.57072" lon="1.94365">
        <ele>2458.71</ele>
        <time>2013-06-02T07:47:13Z</time>
      </trkpt>
      <trkpt lat="42.57075" lon="1.94352">
        <ele>2461.11</ele>
        <time>2013-06-02T07:47:24Z</time>
      </trkpt>
      <trkpt lat="42.57077" lon="1.94348">
        <ele>2462.55</ele>
        <time>2013-06-02T07:47:28Z</time>
      </trkpt>
      <trkpt lat="42.57078" lon="1.94345">
        <ele>2463.52</ele>
        <time>2013-06-02T07:47:30Z</time>
      </trkpt>
      <trkpt lat="42.57083" lon="1.9434">
        <ele>2469.76</ele>
        <time>2013-06-02T07:47:43Z</time>
      </trkpt>
      <trkpt lat="42.57083" lon="1.94339">
        <ele>2466.4</ele>
        <time>2013-06-02T07:48:07Z</time>
      </trkpt>
      <trkpt lat="42.57093" lon="1.9433">
        <ele>2465.92</ele>
        <time>2013-06-02T07:48:19Z</time>
      </trkpt>
      <trkpt lat="42.57091" lon="1.94328">
        <ele>2464.48</ele>
        <time>2013-06-02T07:48:31Z</time>
      </trkpt>
      <trkpt lat="42.57089" lon="1.94325">
        <ele>2466.4</ele>
        <time>2013-06-02T07:48:52Z</time>
      </trkpt>
      <trkpt lat="42.57093" lon="1.94322">
        <ele>2464.96</ele>
        <time>2013-06-02T07:49:06Z</time>
      </trkpt>
      <trkpt lat="42.57103" lon="1.94312">
        <ele>2464.96</ele>
        <time>2013-06-02T07:49:16Z</time>
      </trkpt>
      <trkpt lat="42.57116" lon="1.94297">
        <ele>2467.36</ele>
        <time>2013-06-02T07:49:31Z</time>
      </trkpt>
      <trkpt lat="42.57117" lon="1.94296">
        <ele>2467.36</ele>
        <time>2013-06-02T07:49:32Z</time>
      </trkpt>
      <trkpt lat="42.57122" lon="1.94292">
        <ele>2466.88</ele>
        <time>2013-06-02T07:49:37Z</time>
      </trkpt>
      <trkpt lat="42.57128" lon="1.94293">
        <ele>2470.73</ele>
        <time>2013-06-02T07:49:50Z</time>
      </trkpt>
      <trkpt lat="42.57129" lon="1.94291">
        <ele>2466.88</ele>
        <time>2013-06-02T07:50:12Z</time>
      </trkpt>
      <trkpt lat="42.57128" lon="1.94289">
        <ele>2466.88</ele>
        <time>2013-06-02T07:50:27Z</time>
      </trkpt>
      <trkpt lat="42.57125" lon="1.9429">
        <ele>2467.84</ele>
        <time>2013-06-02T07:50:39Z</time>
      </trkpt>
      <trkpt lat="42.57122" lon="1.94291">
        <ele>2469.76</ele>
        <time>2013-06-02T07:50:53Z</time>
      </trkpt>
      <trkpt lat="42.57114" lon="1.94287">
        <ele>2472.65</ele>
        <time>2013-06-02T07:51:07Z</time>
      </trkpt>
      <trkpt lat="42.57106" lon="1.94284">
        <ele>2475.53</ele>
        <time>2013-06-02T07:51:20Z</time>
      </trkpt>
      <trkpt lat="42.57097" lon="1.94279">
        <ele>2479.86</ele>
        <time>2013-06-02T07:51:34Z</time>
      </trkpt>
      <trkpt lat="42.57095" lon="1.94276">
        <ele>2479.86</ele>
        <time>2013-06-02T07:51:46Z</time>
      </trkpt>
      <trkpt lat="42.57093" lon="1.94278">
        <ele>2479.86</ele>
        <time>2013-06-02T07:52:04Z</time>
      </trkpt>
      <trkpt lat="42.57086" lon="1.94273">
        <ele>2481.3</ele>
        <time>2013-06-02T07:52:16Z</time>
      </trkpt>
      <trkpt lat="42.57088" lon="1.94268">
        <ele>2483.22</ele>
        <time>2013-06-02T07:52:26Z</time>
      </trkpt>
      <trkpt lat="42.57091" lon="1.94261">
        <ele>2485.15</ele>
        <time>2013-06-02T07:52:38Z</time>
      </trkpt>
      <trkpt lat="42.57091" lon="1.94256">
        <ele>2488.51</ele>
        <time>2013-06-02T07:52:50Z</time>
      </trkpt>
      <trkpt lat="42.57082" lon="1.94255">
        <ele>2494.28</ele>
        <time>2013-06-02T07:53:05Z</time>
      </trkpt>
      <trkpt lat="42.57081" lon="1.94255">
        <ele>2496.68</ele>
        <time>2013-06-02T07:53:10Z</time>
      </trkpt>
      <trkpt lat="42.57084" lon="1.9425">
        <ele>2498.6</ele>
        <time>2013-06-02T07:53:22Z</time>
      </trkpt>
      <trkpt lat="42.57087" lon="1.94244">
        <ele>2502.45</ele>
        <time>2013-06-02T07:53:35Z</time>
      </trkpt>
      <trkpt lat="42.57085" lon="1.94241">
        <ele>2506.77</ele>
        <time>2013-06-02T07:53:48Z</time>
      </trkpt>
      <trkpt lat="42.57083" lon="1.9424">
        <ele>2507.26</ele>
        <time>2013-06-02T07:53:50Z</time>
      </trkpt>
      <trkpt lat="42.57077" lon="1.94238">
        <ele>2510.62</ele>
        <time>2013-06-02T07:54:03Z</time>
      </trkpt>
      <trkpt lat="42.57081" lon="1.94234">
        <ele>2513.02</ele>
        <time>2013-06-02T07:54:14Z</time>
      </trkpt>
      <trkpt lat="42.57083" lon="1.94229">
        <ele>2514.47</ele>
        <time>2013-06-02T07:54:28Z</time>
      </trkpt>
      <trkpt lat="42.57079" lon="1.94228">
        <ele>2516.39</ele>
        <time>2013-06-02T07:54:39Z</time>
      </trkpt>
      <trkpt lat="42.57073" lon="1.94226">
        <ele>2519.75</ele>
        <time>2013-06-02T07:54:52Z</time>
      </trkpt>
      <trkpt lat="42.57069" lon="1.94225">
        <ele>2521.68</ele>
        <time>2013-06-02T07:55:05Z</time>
      </trkpt>
      <trkpt lat="42.57069" lon="1.9422">
        <ele>2521.68</ele>
        <time>2013-06-02T07:55:15Z</time>
      </trkpt>
      <trkpt lat="42.57072" lon="1.94213">
        <ele>2524.08</ele>
        <time>2013-06-02T07:55:27Z</time>
      </trkpt>
      <trkpt lat="42.5707" lon="1.9421">
        <ele>2526</ele>
        <time>2013-06-02T07:55:39Z</time>
      </trkpt>
      <trkpt lat="42.5707" lon="1.94214">
        <ele>2528.4</ele>
        <time>2013-06-02T07:55:55Z</time>
      </trkpt>
      <trkpt lat="42.57064" lon="1.94212">
        <ele>2530.81</ele>
        <time>2013-06-02T07:56:08Z</time>
      </trkpt>
      <trkpt lat="42.57059" lon="1.94214">
        <ele>2531.29</ele>
        <time>2013-06-02T07:56:21Z</time>
      </trkpt>
      <trkpt lat="42.5706" lon="1.94209">
        <ele>2532.25</ele>
        <time>2013-06-02T07:56:32Z</time>
      </trkpt>
      <trkpt lat="42.57059" lon="1.94202">
        <ele>2532.73</ele>
        <time>2013-06-02T07:56:42Z</time>
      </trkpt>
      <trkpt lat="42.57061" lon="1.94194">
        <ele>2536.1</ele>
        <time>2013-06-02T07:56:53Z</time>
      </trkpt>
      <trkpt lat="42.57061" lon="1.94192">
        <ele>2539.94</ele>
        <time>2013-06-02T07:57:06Z</time>
      </trkpt>
      <trkpt lat="42.57054" lon="1.94192">
        <ele>2543.79</ele>
        <time>2013-06-02T07:57:20Z</time>
      </trkpt>
      <trkpt lat="42.57049" lon="1.94193">
        <ele>2546.19</ele>
        <time>2013-06-02T07:57:32Z</time>
      </trkpt>
      <trkpt lat="42.5705" lon="1.9419">
        <ele>2547.15</ele>
        <time>2013-06-02T07:57:44Z</time>
      </trkpt>
      <trkpt lat="42.5705" lon="1.94181">
        <ele>2549.07</ele>
        <time>2013-06-02T07:57:56Z</time>
      </trkpt>
      <trkpt lat="42.57051" lon="1.9417">
        <ele>2551.48</ele>
        <time>2013-06-02T07:58:09Z</time>
      </trkpt>
      <trkpt lat="42.57055" lon="1.94162">
        <ele>2554.84</ele>
        <time>2013-06-02T07:58:23Z</time>
      </trkpt>
      <trkpt lat="42.57053" lon="1.94158">
        <ele>2555.32</ele>
        <time>2013-06-02T07:58:36Z</time>
      </trkpt>
      <trkpt lat="42.57046" lon="1.94158">
        <ele>2558.69</ele>
        <time>2013-06-02T07:58:50Z</time>
      </trkpt>
      <trkpt lat="42.57041" lon="1.94161">
        <ele>2562.05</ele>
        <time>2013-06-02T07:59:04Z</time>
      </trkpt>
      <trkpt lat="42.5704" lon="1.94162">
        <ele>2562.53</ele>
        <time>2013-06-02T07:59:08Z</time>
      </trkpt>
      <trkpt lat="42.57039" lon="1.94156">
        <ele>2563.97</ele>
        <time>2013-06-02T07:59:21Z</time>
      </trkpt>
      <trkpt lat="42.5704" lon="1.94145">
        <ele>2565.42</ele>
        <time>2013-06-02T07:59:34Z</time>
      </trkpt>
      <trkpt lat="42.57039" lon="1.94135">
        <ele>2567.34</ele>
        <time>2013-06-02T07:59:46Z</time>
      </trkpt>
      <trkpt lat="42.57039" lon="1.94125">
        <ele>2569.74</ele>
        <time>2013-06-02T07:59:58Z</time>
      </trkpt>
      <trkpt lat="42.57038" lon="1.94119">
        <ele>2571.18</ele>
        <time>2013-06-02T08:00:11Z</time>
      </trkpt>
      <trkpt lat="42.57039" lon="1.94118">
        <ele>2571.18</ele>
        <time>2013-06-02T08:00:35Z</time>
      </trkpt>
      <trkpt lat="42.57038" lon="1.94119">
        <ele>2571.18</ele>
        <time>2013-06-02T08:00:49Z</time>
      </trkpt>
      <trkpt lat="42.5704" lon="1.94121">
        <ele>2569.26</ele>
        <time>2013-06-02T08:01:17Z</time>
      </trkpt>
      <trkpt lat="42.57039" lon="1.94121">
        <ele>2571.66</ele>
        <time>2013-06-02T08:01:36Z</time>
      </trkpt>
      <trkpt lat="42.57045" lon="1.94112">
        <ele>2573.59</ele>
        <time>2013-06-02T08:01:47Z</time>
      </trkpt>
      <trkpt lat="42.57052" lon="1.94103">
        <ele>2576.95</ele>
        <time>2013-06-02T08:01:58Z</time>
      </trkpt>
      <trkpt lat="42.57054" lon="1.94097">
        <ele>2582.24</ele>
        <time>2013-06-02T08:02:08Z</time>
      </trkpt>
      <trkpt lat="42.57053" lon="1.94086">
        <ele>2585.12</ele>
        <time>2013-06-02T08:02:20Z</time>
      </trkpt>
      <trkpt lat="42.57053" lon="1.94079">
        <ele>2586.08</ele>
        <time>2013-06-02T08:02:33Z</time>
      </trkpt>
      <trkpt lat="42.57052" lon="1.94077">
        <ele>2585.6</ele>
        <time>2013-06-02T08:02:45Z</time>
      </trkpt>
      <trkpt lat="42.57051" lon="1.94067">
        <ele>2588.01</ele>
        <time>2013-06-02T08:02:57Z</time>
      </trkpt>
      <trkpt lat="42.57051" lon="1.9406">
        <ele>2590.89</ele>
        <time>2013-06-02T08:03:09Z</time>
      </trkpt>
      <trkpt lat="42.57047" lon="1.94047">
        <ele>2593.77</ele>
        <time>2013-06-02T08:03:23Z</time>
      </trkpt>
      <trkpt lat="42.57044" lon="1.94038">
        <ele>2597.62</ele>
        <time>2013-06-02T08:03:35Z</time>
      </trkpt>
      <trkpt lat="42.57043" lon="1.94027">
        <ele>2600.5</ele>
        <time>2013-06-02T08:03:48Z</time>
      </trkpt>
      <trkpt lat="42.57043" lon="1.94018">
        <ele>2603.39</ele>
        <time>2013-06-02T08:03:59Z</time>
      </trkpt>
      <trkpt lat="42.57045" lon="1.94011">
        <ele>2605.79</ele>
        <time>2013-06-02T08:04:10Z</time>
      </trkpt>
      <trkpt lat="42.57047" lon="1.94009">
        <ele>2609.16</ele>
        <time>2013-06-02T08:04:22Z</time>
      </trkpt>
      <trkpt lat="42.57047" lon="1.94">
        <ele>2613.48</ele>
        <time>2013-06-02T08:04:36Z</time>
      </trkpt>
      <trkpt lat="42.57047" lon="1.93999">
        <ele>2613.48</ele>
        <time>2013-06-02T08:04:37Z</time>
      </trkpt>
      <trkpt lat="42.5705" lon="1.93994">
        <ele>2614.92</ele>
        <time>2013-06-02T08:04:51Z</time>
      </trkpt>
      <trkpt lat="42.57052" lon="1.93989">
        <ele>2614.44</ele>
        <time>2013-06-02T08:05:12Z</time>
      </trkpt>
      <trkpt lat="42.57057" lon="1.93978">
        <ele>2617.81</ele>
        <time>2013-06-02T08:05:25Z</time>
      </trkpt>
      <trkpt lat="42.57058" lon="1.93974">
        <ele>2618.29</ele>
        <time>2013-06-02T08:05:30Z</time>
      </trkpt>
      <trkpt lat="42.57058" lon="1.93969">
        <ele>2618.29</ele>
        <time>2013-06-02T08:05:33Z</time>
      </trkpt>
      <trkpt lat="42.5706" lon="1.93964">
        <ele>2617.33</ele>
        <time>2013-06-02T08:05:46Z</time>
      </trkpt>
      <trkpt lat="42.5706" lon="1.93962">
        <ele>2617.33</ele>
        <time>2013-06-02T08:05:48Z</time>
      </trkpt>
      <trkpt lat="42.57058" lon="1.93959">
        <ele>2614.44</ele>
        <time>2013-06-02T08:05:54Z</time>
      </trkpt>
      <trkpt lat="42.57051" lon="1.93965">
        <ele>2613</ele>
        <time>2013-06-02T08:06:05Z</time>
      </trkpt>
      <trkpt lat="42.5704" lon="1.93959">
        <ele>2613.48</ele>
        <time>2013-06-02T08:06:19Z</time>
      </trkpt>
      <trkpt lat="42.57036" lon="1.93956">
        <ele>2617.33</ele>
        <time>2013-06-02T08:06:34Z</time>
      </trkpt>
      <trkpt lat="42.57033" lon="1.93952">
        <ele>2619.25</ele>
        <time>2013-06-02T08:06:40Z</time>
      </trkpt>
      <trkpt lat="42.57028" lon="1.93948">
        <ele>2621.65</ele>
        <time>2013-06-02T08:06:52Z</time>
      </trkpt>
      <trkpt lat="42.57022" lon="1.93947">
        <ele>2626.46</ele>
        <time>2013-06-02T08:07:05Z</time>
      </trkpt>
      <trkpt lat="42.57018" lon="1.9394">
        <ele>2629.82</ele>
        <time>2013-06-02T08:07:18Z</time>
      </trkpt>
      <trkpt lat="42.57018" lon="1.93924">
        <ele>2639.92</ele>
        <time>2013-06-02T08:07:32Z</time>
      </trkpt>
      <trkpt lat="42.57019" lon="1.93917">
        <ele>2647.13</ele>
        <time>2013-06-02T08:07:45Z</time>
      </trkpt>
      <trkpt lat="42.57025" lon="1.93915">
        <ele>2649.05</ele>
        <time>2013-06-02T08:07:58Z</time>
      </trkpt>
      <trkpt lat="42.57026" lon="1.93909">
        <ele>2646.65</ele>
        <time>2013-06-02T08:08:02Z</time>
      </trkpt>
      <trkpt lat="42.57029" lon="1.93901">
        <ele>2648.09</ele>
        <time>2013-06-02T08:08:14Z</time>
      </trkpt>
      <trkpt lat="42.57029" lon="1.93898">
        <ele>2649.05</ele>
        <time>2013-06-02T08:08:26Z</time>
      </trkpt>
      <trkpt lat="42.57027" lon="1.939">
        <ele>2648.57</ele>
        <time>2013-06-02T08:08:38Z</time>
      </trkpt>
      <trkpt lat="42.57027" lon="1.93885">
        <ele>2650.49</ele>
        <time>2013-06-02T08:08:51Z</time>
      </trkpt>
      <trkpt lat="42.57026" lon="1.93867">
        <ele>2652.42</ele>
        <time>2013-06-02T08:09:03Z</time>
      </trkpt>
      <trkpt lat="42.57025" lon="1.9386">
        <ele>2653.38</ele>
        <time>2013-06-02T08:09:15Z</time>
      </trkpt>
      <trkpt lat="42.57022" lon="1.9385">
        <ele>2654.34</ele>
        <time>2013-06-02T08:09:28Z</time>
      </trkpt>
      <trkpt lat="42.57019" lon="1.93844">
        <ele>2656.26</ele>
        <time>2013-06-02T08:09:41Z</time>
      </trkpt>
      <trkpt lat="42.57019" lon="1.93835">
        <ele>2664.91</ele>
        <time>2013-06-02T08:09:55Z</time>
      </trkpt>
      <trkpt lat="42.57033" lon="1.93843">
        <ele>2679.33</ele>
        <time>2013-06-02T08:10:10Z</time>
      </trkpt>
      <trkpt lat="42.57038" lon="1.93833">
        <ele>2683.66</ele>
        <time>2013-06-02T08:10:22Z</time>
      </trkpt>
      <trkpt lat="42.57044" lon="1.93819">
        <ele>2682.22</ele>
        <time>2013-06-02T08:10:35Z</time>
      </trkpt>
      <trkpt lat="42.57042" lon="1.93803">
        <ele>2681.25</ele>
        <time>2013-06-02T08:10:49Z</time>
      </trkpt>
      <trkpt lat="42.57043" lon="1.93791">
        <ele>2680.77</ele>
        <time>2013-06-02T08:11:02Z</time>
      </trkpt>
      <trkpt lat="42.57045" lon="1.93789">
        <ele>2677.89</ele>
        <time>2013-06-02T08:11:21Z</time>
      </trkpt>
      <trkpt lat="42.57047" lon="1.9379">
        <ele>2675.01</ele>
        <time>2013-06-02T08:11:39Z</time>
      </trkpt>
      <trkpt lat="42.57047" lon="1.93789">
        <ele>2671.64</ele>
        <time>2013-06-02T08:12:08Z</time>
      </trkpt>
      <trkpt lat="42.57045" lon="1.93789">
        <ele>2674.52</ele>
        <time>2013-06-02T08:12:24Z</time>
      </trkpt>
      <trkpt lat="42.57044" lon="1.9378">
        <ele>2674.52</ele>
        <time>2013-06-02T08:12:38Z</time>
      </trkpt>
      <trkpt lat="42.57043" lon="1.93781">
        <ele>2675.01</ele>
        <time>2013-06-02T08:12:58Z</time>
      </trkpt>
      <trkpt lat="42.57041" lon="1.93778">
        <ele>2676.93</ele>
        <time>2013-06-02T08:13:05Z</time>
      </trkpt>
      <trkpt lat="42.5704" lon="1.93764">
        <ele>2680.29</ele>
        <time>2013-06-02T08:13:18Z</time>
      </trkpt>
      <trkpt lat="42.57039" lon="1.93751">
        <ele>2679.81</ele>
        <time>2013-06-02T08:13:32Z</time>
      </trkpt>
      <trkpt lat="42.57038" lon="1.93751">
        <ele>2680.77</ele>
        <time>2013-06-02T08:13:39Z</time>
      </trkpt>
      <trkpt lat="42.57038" lon="1.93748">
        <ele>2680.29</ele>
        <time>2013-06-02T08:13:41Z</time>
      </trkpt>
      <trkpt lat="42.57038" lon="1.93736">
        <ele>2681.73</ele>
        <time>2013-06-02T08:13:49Z</time>
      </trkpt>
      <trkpt lat="42.57039" lon="1.93721">
        <ele>2684.14</ele>
        <time>2013-06-02T08:14:02Z</time>
      </trkpt>
      <trkpt lat="42.57039" lon="1.9371">
        <ele>2685.1</ele>
        <time>2013-06-02T08:14:12Z</time>
      </trkpt>
      <trkpt lat="42.57039" lon="1.93703">
        <ele>2687.5</ele>
        <time>2013-06-02T08:14:25Z</time>
      </trkpt>
      <trkpt lat="42.57036" lon="1.93698">
        <ele>2694.23</ele>
        <time>2013-06-02T08:14:37Z</time>
      </trkpt>
      <trkpt lat="42.57036" lon="1.9369">
        <ele>2698.56</ele>
        <time>2013-06-02T08:14:48Z</time>
      </trkpt>
      <trkpt lat="42.57032" lon="1.93681">
        <ele>2703.85</ele>
        <time>2013-06-02T08:14:59Z</time>
      </trkpt>
      <trkpt lat="42.57029" lon="1.93672">
        <ele>2708.17</ele>
        <time>2013-06-02T08:15:10Z</time>
      </trkpt>
      <trkpt lat="42.57029" lon="1.93663">
        <ele>2711.54</ele>
        <time>2013-06-02T08:15:22Z</time>
      </trkpt>
      <trkpt lat="42.57034" lon="1.93652">
        <ele>2711.54</ele>
        <time>2013-06-02T08:15:37Z</time>
      </trkpt>
      <trkpt lat="42.57037" lon="1.93647">
        <ele>2710.57</ele>
        <time>2013-06-02T08:15:43Z</time>
      </trkpt>
      <trkpt lat="42.57039" lon="1.93637">
        <ele>2709.61</ele>
        <time>2013-06-02T08:15:51Z</time>
      </trkpt>
      <trkpt lat="42.5704" lon="1.93625">
        <ele>2705.77</ele>
        <time>2013-06-02T08:16:03Z</time>
      </trkpt>
      <trkpt lat="42.57041" lon="1.93621">
        <ele>2706.25</ele>
        <time>2013-06-02T08:16:07Z</time>
      </trkpt>
      <trkpt lat="42.57042" lon="1.9361">
        <ele>2706.73</ele>
        <time>2013-06-02T08:16:20Z</time>
      </trkpt>
      <trkpt lat="42.57043" lon="1.936">
        <ele>2708.17</ele>
        <time>2013-06-02T08:16:31Z</time>
      </trkpt>
      <trkpt lat="42.57047" lon="1.93591">
        <ele>2710.09</ele>
        <time>2013-06-02T08:16:42Z</time>
      </trkpt>
      <trkpt lat="42.57049" lon="1.93587">
        <ele>2709.61</ele>
        <time>2013-06-02T08:16:54Z</time>
      </trkpt>
      <trkpt lat="42.5705" lon="1.93577">
        <ele>2708.65</ele>
        <time>2013-06-02T08:17:07Z</time>
      </trkpt>
      <trkpt lat="42.57049" lon="1.93579">
        <ele>2711.54</ele>
        <time>2013-06-02T08:17:13Z</time>
      </trkpt>
      <trkpt lat="42.57053" lon="1.93562">
        <ele>2711.54</ele>
        <time>2013-06-02T08:17:26Z</time>
      </trkpt>
      <trkpt lat="42.57059" lon="1.9355">
        <ele>2714.42</ele>
        <time>2013-06-02T08:17:39Z</time>
      </trkpt>
      <trkpt lat="42.57062" lon="1.93545">
        <ele>2716.82</ele>
        <time>2013-06-02T08:17:47Z</time>
      </trkpt>
      <trkpt lat="42.57065" lon="1.93534">
        <ele>2719.71</ele>
        <time>2013-06-02T08:17:59Z</time>
      </trkpt>
      <trkpt lat="42.57067" lon="1.93521">
        <ele>2722.59</ele>
        <time>2013-06-02T08:18:11Z</time>
      </trkpt>
      <trkpt lat="42.57073" lon="1.93514">
        <ele>2726.92</ele>
        <time>2013-06-02T08:18:23Z</time>
      </trkpt>
      <trkpt lat="42.57085" lon="1.93512">
        <ele>2730.76</ele>
        <time>2013-06-02T08:18:36Z</time>
      </trkpt>
      <trkpt lat="42.57093" lon="1.93507">
        <ele>2734.13</ele>
        <time>2013-06-02T08:18:49Z</time>
      </trkpt>
      <trkpt lat="42.57099" lon="1.93502">
        <ele>2737.01</ele>
        <time>2013-06-02T08:19:01Z</time>
      </trkpt>
      <trkpt lat="42.57106" lon="1.93501">
        <ele>2739.89</ele>
        <time>2013-06-02T08:19:16Z</time>
      </trkpt>
      <trkpt lat="42.57114" lon="1.93499">
        <ele>2741.34</ele>
        <time>2013-06-02T08:19:27Z</time>
      </trkpt>
      <trkpt lat="42.57121" lon="1.93498">
        <ele>2742.78</ele>
        <time>2013-06-02T08:19:41Z</time>
      </trkpt>
      <trkpt lat="42.57133" lon="1.93501">
        <ele>2748.55</ele>
        <time>2013-06-02T08:19:56Z</time>
      </trkpt>
      <trkpt lat="42.57138" lon="1.93503">
        <ele>2753.35</ele>
        <time>2013-06-02T08:20:07Z</time>
      </trkpt>
      <trkpt lat="42.57139" lon="1.93503">
        <ele>2753.35</ele>
        <time>2013-06-02T08:20:08Z</time>
      </trkpt>
      <trkpt lat="42.57141" lon="1.93505">
        <ele>2754.31</ele>
        <time>2013-06-02T08:20:22Z</time>
      </trkpt>
      <trkpt lat="42.57143" lon="1.93507">
        <ele>2750.95</ele>
        <time>2013-06-02T08:20:40Z</time>
      </trkpt>
      <trkpt lat="42.57147" lon="1.93508">
        <ele>2748.07</ele>
        <time>2013-06-02T08:20:51Z</time>
      </trkpt>
      <trkpt lat="42.57148" lon="1.93509">
        <ele>2741.82</ele>
        <time>2013-06-02T08:21:09Z</time>
      </trkpt>
      <trkpt lat="42.57147" lon="1.93508">
        <ele>2739.89</ele>
        <time>2013-06-02T08:21:33Z</time>
      </trkpt>
      <trkpt lat="42.57147" lon="1.93508">
        <ele>2741.34</ele>
        <time>2013-06-02T08:21:53Z</time>
      </trkpt>
      <trkpt lat="42.57144" lon="1.93507">
        <ele>2741.82</ele>
        <time>2013-06-02T08:22:08Z</time>
      </trkpt>
      <trkpt lat="42.5714" lon="1.93502">
        <ele>2741.82</ele>
        <time>2013-06-02T08:22:20Z</time>
      </trkpt>
      <trkpt lat="42.57137" lon="1.93496">
        <ele>2741.34</ele>
        <time>2013-06-02T08:22:32Z</time>
      </trkpt>
      <trkpt lat="42.57131" lon="1.93493">
        <ele>2742.3</ele>
        <time>2013-06-02T08:22:44Z</time>
      </trkpt>
      <trkpt lat="42.57124" lon="1.93488">
        <ele>2743.74</ele>
        <time>2013-06-02T08:22:56Z</time>
      </trkpt>
      <trkpt lat="42.57122" lon="1.93486">
        <ele>2744.22</ele>
        <time>2013-06-02T08:23:00Z</time>
      </trkpt>
      <trkpt lat="42.57119" lon="1.93485">
        <ele>2744.7</ele>
        <time>2013-06-02T08:23:12Z</time>
      </trkpt>
      <trkpt lat="42.57117" lon="1.93485">
        <ele>2745.18</ele>
        <time>2013-06-02T08:23:24Z</time>
      </trkpt>
      <trkpt lat="42.57116" lon="1.93483">
        <ele>2747.1</ele>
        <time>2013-06-02T08:23:36Z</time>
      </trkpt>
      <trkpt lat="42.57116" lon="1.93483">
        <ele>2747.59</ele>
        <time>2013-06-02T08:23:52Z</time>
      </trkpt>
      <trkpt lat="42.57115" lon="1.93485">
        <ele>2748.55</ele>
        <time>2013-06-02T08:24:14Z</time>
      </trkpt>
      <trkpt lat="42.57116" lon="1.93484">
        <ele>2748.55</ele>
        <time>2013-06-02T08:24:31Z</time>
      </trkpt>
      <trkpt lat="42.57114" lon="1.93483">
        <ele>2749.03</ele>
        <time>2013-06-02T08:24:47Z</time>
      </trkpt>
      <trkpt lat="42.57115" lon="1.93485">
        <ele>2748.55</ele>
        <time>2013-06-02T08:24:50Z</time>
      </trkpt>
      <trkpt lat="42.57117" lon="1.93482">
        <ele>2748.07</ele>
        <time>2013-06-02T08:25:07Z</time>
      </trkpt>
      <trkpt lat="42.57117" lon="1.93477">
        <ele>2747.59</ele>
        <time>2013-06-02T08:25:34Z</time>
      </trkpt>
      <trkpt lat="42.57114" lon="1.93479">
        <ele>2749.51</ele>
        <time>2013-06-02T08:26:10Z</time>
      </trkpt>
      <trkpt lat="42.57117" lon="1.93486">
        <ele>2742.3</ele>
        <time>2013-06-02T08:26:38Z</time>
      </trkpt>
      <trkpt lat="42.57112" lon="1.93482">
        <ele>2741.82</ele>
        <time>2013-06-02T08:27:05Z</time>
      </trkpt>
      <trkpt lat="42.57116" lon="1.93486">
        <ele>2746.14</ele>
        <time>2013-06-02T08:27:38Z</time>
      </trkpt>
      <trkpt lat="42.57119" lon="1.93484">
        <ele>2748.55</ele>
        <time>2013-06-02T08:28:03Z</time>
      </trkpt>
      <trkpt lat="42.5712" lon="1.93483">
        <ele>2750.95</ele>
        <time>2013-06-02T08:28:30Z</time>
      </trkpt>
      <trkpt lat="42.57119" lon="1.93484">
        <ele>2749.51</ele>
        <time>2013-06-02T08:28:52Z</time>
      </trkpt>
      <trkpt lat="42.57117" lon="1.93483">
        <ele>2746.62</ele>
        <time>2013-06-02T08:29:15Z</time>
      </trkpt>
      <trkpt lat="42.57118" lon="1.93484">
        <ele>2746.14</ele>
        <time>2013-06-02T08:29:39Z</time>
      </trkpt>
      <trkpt lat="42.57115" lon="1.9348">
        <ele>2747.1</ele>
        <time>2013-06-02T08:30:09Z</time>
      </trkpt>
      <trkpt lat="42.57118" lon="1.93481">
        <ele>2749.51</ele>
        <time>2013-06-02T08:30:40Z</time>
      </trkpt>
      <trkpt lat="42.57116" lon="1.93486">
        <ele>2751.91</ele>
        <time>2013-06-02T08:31:08Z</time>
      </trkpt>
      <trkpt lat="42.57117" lon="1.93484">
        <ele>2753.35</ele>
        <time>2013-06-02T08:31:17Z</time>
      </trkpt>
      <trkpt lat="42.57117" lon="1.93483">
        <ele>2753.83</ele>
        <time>2013-06-02T08:31:38Z</time>
      </trkpt>
      <trkpt lat="42.57112" lon="1.9348">
        <ele>2756.24</ele>
        <time>2013-06-02T08:32:02Z</time>
      </trkpt>
      <trkpt lat="42.5711" lon="1.93481">
        <ele>2761.04</ele>
        <time>2013-06-02T08:32:35Z</time>
      </trkpt>
      <trkpt lat="42.57111" lon="1.93481">
        <ele>2759.12</ele>
        <time>2013-06-02T08:33:03Z</time>
      </trkpt>
      <trkpt lat="42.5711" lon="1.93486">
        <ele>2761.52</ele>
        <time>2013-06-02T08:33:34Z</time>
      </trkpt>
      <trkpt lat="42.57114" lon="1.93483">
        <ele>2758.16</ele>
        <time>2013-06-02T08:33:46Z</time>
      </trkpt>
      <trkpt lat="42.57114" lon="1.93483">
        <ele>2756.72</ele>
        <time>2013-06-02T08:34:12Z</time>
      </trkpt>
      <trkpt lat="42.57109" lon="1.93482">
        <ele>2753.83</ele>
        <time>2013-06-02T08:34:30Z</time>
      </trkpt>
      <trkpt lat="42.57106" lon="1.93481">
        <ele>2752.87</ele>
        <time>2013-06-02T08:34:36Z</time>
      </trkpt>
      <trkpt lat="42.57103" lon="1.93481">
        <ele>2753.35</ele>
        <time>2013-06-02T08:34:40Z</time>
      </trkpt>
      <trkpt lat="42.57096" lon="1.93477">
        <ele>2754.31</ele>
        <time>2013-06-02T08:34:52Z</time>
      </trkpt>
      <trkpt lat="42.5709" lon="1.93476">
        <ele>2754.8</ele>
        <time>2013-06-02T08:35:01Z</time>
      </trkpt>
      <trkpt lat="42.57084" lon="1.93474">
        <ele>2756.24</ele>
        <time>2013-06-02T08:35:11Z</time>
      </trkpt>
      <trkpt lat="42.57079" lon="1.93473">
        <ele>2757.2</ele>
        <time>2013-06-02T08:35:21Z</time>
      </trkpt>
      <trkpt lat="42.57076" lon="1.93472">
        <ele>2757.68</ele>
        <time>2013-06-02T08:35:31Z</time>
      </trkpt>
      <trkpt lat="42.57074" lon="1.93471">
        <ele>2757.68</ele>
        <time>2013-06-02T08:35:35Z</time>
      </trkpt>
      <trkpt lat="42.5707" lon="1.93468">
        <ele>2759.12</ele>
        <time>2013-06-02T08:35:45Z</time>
      </trkpt>
      <trkpt lat="42.57068" lon="1.93467">
        <ele>2760.56</ele>
        <time>2013-06-02T08:35:56Z</time>
      </trkpt>
      <trkpt lat="42.57068" lon="1.93467">
        <ele>2763.45</ele>
        <time>2013-06-02T08:36:16Z</time>
      </trkpt>
      <trkpt lat="42.57065" lon="1.93471">
        <ele>2762.97</ele>
        <time>2013-06-02T08:36:31Z</time>
      </trkpt>
      <trkpt lat="42.5706" lon="1.9347">
        <ele>2760.56</ele>
        <time>2013-06-02T08:36:44Z</time>
      </trkpt>
      <trkpt lat="42.57055" lon="1.93475">
        <ele>2758.64</ele>
        <time>2013-06-02T08:36:56Z</time>
      </trkpt>
      <trkpt lat="42.57052" lon="1.93481">
        <ele>2752.39</ele>
        <time>2013-06-02T08:37:08Z</time>
      </trkpt>
      <trkpt lat="42.5705" lon="1.93487">
        <ele>2748.55</ele>
        <time>2013-06-02T08:37:19Z</time>
      </trkpt>
      <trkpt lat="42.57048" lon="1.93488">
        <ele>2746.14</ele>
        <time>2013-06-02T08:37:25Z</time>
      </trkpt>
      <trkpt lat="42.57044" lon="1.93492">
        <ele>2743.74</ele>
        <time>2013-06-02T08:37:36Z</time>
      </trkpt>
      <trkpt lat="42.57044" lon="1.93495">
        <ele>2743.26</ele>
        <time>2013-06-02T08:37:42Z</time>
      </trkpt>
      <trkpt lat="42.57043" lon="1.93498">
        <ele>2742.78</ele>
        <time>2013-06-02T08:37:46Z</time>
      </trkpt>
      <trkpt lat="42.57042" lon="1.93506">
        <ele>2740.86</ele>
        <time>2013-06-02T08:37:54Z</time>
      </trkpt>
      <trkpt lat="42.57044" lon="1.93511">
        <ele>2739.41</ele>
        <time>2013-06-02T08:37:59Z</time>
      </trkpt>
      <trkpt lat="42.57046" lon="1.93521">
        <ele>2736.05</ele>
        <time>2013-06-02T08:38:10Z</time>
      </trkpt>
      <trkpt lat="42.57047" lon="1.93522">
        <ele>2735.57</ele>
        <time>2013-06-02T08:38:11Z</time>
      </trkpt>
      <trkpt lat="42.57048" lon="1.93526">
        <ele>2734.61</ele>
        <time>2013-06-02T08:38:15Z</time>
      </trkpt>
      <trkpt lat="42.5705" lon="1.93537">
        <ele>2731.72</ele>
        <time>2013-06-02T08:38:25Z</time>
      </trkpt>
      <trkpt lat="42.57049" lon="1.9354">
        <ele>2730.28</ele>
        <time>2013-06-02T08:38:28Z</time>
      </trkpt>
      <trkpt lat="42.57049" lon="1.93553">
        <ele>2726.44</ele>
        <time>2013-06-02T08:38:39Z</time>
      </trkpt>
      <trkpt lat="42.57047" lon="1.93568">
        <ele>2723.55</ele>
        <time>2013-06-02T08:38:52Z</time>
      </trkpt>
      <trkpt lat="42.57047" lon="1.93571">
        <ele>2722.59</ele>
        <time>2013-06-02T08:38:54Z</time>
      </trkpt>
      <trkpt lat="42.57049" lon="1.93579">
        <ele>2716.34</ele>
        <time>2013-06-02T08:39:04Z</time>
      </trkpt>
      <trkpt lat="42.5705" lon="1.9358">
        <ele>2713.46</ele>
        <time>2013-06-02T08:39:07Z</time>
      </trkpt>
      <trkpt lat="42.57051" lon="1.93583">
        <ele>2712.98</ele>
        <time>2013-06-02T08:39:09Z</time>
      </trkpt>
      <trkpt lat="42.57052" lon="1.93589">
        <ele>2712.02</ele>
        <time>2013-06-02T08:39:14Z</time>
      </trkpt>
      <trkpt lat="42.57048" lon="1.93603">
        <ele>2709.13</ele>
        <time>2013-06-02T08:39:26Z</time>
      </trkpt>
      <trkpt lat="42.57047" lon="1.93614">
        <ele>2706.25</ele>
        <time>2013-06-02T08:39:36Z</time>
      </trkpt>
      <trkpt lat="42.57045" lon="1.93627">
        <ele>2704.33</ele>
        <time>2013-06-02T08:39:45Z</time>
      </trkpt>
      <trkpt lat="42.57045" lon="1.9363">
        <ele>2702.88</ele>
        <time>2013-06-02T08:39:48Z</time>
      </trkpt>
      <trkpt lat="42.57047" lon="1.93638">
        <ele>2700.96</ele>
        <time>2013-06-02T08:39:56Z</time>
      </trkpt>
      <trkpt lat="42.57046" lon="1.93646">
        <ele>2700</ele>
        <time>2013-06-02T08:40:02Z</time>
      </trkpt>
      <trkpt lat="42.57046" lon="1.93649">
        <ele>2700</ele>
        <time>2013-06-02T08:40:05Z</time>
      </trkpt>
      <trkpt lat="42.57045" lon="1.93663">
        <ele>2696.64</ele>
        <time>2013-06-02T08:40:15Z</time>
      </trkpt>
      <trkpt lat="42.57042" lon="1.93677">
        <ele>2692.79</ele>
        <time>2013-06-02T08:40:25Z</time>
      </trkpt>
      <trkpt lat="42.57038" lon="1.93687">
        <ele>2689.91</ele>
        <time>2013-06-02T08:40:33Z</time>
      </trkpt>
      <trkpt lat="42.57039" lon="1.93693">
        <ele>2689.43</ele>
        <time>2013-06-02T08:40:39Z</time>
      </trkpt>
      <trkpt lat="42.57038" lon="1.93697">
        <ele>2689.91</ele>
        <time>2013-06-02T08:40:42Z</time>
      </trkpt>
      <trkpt lat="42.5704" lon="1.93706">
        <ele>2688.46</ele>
        <time>2013-06-02T08:40:53Z</time>
      </trkpt>
      <trkpt lat="42.5704" lon="1.93709">
        <ele>2683.18</ele>
        <time>2013-06-02T08:41:03Z</time>
      </trkpt>
      <trkpt lat="42.57042" lon="1.93721">
        <ele>2679.81</ele>
        <time>2013-06-02T08:41:14Z</time>
      </trkpt>
      <trkpt lat="42.5704" lon="1.93734">
        <ele>2679.81</ele>
        <time>2013-06-02T08:41:19Z</time>
      </trkpt>
      <trkpt lat="42.57039" lon="1.93747">
        <ele>2676.93</ele>
        <time>2013-06-02T08:41:29Z</time>
      </trkpt>
      <trkpt lat="42.5704" lon="1.93766">
        <ele>2674.52</ele>
        <time>2013-06-02T08:41:42Z</time>
      </trkpt>
      <trkpt lat="42.57041" lon="1.93765">
        <ele>2672.6</ele>
        <time>2013-06-02T08:41:57Z</time>
      </trkpt>
      <trkpt lat="42.57042" lon="1.93761">
        <ele>2670.68</ele>
        <time>2013-06-02T08:42:08Z</time>
      </trkpt>
      <trkpt lat="42.57041" lon="1.93764">
        <ele>2673.08</ele>
        <time>2013-06-02T08:42:21Z</time>
      </trkpt>
      <trkpt lat="42.57039" lon="1.93761">
        <ele>2671.16</ele>
        <time>2013-06-02T08:42:51Z</time>
      </trkpt>
      <trkpt lat="42.5704" lon="1.93775">
        <ele>2671.16</ele>
        <time>2013-06-02T08:43:19Z</time>
      </trkpt>
      <trkpt lat="42.57041" lon="1.9377">
        <ele>2671.64</ele>
        <time>2013-06-02T08:43:37Z</time>
      </trkpt>
      <trkpt lat="42.57042" lon="1.93763">
        <ele>2667.8</ele>
        <time>2013-06-02T08:44:04Z</time>
      </trkpt>
      <trkpt lat="42.57043" lon="1.93758">
        <ele>2665.87</ele>
        <time>2013-06-02T08:44:28Z</time>
      </trkpt>
      <trkpt lat="42.5704" lon="1.93765">
        <ele>2669.72</ele>
        <time>2013-06-02T08:45:01Z</time>
      </trkpt>
      <trkpt lat="42.57039" lon="1.93779">
        <ele>2686.54</ele>
        <time>2013-06-02T08:45:33Z</time>
      </trkpt>
      <trkpt lat="42.5704" lon="1.93779">
        <ele>2689.91</ele>
        <time>2013-06-02T08:46:06Z</time>
      </trkpt>
      <trkpt lat="42.57043" lon="1.93769">
        <ele>2676.93</ele>
        <time>2013-06-02T08:46:28Z</time>
      </trkpt>
      <trkpt lat="42.57045" lon="1.9377">
        <ele>2680.29</ele>
        <time>2013-06-02T08:47:01Z</time>
      </trkpt>
      <trkpt lat="42.57045" lon="1.93771">
        <ele>2681.25</ele>
        <time>2013-06-02T08:47:28Z</time>
      </trkpt>
      <trkpt lat="42.57044" lon="1.93771">
        <ele>2676.93</ele>
        <time>2013-06-02T08:48:00Z</time>
      </trkpt>
      <trkpt lat="42.57044" lon="1.93767">
        <ele>2673.56</ele>
        <time>2013-06-02T08:48:33Z</time>
      </trkpt>
      <trkpt lat="42.57045" lon="1.93772">
        <ele>2670.2</ele>
        <time>2013-06-02T08:48:57Z</time>
      </trkpt>
      <trkpt lat="42.57042" lon="1.93778">
        <ele>2670.2</ele>
        <time>2013-06-02T08:49:08Z</time>
      </trkpt>
      <trkpt lat="42.57042" lon="1.93774">
        <ele>2667.31</ele>
        <time>2013-06-02T08:49:19Z</time>
      </trkpt>
      <trkpt lat="42.57044" lon="1.93767">
        <ele>2667.31</ele>
        <time>2013-06-02T08:49:35Z</time>
      </trkpt>
      <trkpt lat="42.57044" lon="1.93764">
        <ele>2667.31</ele>
        <time>2013-06-02T08:49:50Z</time>
      </trkpt>
      <trkpt lat="42.57044" lon="1.93763">
        <ele>2666.35</ele>
        <time>2013-06-02T08:50:03Z</time>
      </trkpt>
      <trkpt lat="42.57043" lon="1.93762">
        <ele>2664.43</ele>
        <time>2013-06-02T08:50:18Z</time>
      </trkpt>
      <trkpt lat="42.57043" lon="1.93762">
        <ele>2666.35</ele>
        <time>2013-06-02T08:50:31Z</time>
      </trkpt>
      <trkpt lat="42.57044" lon="1.93762">
        <ele>2666.83</ele>
        <time>2013-06-02T08:50:50Z</time>
      </trkpt>
      <trkpt lat="42.57045" lon="1.93762">
        <ele>2665.87</ele>
        <time>2013-06-02T08:51:08Z</time>
      </trkpt>
      <trkpt lat="42.57042" lon="1.93767">
        <ele>2663.95</ele>
        <time>2013-06-02T08:51:29Z</time>
      </trkpt>
      <trkpt lat="42.57044" lon="1.93764">
        <ele>2663.95</ele>
        <time>2013-06-02T08:51:47Z</time>
      </trkpt>
      <trkpt lat="42.57044" lon="1.93763">
        <ele>2664.91</ele>
        <time>2013-06-02T08:51:49Z</time>
      </trkpt>
      <trkpt lat="42.57043" lon="1.93773">
        <ele>2663.95</ele>
        <time>2013-06-02T08:51:56Z</time>
      </trkpt>
      <trkpt lat="42.57047" lon="1.93792">
        <ele>2660.59</ele>
        <time>2013-06-02T08:52:04Z</time>
      </trkpt>
      <trkpt lat="42.57049" lon="1.93813">
        <ele>2655.3</ele>
        <time>2013-06-02T08:52:11Z</time>
      </trkpt>
      <trkpt lat="42.57047" lon="1.93816">
        <ele>2653.86</ele>
        <time>2013-06-02T08:52:13Z</time>
      </trkpt>
      <trkpt lat="42.57041" lon="1.93848">
        <ele>2645.69</ele>
        <time>2013-06-02T08:52:24Z</time>
      </trkpt>
      <trkpt lat="42.57039" lon="1.93853">
        <ele>2644.24</ele>
        <time>2013-06-02T08:52:26Z</time>
      </trkpt>
      <trkpt lat="42.57039" lon="1.93855">
        <ele>2640.4</ele>
        <time>2013-06-02T08:52:37Z</time>
      </trkpt>
      <trkpt lat="42.57037" lon="1.93865">
        <ele>2635.59</ele>
        <time>2013-06-02T08:52:54Z</time>
      </trkpt>
      <trkpt lat="42.57036" lon="1.93887">
        <ele>2630.79</ele>
        <time>2013-06-02T08:53:03Z</time>
      </trkpt>
      <trkpt lat="42.57028" lon="1.93914">
        <ele>2624.54</ele>
        <time>2013-06-02T08:53:13Z</time>
      </trkpt>
      <trkpt lat="42.57025" lon="1.93918">
        <ele>2615.4</ele>
        <time>2013-06-02T08:53:26Z</time>
      </trkpt>
      <trkpt lat="42.57025" lon="1.93955">
        <ele>2613</ele>
        <time>2013-06-02T08:53:35Z</time>
      </trkpt>
      <trkpt lat="42.57026" lon="1.93958">
        <ele>2612.52</ele>
        <time>2013-06-02T08:53:36Z</time>
      </trkpt>
      <trkpt lat="42.57026" lon="1.9396">
        <ele>2612.04</ele>
        <time>2013-06-02T08:53:37Z</time>
      </trkpt>
      <trkpt lat="42.57027" lon="1.93962">
        <ele>2611.56</ele>
        <time>2013-06-02T08:53:38Z</time>
      </trkpt>
      <trkpt lat="42.57028" lon="1.93963">
        <ele>2611.56</ele>
        <time>2013-06-02T08:53:39Z</time>
      </trkpt>
      <trkpt lat="42.57028" lon="1.93966">
        <ele>2611.08</ele>
        <time>2013-06-02T08:53:40Z</time>
      </trkpt>
      <trkpt lat="42.5703" lon="1.93979">
        <ele>2611.08</ele>
        <time>2013-06-02T08:53:43Z</time>
      </trkpt>
      <trkpt lat="42.57029" lon="1.93986">
        <ele>2611.56</ele>
        <time>2013-06-02T08:53:44Z</time>
      </trkpt>
      <trkpt lat="42.57023" lon="1.94005">
        <ele>2611.08</ele>
        <time>2013-06-02T08:53:48Z</time>
      </trkpt>
      <trkpt lat="42.57024" lon="1.94007">
        <ele>2610.6</ele>
        <time>2013-06-02T08:53:49Z</time>
      </trkpt>
      <trkpt lat="42.57025" lon="1.94006">
        <ele>2610.12</ele>
        <time>2013-06-02T08:53:50Z</time>
      </trkpt>
      <trkpt lat="42.57027" lon="1.94006">
        <ele>2610.12</ele>
        <time>2013-06-02T08:53:51Z</time>
      </trkpt>
      <trkpt lat="42.57028" lon="1.94006">
        <ele>2610.12</ele>
        <time>2013-06-02T08:53:52Z</time>
      </trkpt>
      <trkpt lat="42.57028" lon="1.94008">
        <ele>2609.64</ele>
        <time>2013-06-02T08:53:53Z</time>
      </trkpt>
      <trkpt lat="42.57026" lon="1.94011">
        <ele>2609.16</ele>
        <time>2013-06-02T08:53:55Z</time>
      </trkpt>
      <trkpt lat="42.57022" lon="1.94021">
        <ele>2607.71</ele>
        <time>2013-06-02T08:53:59Z</time>
      </trkpt>
      <trkpt lat="42.57026" lon="1.94024">
        <ele>2605.79</ele>
        <time>2013-06-02T08:54:06Z</time>
      </trkpt>
      <trkpt lat="42.57028" lon="1.94023">
        <ele>2604.35</ele>
        <time>2013-06-02T08:54:23Z</time>
      </trkpt>
      <trkpt lat="42.57027" lon="1.94021">
        <ele>2603.87</ele>
        <time>2013-06-02T08:54:33Z</time>
      </trkpt>
      <trkpt lat="42.5703" lon="1.94032">
        <ele>2598.58</ele>
        <time>2013-06-02T08:54:42Z</time>
      </trkpt>
      <trkpt lat="42.5703" lon="1.94033">
        <ele>2597.62</ele>
        <time>2013-06-02T08:54:43Z</time>
      </trkpt>
      <trkpt lat="42.57031" lon="1.94037">
        <ele>2595.7</ele>
        <time>2013-06-02T08:54:46Z</time>
      </trkpt>
      <trkpt lat="42.5703" lon="1.94046">
        <ele>2592.81</ele>
        <time>2013-06-02T08:54:52Z</time>
      </trkpt>
      <trkpt lat="42.57039" lon="1.94048">
        <ele>2589.93</ele>
        <time>2013-06-02T08:54:57Z</time>
      </trkpt>
      <trkpt lat="42.5704" lon="1.94051">
        <ele>2589.45</ele>
        <time>2013-06-02T08:54:58Z</time>
      </trkpt>
      <trkpt lat="42.57041" lon="1.94054">
        <ele>2588.49</ele>
        <time>2013-06-02T08:54:59Z</time>
      </trkpt>
      <trkpt lat="42.57042" lon="1.94055">
        <ele>2587.53</ele>
        <time>2013-06-02T08:55:00Z</time>
      </trkpt>
      <trkpt lat="42.57043" lon="1.94057">
        <ele>2587.04</ele>
        <time>2013-06-02T08:55:01Z</time>
      </trkpt>
      <trkpt lat="42.57044" lon="1.9406">
        <ele>2586.08</ele>
        <time>2013-06-02T08:55:02Z</time>
      </trkpt>
      <trkpt lat="42.57043" lon="1.94062">
        <ele>2585.12</ele>
        <time>2013-06-02T08:55:03Z</time>
      </trkpt>
      <trkpt lat="42.57043" lon="1.9407">
        <ele>2582.72</ele>
        <time>2013-06-02T08:55:06Z</time>
      </trkpt>
      <trkpt lat="42.57043" lon="1.94072">
        <ele>2581.76</ele>
        <time>2013-06-02T08:55:07Z</time>
      </trkpt>
      <trkpt lat="42.57043" lon="1.94074">
        <ele>2580.8</ele>
        <time>2013-06-02T08:55:08Z</time>
      </trkpt>
      <trkpt lat="42.57044" lon="1.94076">
        <ele>2579.84</ele>
        <time>2013-06-02T08:55:09Z</time>
      </trkpt>
      <trkpt lat="42.57045" lon="1.94078">
        <ele>2579.35</ele>
        <time>2013-06-02T08:55:10Z</time>
      </trkpt>
      <trkpt lat="42.57046" lon="1.9408">
        <ele>2578.87</ele>
        <time>2013-06-02T08:55:11Z</time>
      </trkpt>
      <trkpt lat="42.57046" lon="1.94082">
        <ele>2577.91</ele>
        <time>2013-06-02T08:55:12Z</time>
      </trkpt>
      <trkpt lat="42.57047" lon="1.94084">
        <ele>2576.95</ele>
        <time>2013-06-02T08:55:13Z</time>
      </trkpt>
      <trkpt lat="42.57048" lon="1.94091">
        <ele>2575.03</ele>
        <time>2013-06-02T08:55:15Z</time>
      </trkpt>
      <trkpt lat="42.57048" lon="1.94093">
        <ele>2574.07</ele>
        <time>2013-06-02T08:55:16Z</time>
      </trkpt>
      <trkpt lat="42.57046" lon="1.94096">
        <ele>2573.11</ele>
        <time>2013-06-02T08:55:17Z</time>
      </trkpt>
      <trkpt lat="42.57046" lon="1.94101">
        <ele>2572.14</ele>
        <time>2013-06-02T08:55:18Z</time>
      </trkpt>
      <trkpt lat="42.57047" lon="1.94105">
        <ele>2571.18</ele>
        <time>2013-06-02T08:55:19Z</time>
      </trkpt>
      <trkpt lat="42.57046" lon="1.94107">
        <ele>2570.22</ele>
        <time>2013-06-02T08:55:20Z</time>
      </trkpt>
      <trkpt lat="42.57046" lon="1.94111">
        <ele>2569.26</ele>
        <time>2013-06-02T08:55:21Z</time>
      </trkpt>
      <trkpt lat="42.57045" lon="1.94115">
        <ele>2566.38</ele>
        <time>2013-06-02T08:55:24Z</time>
      </trkpt>
      <trkpt lat="42.57043" lon="1.94117">
        <ele>2565.42</ele>
        <time>2013-06-02T08:55:25Z</time>
      </trkpt>
      <trkpt lat="42.57037" lon="1.94122">
        <ele>2563.01</ele>
        <time>2013-06-02T08:55:28Z</time>
      </trkpt>
      <trkpt lat="42.57037" lon="1.94125">
        <ele>2562.53</ele>
        <time>2013-06-02T08:55:29Z</time>
      </trkpt>
      <trkpt lat="42.57036" lon="1.94127">
        <ele>2561.57</ele>
        <time>2013-06-02T08:55:30Z</time>
      </trkpt>
      <trkpt lat="42.57036" lon="1.9413">
        <ele>2560.61</ele>
        <time>2013-06-02T08:55:31Z</time>
      </trkpt>
      <trkpt lat="42.57036" lon="1.94132">
        <ele>2559.65</ele>
        <time>2013-06-02T08:55:32Z</time>
      </trkpt>
      <trkpt lat="42.57037" lon="1.94136">
        <ele>2559.17</ele>
        <time>2013-06-02T08:55:33Z</time>
      </trkpt>
      <trkpt lat="42.57037" lon="1.9414">
        <ele>2557.73</ele>
        <time>2013-06-02T08:55:34Z</time>
      </trkpt>
      <trkpt lat="42.57037" lon="1.94144">
        <ele>2556.76</ele>
        <time>2013-06-02T08:55:35Z</time>
      </trkpt>
      <trkpt lat="42.57037" lon="1.94146">
        <ele>2556.28</ele>
        <time>2013-06-02T08:55:36Z</time>
      </trkpt>
      <trkpt lat="42.57038" lon="1.9415">
        <ele>2555.8</ele>
        <time>2013-06-02T08:55:37Z</time>
      </trkpt>
      <trkpt lat="42.5704" lon="1.94161">
        <ele>2554.84</ele>
        <time>2013-06-02T08:55:42Z</time>
      </trkpt>
      <trkpt lat="42.57041" lon="1.94163">
        <ele>2554.84</ele>
        <time>2013-06-02T08:55:43Z</time>
      </trkpt>
      <trkpt lat="42.57043" lon="1.94164">
        <ele>2554.36</ele>
        <time>2013-06-02T08:55:57Z</time>
      </trkpt>
      <trkpt lat="42.57045" lon="1.94169">
        <ele>2553.4</ele>
        <time>2013-06-02T08:56:06Z</time>
      </trkpt>
      <trkpt lat="42.57048" lon="1.94177">
        <ele>2554.84</ele>
        <time>2013-06-02T08:56:09Z</time>
      </trkpt>
      <trkpt lat="42.57048" lon="1.94181">
        <ele>2554.36</ele>
        <time>2013-06-02T08:56:10Z</time>
      </trkpt>
      <trkpt lat="42.57047" lon="1.94183">
        <ele>2553.88</ele>
        <time>2013-06-02T08:56:11Z</time>
      </trkpt>
      <trkpt lat="42.57046" lon="1.94185">
        <ele>2554.36</ele>
        <time>2013-06-02T08:56:12Z</time>
      </trkpt>
      <trkpt lat="42.57047" lon="1.94188">
        <ele>2553.88</ele>
        <time>2013-06-02T08:56:13Z</time>
      </trkpt>
      <trkpt lat="42.57047" lon="1.9419">
        <ele>2553.4</ele>
        <time>2013-06-02T08:56:14Z</time>
      </trkpt>
      <trkpt lat="42.57044" lon="1.94188">
        <ele>2552.44</ele>
        <time>2013-06-02T08:56:27Z</time>
      </trkpt>
      <trkpt lat="42.57043" lon="1.94188">
        <ele>2556.76</ele>
        <time>2013-06-02T08:56:43Z</time>
      </trkpt>
      <trkpt lat="42.57047" lon="1.94191">
        <ele>2560.61</ele>
        <time>2013-06-02T08:57:02Z</time>
      </trkpt>
      <trkpt lat="42.57051" lon="1.94195">
        <ele>2559.17</ele>
        <time>2013-06-02T08:57:21Z</time>
      </trkpt>
      <trkpt lat="42.57053" lon="1.94198">
        <ele>2561.57</ele>
        <time>2013-06-02T08:57:48Z</time>
      </trkpt>
      <trkpt lat="42.57054" lon="1.94195">
        <ele>2558.69</ele>
        <time>2013-06-02T08:58:15Z</time>
      </trkpt>
      <trkpt lat="42.57049" lon="1.94194">
        <ele>2558.69</ele>
        <time>2013-06-02T08:58:41Z</time>
      </trkpt>
      <trkpt lat="42.57053" lon="1.94196">
        <ele>2542.34</ele>
        <time>2013-06-02T08:59:01Z</time>
      </trkpt>
      <trkpt lat="42.57052" lon="1.94195">
        <ele>2542.34</ele>
        <time>2013-06-02T08:59:15Z</time>
      </trkpt>
      <trkpt lat="42.57051" lon="1.94191">
        <ele>2539.94</ele>
        <time>2013-06-02T08:59:28Z</time>
      </trkpt>
      <trkpt lat="42.57047" lon="1.94188">
        <ele>2541.38</ele>
        <time>2013-06-02T08:59:40Z</time>
      </trkpt>
      <trkpt lat="42.57047" lon="1.94186">
        <ele>2554.84</ele>
        <time>2013-06-02T09:00:02Z</time>
      </trkpt>
      <trkpt lat="42.57046" lon="1.9419">
        <ele>2556.76</ele>
        <time>2013-06-02T09:00:10Z</time>
      </trkpt>
      <trkpt lat="42.57046" lon="1.94192">
        <ele>2557.24</ele>
        <time>2013-06-02T09:00:11Z</time>
      </trkpt>
      <trkpt lat="42.57048" lon="1.94195">
        <ele>2556.76</ele>
        <time>2013-06-02T09:00:12Z</time>
      </trkpt>
      <trkpt lat="42.5705" lon="1.94198">
        <ele>2556.76</ele>
        <time>2013-06-02T09:00:13Z</time>
      </trkpt>
      <trkpt lat="42.57052" lon="1.94202">
        <ele>2556.76</ele>
        <time>2013-06-02T09:00:14Z</time>
      </trkpt>
      <trkpt lat="42.57053" lon="1.94206">
        <ele>2555.8</ele>
        <time>2013-06-02T09:00:15Z</time>
      </trkpt>
      <trkpt lat="42.57057" lon="1.94219">
        <ele>2554.36</ele>
        <time>2013-06-02T09:00:18Z</time>
      </trkpt>
      <trkpt lat="42.57059" lon="1.94223">
        <ele>2553.88</ele>
        <time>2013-06-02T09:00:19Z</time>
      </trkpt>
      <trkpt lat="42.57061" lon="1.94227">
        <ele>2552.92</ele>
        <time>2013-06-02T09:00:20Z</time>
      </trkpt>
      <trkpt lat="42.57072" lon="1.9424">
        <ele>2546.19</ele>
        <time>2013-06-02T09:00:26Z</time>
      </trkpt>
      <trkpt lat="42.57074" lon="1.94245">
        <ele>2543.31</ele>
        <time>2013-06-02T09:00:28Z</time>
      </trkpt>
      <trkpt lat="42.57076" lon="1.94266">
        <ele>2529.37</ele>
        <time>2013-06-02T09:00:35Z</time>
      </trkpt>
      <trkpt lat="42.57081" lon="1.94274">
        <ele>2519.75</ele>
        <time>2013-06-02T09:00:40Z</time>
      </trkpt>
      <trkpt lat="42.57092" lon="1.94286">
        <ele>2507.74</ele>
        <time>2013-06-02T09:00:49Z</time>
      </trkpt>
      <trkpt lat="42.57106" lon="1.94295">
        <ele>2498.12</ele>
        <time>2013-06-02T09:00:56Z</time>
      </trkpt>
      <trkpt lat="42.57121" lon="1.94301">
        <ele>2489.47</ele>
        <time>2013-06-02T09:01:03Z</time>
      </trkpt>
      <trkpt lat="42.57124" lon="1.94303">
        <ele>2483.22</ele>
        <time>2013-06-02T09:01:10Z</time>
      </trkpt>
      <trkpt lat="42.57126" lon="1.94301">
        <ele>2473.61</ele>
        <time>2013-06-02T09:01:24Z</time>
      </trkpt>
      <trkpt lat="42.57118" lon="1.9431">
        <ele>2467.36</ele>
        <time>2013-06-02T09:01:29Z</time>
      </trkpt>
      <trkpt lat="42.57104" lon="1.94324">
        <ele>2463.04</ele>
        <time>2013-06-02T09:01:40Z</time>
      </trkpt>
      <trkpt lat="42.57095" lon="1.94337">
        <ele>2462.07</ele>
        <time>2013-06-02T09:01:49Z</time>
      </trkpt>
      <trkpt lat="42.5709" lon="1.94345">
        <ele>2461.59</ele>
        <time>2013-06-02T09:02:01Z</time>
      </trkpt>
      <trkpt lat="42.5709" lon="1.94344">
        <ele>2461.59</ele>
        <time>2013-06-02T09:02:05Z</time>
      </trkpt>
      <trkpt lat="42.57076" lon="1.94382">
        <ele>2460.63</ele>
        <time>2013-06-02T09:02:18Z</time>
      </trkpt>
      <trkpt lat="42.57074" lon="1.94385">
        <ele>2459.67</ele>
        <time>2013-06-02T09:02:19Z</time>
      </trkpt>
      <trkpt lat="42.57077" lon="1.94408">
        <ele>2459.19</ele>
        <time>2013-06-02T09:02:24Z</time>
      </trkpt>
      <trkpt lat="42.57077" lon="1.9443">
        <ele>2457.27</ele>
        <time>2013-06-02T09:02:28Z</time>
      </trkpt>
      <trkpt lat="42.57088" lon="1.94479">
        <ele>2456.79</ele>
        <time>2013-06-02T09:02:36Z</time>
      </trkpt>
      <trkpt lat="42.57091" lon="1.94485">
        <ele>2456.31</ele>
        <time>2013-06-02T09:02:37Z</time>
      </trkpt>
      <trkpt lat="42.57098" lon="1.94495">
        <ele>2454.38</ele>
        <time>2013-06-02T09:02:39Z</time>
      </trkpt>
      <trkpt lat="42.57109" lon="1.94546">
        <ele>2450.06</ele>
        <time>2013-06-02T09:02:47Z</time>
      </trkpt>
      <trkpt lat="42.57119" lon="1.94585">
        <ele>2445.25</ele>
        <time>2013-06-02T09:02:52Z</time>
      </trkpt>
      <trkpt lat="42.57121" lon="1.94599">
        <ele>2443.81</ele>
        <time>2013-06-02T09:02:54Z</time>
      </trkpt>
      <trkpt lat="42.5712" lon="1.94654">
        <ele>2437.56</ele>
        <time>2013-06-02T09:03:05Z</time>
      </trkpt>
      <trkpt lat="42.57119" lon="1.94663">
        <ele>2436.6</ele>
        <time>2013-06-02T09:03:07Z</time>
      </trkpt>
      <trkpt lat="42.57118" lon="1.94668">
        <ele>2436.6</ele>
        <time>2013-06-02T09:03:08Z</time>
      </trkpt>
      <trkpt lat="42.57118" lon="1.94673">
        <ele>2436.6</ele>
        <time>2013-06-02T09:03:09Z</time>
      </trkpt>
      <trkpt lat="42.57117" lon="1.94679">
        <ele>2436.12</ele>
        <time>2013-06-02T09:03:10Z</time>
      </trkpt>
      <trkpt lat="42.57118" lon="1.94685">
        <ele>2435.64</ele>
        <time>2013-06-02T09:03:11Z</time>
      </trkpt>
      <trkpt lat="42.57118" lon="1.94691">
        <ele>2435.16</ele>
        <time>2013-06-02T09:03:12Z</time>
      </trkpt>
      <trkpt lat="42.57119" lon="1.94697">
        <ele>2434.68</ele>
        <time>2013-06-02T09:03:13Z</time>
      </trkpt>
      <trkpt lat="42.57122" lon="1.94729">
        <ele>2429.87</ele>
        <time>2013-06-02T09:03:23Z</time>
      </trkpt>
      <trkpt lat="42.57122" lon="1.94763">
        <ele>2428.43</ele>
        <time>2013-06-02T09:03:32Z</time>
      </trkpt>
      <trkpt lat="42.57121" lon="1.94792">
        <ele>2426.99</ele>
        <time>2013-06-02T09:03:39Z</time>
      </trkpt>
      <trkpt lat="42.57118" lon="1.9485">
        <ele>2421.22</ele>
        <time>2013-06-02T09:03:50Z</time>
      </trkpt>
      <trkpt lat="42.57118" lon="1.94855">
        <ele>2421.22</ele>
        <time>2013-06-02T09:03:51Z</time>
      </trkpt>
      <trkpt lat="42.57118" lon="1.9486">
        <ele>2420.74</ele>
        <time>2013-06-02T09:03:52Z</time>
      </trkpt>
      <trkpt lat="42.57117" lon="1.94865">
        <ele>2420.26</ele>
        <time>2013-06-02T09:03:53Z</time>
      </trkpt>
      <trkpt lat="42.57117" lon="1.9487">
        <ele>2420.26</ele>
        <time>2013-06-02T09:03:54Z</time>
      </trkpt>
      <trkpt lat="42.57118" lon="1.94874">
        <ele>2420.74</ele>
        <time>2013-06-02T09:03:55Z</time>
      </trkpt>
      <trkpt lat="42.57117" lon="1.94877">
        <ele>2420.26</ele>
        <time>2013-06-02T09:03:56Z</time>
      </trkpt>
      <trkpt lat="42.57117" lon="1.9488">
        <ele>2420.26</ele>
        <time>2013-06-02T09:03:57Z</time>
      </trkpt>
      <trkpt lat="42.57117" lon="1.94883">
        <ele>2419.78</ele>
        <time>2013-06-02T09:03:58Z</time>
      </trkpt>
      <trkpt lat="42.57116" lon="1.94886">
        <ele>2419.78</ele>
        <time>2013-06-02T09:03:59Z</time>
      </trkpt>
      <trkpt lat="42.57116" lon="1.94888">
        <ele>2419.78</ele>
        <time>2013-06-02T09:04:00Z</time>
      </trkpt>
      <trkpt lat="42.57117" lon="1.94899">
        <ele>2419.3</ele>
        <time>2013-06-02T09:04:05Z</time>
      </trkpt>
      <trkpt lat="42.57109" lon="1.94918">
        <ele>2417.37</ele>
        <time>2013-06-02T09:04:13Z</time>
      </trkpt>
      <trkpt lat="42.57108" lon="1.94922">
        <ele>2417.37</ele>
        <time>2013-06-02T09:04:14Z</time>
      </trkpt>
      <trkpt lat="42.57091" lon="1.94989">
        <ele>2413.53</ele>
        <time>2013-06-02T09:04:26Z</time>
      </trkpt>
      <trkpt lat="42.57077" lon="1.95036">
        <ele>2409.2</ele>
        <time>2013-06-02T09:04:36Z</time>
      </trkpt>
      <trkpt lat="42.57075" lon="1.95046">
        <ele>2408.72</ele>
        <time>2013-06-02T09:04:39Z</time>
      </trkpt>
      <trkpt lat="42.57074" lon="1.95051">
        <ele>2408.24</ele>
        <time>2013-06-02T09:04:42Z</time>
      </trkpt>
      <trkpt lat="42.57072" lon="1.95058">
        <ele>2406.32</ele>
        <time>2013-06-02T09:04:46Z</time>
      </trkpt>
      <trkpt lat="42.57066" lon="1.95079">
        <ele>2404.39</ele>
        <time>2013-06-02T09:04:53Z</time>
      </trkpt>
      <trkpt lat="42.57069" lon="1.95097">
        <ele>2401.99</ele>
        <time>2013-06-02T09:04:56Z</time>
      </trkpt>
      <trkpt lat="42.57093" lon="1.95141">
        <ele>2390.94</ele>
        <time>2013-06-02T09:05:04Z</time>
      </trkpt>
      <trkpt lat="42.57094" lon="1.95158">
        <ele>2387.09</ele>
        <time>2013-06-02T09:05:07Z</time>
      </trkpt>
      <trkpt lat="42.57092" lon="1.95184">
        <ele>2382.28</ele>
        <time>2013-06-02T09:05:11Z</time>
      </trkpt>
      <trkpt lat="42.57096" lon="1.95219">
        <ele>2377</ele>
        <time>2013-06-02T09:05:18Z</time>
      </trkpt>
      <trkpt lat="42.57102" lon="1.95244">
        <ele>2375.55</ele>
        <time>2013-06-02T09:05:28Z</time>
      </trkpt>
      <trkpt lat="42.57102" lon="1.95247">
        <ele>2375.55</ele>
        <time>2013-06-02T09:05:29Z</time>
      </trkpt>
      <trkpt lat="42.57104" lon="1.95257">
        <ele>2375.07</ele>
        <time>2013-06-02T09:05:33Z</time>
      </trkpt>
      <trkpt lat="42.57105" lon="1.95266">
        <ele>2374.59</ele>
        <time>2013-06-02T09:05:37Z</time>
      </trkpt>
      <trkpt lat="42.57109" lon="1.95287">
        <ele>2374.59</ele>
        <time>2013-06-02T09:05:48Z</time>
      </trkpt>
      <trkpt lat="42.57115" lon="1.95309">
        <ele>2375.07</ele>
        <time>2013-06-02T09:06:02Z</time>
      </trkpt>
      <trkpt lat="42.57119" lon="1.95327">
        <ele>2376.52</ele>
        <time>2013-06-02T09:06:12Z</time>
      </trkpt>
      <trkpt lat="42.57119" lon="1.95329">
        <ele>2376.52</ele>
        <time>2013-06-02T09:06:13Z</time>
      </trkpt>
      <trkpt lat="42.57121" lon="1.95335">
        <ele>2376.04</ele>
        <time>2013-06-02T09:06:16Z</time>
      </trkpt>
      <trkpt lat="42.57123" lon="1.95356">
        <ele>2375.55</ele>
        <time>2013-06-02T09:06:27Z</time>
      </trkpt>
      <trkpt lat="42.57123" lon="1.95361">
        <ele>2374.11</ele>
        <time>2013-06-02T09:06:35Z</time>
      </trkpt>
      <trkpt lat="42.57123" lon="1.95366">
        <ele>2374.11</ele>
        <time>2013-06-02T09:06:38Z</time>
      </trkpt>
      <trkpt lat="42.57124" lon="1.95372">
        <ele>2374.11</ele>
        <time>2013-06-02T09:06:42Z</time>
      </trkpt>
      <trkpt lat="42.57127" lon="1.95387">
        <ele>2373.63</ele>
        <time>2013-06-02T09:06:53Z</time>
      </trkpt>
      <trkpt lat="42.57133" lon="1.95405">
        <ele>2374.59</ele>
        <time>2013-06-02T09:07:02Z</time>
      </trkpt>
      <trkpt lat="42.57146" lon="1.95455">
        <ele>2370.75</ele>
        <time>2013-06-02T09:07:18Z</time>
      </trkpt>
      <trkpt lat="42.57151" lon="1.95516">
        <ele>2365.94</ele>
        <time>2013-06-02T09:07:32Z</time>
      </trkpt>
      <trkpt lat="42.57154" lon="1.95558">
        <ele>2361.62</ele>
        <time>2013-06-02T09:07:43Z</time>
      </trkpt>
      <trkpt lat="42.57157" lon="1.95617">
        <ele>2353.44</ele>
        <time>2013-06-02T09:07:53Z</time>
      </trkpt>
      <trkpt lat="42.57159" lon="1.95634">
        <ele>2352.96</ele>
        <time>2013-06-02T09:07:58Z</time>
      </trkpt>
      <trkpt lat="42.57159" lon="1.95637">
        <ele>2352.96</ele>
        <time>2013-06-02T09:07:59Z</time>
      </trkpt>
      <trkpt lat="42.5716" lon="1.9564">
        <ele>2352.96</ele>
        <time>2013-06-02T09:08:00Z</time>
      </trkpt>
      <trkpt lat="42.5716" lon="1.95646">
        <ele>2352.96</ele>
        <time>2013-06-02T09:08:02Z</time>
      </trkpt>
      <trkpt lat="42.57159" lon="1.95652">
        <ele>2352.96</ele>
        <time>2013-06-02T09:08:04Z</time>
      </trkpt>
      <trkpt lat="42.57155" lon="1.95661">
        <ele>2352.48</ele>
        <time>2013-06-02T09:08:08Z</time>
      </trkpt>
      <trkpt lat="42.57155" lon="1.95664">
        <ele>2352</ele>
        <time>2013-06-02T09:08:09Z</time>
      </trkpt>
      <trkpt lat="42.57155" lon="1.95667">
        <ele>2352</ele>
        <time>2013-06-02T09:08:10Z</time>
      </trkpt>
      <trkpt lat="42.57155" lon="1.9567">
        <ele>2352</ele>
        <time>2013-06-02T09:08:11Z</time>
      </trkpt>
      <trkpt lat="42.57156" lon="1.95673">
        <ele>2352</ele>
        <time>2013-06-02T09:08:12Z</time>
      </trkpt>
      <trkpt lat="42.57156" lon="1.95676">
        <ele>2352</ele>
        <time>2013-06-02T09:08:13Z</time>
      </trkpt>
      <trkpt lat="42.57157" lon="1.95678">
        <ele>2351.52</ele>
        <time>2013-06-02T09:08:14Z</time>
      </trkpt>
      <trkpt lat="42.57158" lon="1.9568">
        <ele>2351.52</ele>
        <time>2013-06-02T09:08:15Z</time>
      </trkpt>
      <trkpt lat="42.57159" lon="1.95684">
        <ele>2351.52</ele>
        <time>2013-06-02T09:08:18Z</time>
      </trkpt>
      <trkpt lat="42.5716" lon="1.95689">
        <ele>2352.48</ele>
        <time>2013-06-02T09:08:30Z</time>
      </trkpt>
      <trkpt lat="42.5716" lon="1.95692">
        <ele>2353.44</ele>
        <time>2013-06-02T09:08:35Z</time>
      </trkpt>
      <trkpt lat="42.5716" lon="1.95697">
        <ele>2353.93</ele>
        <time>2013-06-02T09:08:48Z</time>
      </trkpt>
      <trkpt lat="42.57162" lon="1.95702">
        <ele>2352.96</ele>
        <time>2013-06-02T09:08:55Z</time>
      </trkpt>
      <trkpt lat="42.57163" lon="1.95703">
        <ele>2352.96</ele>
        <time>2013-06-02T09:08:56Z</time>
      </trkpt>
      <trkpt lat="42.57164" lon="1.95704">
        <ele>2353.44</ele>
        <time>2013-06-02T09:08:57Z</time>
      </trkpt>
      <trkpt lat="42.57165" lon="1.95705">
        <ele>2353.44</ele>
        <time>2013-06-02T09:08:58Z</time>
      </trkpt>
      <trkpt lat="42.57167" lon="1.95706">
        <ele>2353.44</ele>
        <time>2013-06-02T09:08:59Z</time>
      </trkpt>
      <trkpt lat="42.57169" lon="1.95707">
        <ele>2352.96</ele>
        <time>2013-06-02T09:09:00Z</time>
      </trkpt>
      <trkpt lat="42.57176" lon="1.95714">
        <ele>2352</ele>
        <time>2013-06-02T09:09:03Z</time>
      </trkpt>
      <trkpt lat="42.57179" lon="1.95718">
        <ele>2352</ele>
        <time>2013-06-02T09:09:07Z</time>
      </trkpt>
      <trkpt lat="42.57179" lon="1.95719">
        <ele>2352</ele>
        <time>2013-06-02T09:09:08Z</time>
      </trkpt>
      <trkpt lat="42.57182" lon="1.95728">
        <ele>2351.52</ele>
        <time>2013-06-02T09:09:18Z</time>
      </trkpt>
      <trkpt lat="42.57201" lon="1.95743">
        <ele>2350.08</ele>
        <time>2013-06-02T09:09:28Z</time>
      </trkpt>
      <trkpt lat="42.57222" lon="1.95763">
        <ele>2348.16</ele>
        <time>2013-06-02T09:09:39Z</time>
      </trkpt>
      <trkpt lat="42.57231" lon="1.95775">
        <ele>2348.16</ele>
        <time>2013-06-02T09:09:45Z</time>
      </trkpt>
      <trkpt lat="42.57246" lon="1.95811">
        <ele>2344.31</ele>
        <time>2013-06-02T09:09:57Z</time>
      </trkpt>
      <trkpt lat="42.57247" lon="1.95817">
        <ele>2343.83</ele>
        <time>2013-06-02T09:09:58Z</time>
      </trkpt>
      <trkpt lat="42.57247" lon="1.95822">
        <ele>2343.35</ele>
        <time>2013-06-02T09:09:59Z</time>
      </trkpt>
      <trkpt lat="42.57247" lon="1.95828">
        <ele>2342.39</ele>
        <time>2013-06-02T09:10:00Z</time>
      </trkpt>
      <trkpt lat="42.57248" lon="1.95834">
        <ele>2341.91</ele>
        <time>2013-06-02T09:10:01Z</time>
      </trkpt>
      <trkpt lat="42.57249" lon="1.9584">
        <ele>2341.43</ele>
        <time>2013-06-02T09:10:02Z</time>
      </trkpt>
      <trkpt lat="42.5725" lon="1.95845">
        <ele>2340.95</ele>
        <time>2013-06-02T09:10:03Z</time>
      </trkpt>
      <trkpt lat="42.57251" lon="1.95851">
        <ele>2340.95</ele>
        <time>2013-06-02T09:10:04Z</time>
      </trkpt>
      <trkpt lat="42.57253" lon="1.95856">
        <ele>2340.47</ele>
        <time>2013-06-02T09:10:05Z</time>
      </trkpt>
      <trkpt lat="42.57253" lon="1.95861">
        <ele>2339.99</ele>
        <time>2013-06-02T09:10:06Z</time>
      </trkpt>
      <trkpt lat="42.57252" lon="1.95867">
        <ele>2339.02</ele>
        <time>2013-06-02T09:10:07Z</time>
      </trkpt>
      <trkpt lat="42.57251" lon="1.95873">
        <ele>2338.54</ele>
        <time>2013-06-02T09:10:08Z</time>
      </trkpt>
      <trkpt lat="42.5725" lon="1.9588">
        <ele>2337.58</ele>
        <time>2013-06-02T09:10:09Z</time>
      </trkpt>
      <trkpt lat="42.57249" lon="1.95885">
        <ele>2336.62</ele>
        <time>2013-06-02T09:10:10Z</time>
      </trkpt>
      <trkpt lat="42.57249" lon="1.95891">
        <ele>2336.14</ele>
        <time>2013-06-02T09:10:11Z</time>
      </trkpt>
      <trkpt lat="42.5725" lon="1.95896">
        <ele>2335.66</ele>
        <time>2013-06-02T09:10:12Z</time>
      </trkpt>
      <trkpt lat="42.5725" lon="1.95902">
        <ele>2334.7</ele>
        <time>2013-06-02T09:10:13Z</time>
      </trkpt>
      <trkpt lat="42.57249" lon="1.95907">
        <ele>2334.22</ele>
        <time>2013-06-02T09:10:14Z</time>
      </trkpt>
      <trkpt lat="42.57248" lon="1.95912">
        <ele>2333.74</ele>
        <time>2013-06-02T09:10:15Z</time>
      </trkpt>
      <trkpt lat="42.57244" lon="1.95915">
        <ele>2332.78</ele>
        <time>2013-06-02T09:10:16Z</time>
      </trkpt>
      <trkpt lat="42.57241" lon="1.95919">
        <ele>2332.3</ele>
        <time>2013-06-02T09:10:17Z</time>
      </trkpt>
      <trkpt lat="42.57238" lon="1.95924">
        <ele>2331.33</ele>
        <time>2013-06-02T09:10:18Z</time>
      </trkpt>
      <trkpt lat="42.57236" lon="1.9593">
        <ele>2330.85</ele>
        <time>2013-06-02T09:10:19Z</time>
      </trkpt>
      <trkpt lat="42.57235" lon="1.95937">
        <ele>2329.89</ele>
        <time>2013-06-02T09:10:20Z</time>
      </trkpt>
      <trkpt lat="42.57234" lon="1.95945">
        <ele>2328.93</ele>
        <time>2013-06-02T09:10:21Z</time>
      </trkpt>
      <trkpt lat="42.57233" lon="1.95952">
        <ele>2327.97</ele>
        <time>2013-06-02T09:10:22Z</time>
      </trkpt>
      <trkpt lat="42.5723" lon="1.95956">
        <ele>2327.01</ele>
        <time>2013-06-02T09:10:23Z</time>
      </trkpt>
      <trkpt lat="42.57227" lon="1.95961">
        <ele>2326.05</ele>
        <time>2013-06-02T09:10:24Z</time>
      </trkpt>
      <trkpt lat="42.57224" lon="1.95966">
        <ele>2325.09</ele>
        <time>2013-06-02T09:10:25Z</time>
      </trkpt>
      <trkpt lat="42.57221" lon="1.95972">
        <ele>2323.64</ele>
        <time>2013-06-02T09:10:26Z</time>
      </trkpt>
      <trkpt lat="42.57218" lon="1.95978">
        <ele>2322.68</ele>
        <time>2013-06-02T09:10:27Z</time>
      </trkpt>
      <trkpt lat="42.57215" lon="1.95984">
        <ele>2321.24</ele>
        <time>2013-06-02T09:10:28Z</time>
      </trkpt>
      <trkpt lat="42.57211" lon="1.9599">
        <ele>2320.28</ele>
        <time>2013-06-02T09:10:29Z</time>
      </trkpt>
      <trkpt lat="42.57188" lon="1.96048">
        <ele>2310.19</ele>
        <time>2013-06-02T09:10:38Z</time>
      </trkpt>
      <trkpt lat="42.57187" lon="1.96055">
        <ele>2309.22</ele>
        <time>2013-06-02T09:10:39Z</time>
      </trkpt>
      <trkpt lat="42.57187" lon="1.96061">
        <ele>2308.74</ele>
        <time>2013-06-02T09:10:40Z</time>
      </trkpt>
      <trkpt lat="42.57188" lon="1.96066">
        <ele>2307.78</ele>
        <time>2013-06-02T09:10:41Z</time>
      </trkpt>
      <trkpt lat="42.57188" lon="1.9607">
        <ele>2307.3</ele>
        <time>2013-06-02T09:10:42Z</time>
      </trkpt>
      <trkpt lat="42.57194" lon="1.96106">
        <ele>2301.05</ele>
        <time>2013-06-02T09:10:51Z</time>
      </trkpt>
      <trkpt lat="42.57193" lon="1.9611">
        <ele>2300.09</ele>
        <time>2013-06-02T09:10:52Z</time>
      </trkpt>
      <trkpt lat="42.57191" lon="1.96115">
        <ele>2298.65</ele>
        <time>2013-06-02T09:10:53Z</time>
      </trkpt>
      <trkpt lat="42.5719" lon="1.96121">
        <ele>2297.69</ele>
        <time>2013-06-02T09:10:54Z</time>
      </trkpt>
      <trkpt lat="42.5719" lon="1.96129">
        <ele>2296.25</ele>
        <time>2013-06-02T09:10:55Z</time>
      </trkpt>
      <trkpt lat="42.5719" lon="1.96138">
        <ele>2294.8</ele>
        <time>2013-06-02T09:10:56Z</time>
      </trkpt>
      <trkpt lat="42.57191" lon="1.96147">
        <ele>2293.36</ele>
        <time>2013-06-02T09:10:57Z</time>
      </trkpt>
      <trkpt lat="42.57193" lon="1.96155">
        <ele>2291.92</ele>
        <time>2013-06-02T09:10:58Z</time>
      </trkpt>
      <trkpt lat="42.57199" lon="1.96183">
        <ele>2289.52</ele>
        <time>2013-06-02T09:11:05Z</time>
      </trkpt>
      <trkpt lat="42.57206" lon="1.96222">
        <ele>2288.08</ele>
        <time>2013-06-02T09:11:17Z</time>
      </trkpt>
      <trkpt lat="42.57224" lon="1.9628">
        <ele>2280.38</ele>
        <time>2013-06-02T09:11:29Z</time>
      </trkpt>
      <trkpt lat="42.57232" lon="1.96319">
        <ele>2277.5</ele>
        <time>2013-06-02T09:11:42Z</time>
      </trkpt>
      <trkpt lat="42.57237" lon="1.96335">
        <ele>2278.46</ele>
        <time>2013-06-02T09:11:48Z</time>
      </trkpt>
      <trkpt lat="42.57236" lon="1.96341">
        <ele>2278.94</ele>
        <time>2013-06-02T09:11:55Z</time>
      </trkpt>
      <trkpt lat="42.57234" lon="1.96352">
        <ele>2278.94</ele>
        <time>2013-06-02T09:12:06Z</time>
      </trkpt>
      <trkpt lat="42.57232" lon="1.9636">
        <ele>2279.42</ele>
        <time>2013-06-02T09:12:15Z</time>
      </trkpt>
      <trkpt lat="42.57233" lon="1.96371">
        <ele>2280.38</ele>
        <time>2013-06-02T09:12:26Z</time>
      </trkpt>
      <trkpt lat="42.57233" lon="1.96375">
        <ele>2280.38</ele>
        <time>2013-06-02T09:12:30Z</time>
      </trkpt>
      <trkpt lat="42.57234" lon="1.96377">
        <ele>2280.38</ele>
        <time>2013-06-02T09:12:31Z</time>
      </trkpt>
      <trkpt lat="42.57234" lon="1.96379">
        <ele>2279.9</ele>
        <time>2013-06-02T09:12:32Z</time>
      </trkpt>
      <trkpt lat="42.57234" lon="1.96381">
        <ele>2279.9</ele>
        <time>2013-06-02T09:12:33Z</time>
      </trkpt>
      <trkpt lat="42.57234" lon="1.96383">
        <ele>2279.9</ele>
        <time>2013-06-02T09:12:34Z</time>
      </trkpt>
      <trkpt lat="42.57235" lon="1.96386">
        <ele>2279.9</ele>
        <time>2013-06-02T09:12:35Z</time>
      </trkpt>
      <trkpt lat="42.57241" lon="1.9641">
        <ele>2277.98</ele>
        <time>2013-06-02T09:12:49Z</time>
      </trkpt>
      <trkpt lat="42.5724" lon="1.96408">
        <ele>2279.9</ele>
        <time>2013-06-02T09:13:08Z</time>
      </trkpt>
      <trkpt lat="42.57242" lon="1.9641">
        <ele>2280.38</ele>
        <time>2013-06-02T09:13:18Z</time>
      </trkpt>
      <trkpt lat="42.57242" lon="1.96411">
        <ele>2280.38</ele>
        <time>2013-06-02T09:13:19Z</time>
      </trkpt>
      <trkpt lat="42.57242" lon="1.96413">
        <ele>2280.38</ele>
        <time>2013-06-02T09:13:20Z</time>
      </trkpt>
      <trkpt lat="42.57243" lon="1.96416">
        <ele>2279.9</ele>
        <time>2013-06-02T09:13:21Z</time>
      </trkpt>
      <trkpt lat="42.57245" lon="1.9642">
        <ele>2278.94</ele>
        <time>2013-06-02T09:13:22Z</time>
      </trkpt>
      <trkpt lat="42.57247" lon="1.96422">
        <ele>2278.46</ele>
        <time>2013-06-02T09:13:23Z</time>
      </trkpt>
      <trkpt lat="42.57249" lon="1.96426">
        <ele>2277.5</ele>
        <time>2013-06-02T09:13:24Z</time>
      </trkpt>
      <trkpt lat="42.57279" lon="1.96479">
        <ele>2266.93</ele>
        <time>2013-06-02T09:13:35Z</time>
      </trkpt>
      <trkpt lat="42.57277" lon="1.96496">
        <ele>2264.52</ele>
        <time>2013-06-02T09:13:38Z</time>
      </trkpt>
      <trkpt lat="42.57276" lon="1.96503">
        <ele>2263.56</ele>
        <time>2013-06-02T09:13:39Z</time>
      </trkpt>
      <trkpt lat="42.5727" lon="1.96524">
        <ele>2259.72</ele>
        <time>2013-06-02T09:13:42Z</time>
      </trkpt>
      <trkpt lat="42.5727" lon="1.96532">
        <ele>2258.75</ele>
        <time>2013-06-02T09:13:43Z</time>
      </trkpt>
      <trkpt lat="42.57271" lon="1.9654">
        <ele>2257.31</ele>
        <time>2013-06-02T09:13:44Z</time>
      </trkpt>
      <trkpt lat="42.57272" lon="1.96548">
        <ele>2256.35</ele>
        <time>2013-06-02T09:13:45Z</time>
      </trkpt>
      <trkpt lat="42.57273" lon="1.96556">
        <ele>2254.91</ele>
        <time>2013-06-02T09:13:46Z</time>
      </trkpt>
      <trkpt lat="42.57274" lon="1.96587">
        <ele>2251.54</ele>
        <time>2013-06-02T09:13:54Z</time>
      </trkpt>
      <trkpt lat="42.5727" lon="1.96606">
        <ele>2248.18</ele>
        <time>2013-06-02T09:13:58Z</time>
      </trkpt>
      <trkpt lat="42.57271" lon="1.96609">
        <ele>2247.22</ele>
        <time>2013-06-02T09:13:59Z</time>
      </trkpt>
      <trkpt lat="42.57273" lon="1.96612">
        <ele>2246.26</ele>
        <time>2013-06-02T09:14:00Z</time>
      </trkpt>
      <trkpt lat="42.57276" lon="1.96615">
        <ele>2245.3</ele>
        <time>2013-06-02T09:14:01Z</time>
      </trkpt>
      <trkpt lat="42.5728" lon="1.96618">
        <ele>2244.82</ele>
        <time>2013-06-02T09:14:02Z</time>
      </trkpt>
      <trkpt lat="42.57304" lon="1.96639">
        <ele>2241.45</ele>
        <time>2013-06-02T09:14:07Z</time>
      </trkpt>
      <trkpt lat="42.57318" lon="1.96648">
        <ele>2239.53</ele>
        <time>2013-06-02T09:14:10Z</time>
      </trkpt>
      <trkpt lat="42.57322" lon="1.96652">
        <ele>2239.05</ele>
        <time>2013-06-02T09:14:11Z</time>
      </trkpt>
      <trkpt lat="42.57326" lon="1.96656">
        <ele>2238.57</ele>
        <time>2013-06-02T09:14:12Z</time>
      </trkpt>
      <trkpt lat="42.57329" lon="1.96661">
        <ele>2238.09</ele>
        <time>2013-06-02T09:14:13Z</time>
      </trkpt>
      <trkpt lat="42.57332" lon="1.96665">
        <ele>2237.61</ele>
        <time>2013-06-02T09:14:14Z</time>
      </trkpt>
      <trkpt lat="42.57334" lon="1.96671">
        <ele>2236.64</ele>
        <time>2013-06-02T09:14:15Z</time>
      </trkpt>
      <trkpt lat="42.57336" lon="1.96676">
        <ele>2236.16</ele>
        <time>2013-06-02T09:14:16Z</time>
      </trkpt>
      <trkpt lat="42.57337" lon="1.96681">
        <ele>2235.68</ele>
        <time>2013-06-02T09:14:17Z</time>
      </trkpt>
      <trkpt lat="42.57341" lon="1.9672">
        <ele>2233.28</ele>
        <time>2013-06-02T09:14:27Z</time>
      </trkpt>
      <trkpt lat="42.57341" lon="1.96721">
        <ele>2233.28</ele>
        <time>2013-06-02T09:14:28Z</time>
      </trkpt>
      <trkpt lat="42.57342" lon="1.96723">
        <ele>2233.28</ele>
        <time>2013-06-02T09:14:29Z</time>
      </trkpt>
      <trkpt lat="42.57342" lon="1.96725">
        <ele>2233.28</ele>
        <time>2013-06-02T09:14:30Z</time>
      </trkpt>
      <trkpt lat="42.57342" lon="1.96727">
        <ele>2233.28</ele>
        <time>2013-06-02T09:14:31Z</time>
      </trkpt>
      <trkpt lat="42.57342" lon="1.96729">
        <ele>2233.76</ele>
        <time>2013-06-02T09:14:32Z</time>
      </trkpt>
      <trkpt lat="42.57342" lon="1.96731">
        <ele>2233.76</ele>
        <time>2013-06-02T09:14:33Z</time>
      </trkpt>
      <trkpt lat="42.57341" lon="1.9674">
        <ele>2233.28</ele>
        <time>2013-06-02T09:14:37Z</time>
      </trkpt>
      <trkpt lat="42.57341" lon="1.96741">
        <ele>2233.28</ele>
        <time>2013-06-02T09:14:38Z</time>
      </trkpt>
      <trkpt lat="42.57342" lon="1.96743">
        <ele>2233.28</ele>
        <time>2013-06-02T09:14:39Z</time>
      </trkpt>
      <trkpt lat="42.57342" lon="1.96746">
        <ele>2233.28</ele>
        <time>2013-06-02T09:14:40Z</time>
      </trkpt>
      <trkpt lat="42.57341" lon="1.96748">
        <ele>2233.28</ele>
        <time>2013-06-02T09:14:41Z</time>
      </trkpt>
      <trkpt lat="42.57341" lon="1.96755">
        <ele>2232.8</ele>
        <time>2013-06-02T09:14:44Z</time>
      </trkpt>
      <trkpt lat="42.57341" lon="1.96757">
        <ele>2232.8</ele>
        <time>2013-06-02T09:14:45Z</time>
      </trkpt>
      <trkpt lat="42.57342" lon="1.96759">
        <ele>2232.8</ele>
        <time>2013-06-02T09:14:46Z</time>
      </trkpt>
      <trkpt lat="42.57342" lon="1.96761">
        <ele>2232.32</ele>
        <time>2013-06-02T09:14:47Z</time>
      </trkpt>
      <trkpt lat="42.57342" lon="1.96763">
        <ele>2232.32</ele>
        <time>2013-06-02T09:14:48Z</time>
      </trkpt>
      <trkpt lat="42.57341" lon="1.96765">
        <ele>2232.32</ele>
        <time>2013-06-02T09:14:49Z</time>
      </trkpt>
      <trkpt lat="42.57341" lon="1.96767">
        <ele>2232.32</ele>
        <time>2013-06-02T09:14:50Z</time>
      </trkpt>
      <trkpt lat="42.5734" lon="1.9677">
        <ele>2232.32</ele>
        <time>2013-06-02T09:14:51Z</time>
      </trkpt>
      <trkpt lat="42.57335" lon="1.96804">
        <ele>2229.43</ele>
        <time>2013-06-02T09:15:02Z</time>
      </trkpt>
      <trkpt lat="42.57333" lon="1.96809">
        <ele>2227.99</ele>
        <time>2013-06-02T09:15:05Z</time>
      </trkpt>
      <trkpt lat="42.57326" lon="1.96821">
        <ele>2226.55</ele>
        <time>2013-06-02T09:15:11Z</time>
      </trkpt>
      <trkpt lat="42.57319" lon="1.96843">
        <ele>2226.07</ele>
        <time>2013-06-02T09:15:18Z</time>
      </trkpt>
      <trkpt lat="42.57317" lon="1.96845">
        <ele>2226.07</ele>
        <time>2013-06-02T09:15:19Z</time>
      </trkpt>
      <trkpt lat="42.57316" lon="1.96846">
        <ele>2226.55</ele>
        <time>2013-06-02T09:15:20Z</time>
      </trkpt>
      <trkpt lat="42.57315" lon="1.96847">
        <ele>2226.55</ele>
        <time>2013-06-02T09:15:21Z</time>
      </trkpt>
      <trkpt lat="42.57314" lon="1.96848">
        <ele>2226.55</ele>
        <time>2013-06-02T09:15:22Z</time>
      </trkpt>
      <trkpt lat="42.57313" lon="1.9685">
        <ele>2226.07</ele>
        <time>2013-06-02T09:15:23Z</time>
      </trkpt>
      <trkpt lat="42.57312" lon="1.96852">
        <ele>2226.07</ele>
        <time>2013-06-02T09:15:24Z</time>
      </trkpt>
      <trkpt lat="42.57311" lon="1.96854">
        <ele>2225.59</ele>
        <time>2013-06-02T09:15:25Z</time>
      </trkpt>
      <trkpt lat="42.57309" lon="1.96859">
        <ele>2223.19</ele>
        <time>2013-06-02T09:15:38Z</time>
      </trkpt>
      <trkpt lat="42.57308" lon="1.9686">
        <ele>2222.71</ele>
        <time>2013-06-02T09:16:01Z</time>
      </trkpt>
      <trkpt lat="42.57307" lon="1.9686">
        <ele>2226.55</ele>
        <time>2013-06-02T09:16:30Z</time>
      </trkpt>
      <trkpt lat="42.57308" lon="1.96861">
        <ele>2226.55</ele>
        <time>2013-06-02T09:16:53Z</time>
      </trkpt>
      <trkpt lat="42.5731" lon="1.96862">
        <ele>2224.15</ele>
        <time>2013-06-02T09:17:18Z</time>
      </trkpt>
      <trkpt lat="42.57308" lon="1.9686">
        <ele>2223.19</ele>
        <time>2013-06-02T09:17:33Z</time>
      </trkpt>
      <trkpt lat="42.57306" lon="1.96862">
        <ele>2223.67</ele>
        <time>2013-06-02T09:17:52Z</time>
      </trkpt>
      <trkpt lat="42.57305" lon="1.96865">
        <ele>2223.67</ele>
        <time>2013-06-02T09:17:53Z</time>
      </trkpt>
      <trkpt lat="42.57305" lon="1.96867">
        <ele>2223.67</ele>
        <time>2013-06-02T09:17:54Z</time>
      </trkpt>
      <trkpt lat="42.57304" lon="1.96869">
        <ele>2223.19</ele>
        <time>2013-06-02T09:17:55Z</time>
      </trkpt>
      <trkpt lat="42.57303" lon="1.96872">
        <ele>2223.19</ele>
        <time>2013-06-02T09:17:56Z</time>
      </trkpt>
      <trkpt lat="42.57302" lon="1.96874">
        <ele>2223.19</ele>
        <time>2013-06-02T09:17:57Z</time>
      </trkpt>
      <trkpt lat="42.57302" lon="1.96876">
        <ele>2222.71</ele>
        <time>2013-06-02T09:17:58Z</time>
      </trkpt>
      <trkpt lat="42.57302" lon="1.96878">
        <ele>2222.71</ele>
        <time>2013-06-02T09:17:59Z</time>
      </trkpt>
      <trkpt lat="42.57305" lon="1.96885">
        <ele>2222.22</ele>
        <time>2013-06-02T09:18:04Z</time>
      </trkpt>
      <trkpt lat="42.57306" lon="1.96886">
        <ele>2222.22</ele>
        <time>2013-06-02T09:18:05Z</time>
      </trkpt>
      <trkpt lat="42.57306" lon="1.96888">
        <ele>2222.22</ele>
        <time>2013-06-02T09:18:06Z</time>
      </trkpt>
      <trkpt lat="42.57307" lon="1.9689">
        <ele>2221.74</ele>
        <time>2013-06-02T09:18:07Z</time>
      </trkpt>
      <trkpt lat="42.57308" lon="1.96892">
        <ele>2221.74</ele>
        <time>2013-06-02T09:18:08Z</time>
      </trkpt>
      <trkpt lat="42.57308" lon="1.96893">
        <ele>2221.74</ele>
        <time>2013-06-02T09:18:09Z</time>
      </trkpt>
      <trkpt lat="42.57309" lon="1.96894">
        <ele>2221.74</ele>
        <time>2013-06-02T09:18:10Z</time>
      </trkpt>
      <trkpt lat="42.57307" lon="1.96904">
        <ele>2222.71</ele>
        <time>2013-06-02T09:18:21Z</time>
      </trkpt>
      <trkpt lat="42.57302" lon="1.96912">
        <ele>2222.71</ele>
        <time>2013-06-02T09:18:30Z</time>
      </trkpt>
      <trkpt lat="42.57301" lon="1.96913">
        <ele>2222.71</ele>
        <time>2013-06-02T09:18:31Z</time>
      </trkpt>
      <trkpt lat="42.573" lon="1.96914">
        <ele>2222.71</ele>
        <time>2013-06-02T09:18:32Z</time>
      </trkpt>
      <trkpt lat="42.573" lon="1.96916">
        <ele>2222.71</ele>
        <time>2013-06-02T09:18:33Z</time>
      </trkpt>
      <trkpt lat="42.57299" lon="1.96917">
        <ele>2222.71</ele>
        <time>2013-06-02T09:18:34Z</time>
      </trkpt>
      <trkpt lat="42.57298" lon="1.96918">
        <ele>2223.19</ele>
        <time>2013-06-02T09:18:35Z</time>
      </trkpt>
      <trkpt lat="42.57297" lon="1.9692">
        <ele>2223.19</ele>
        <time>2013-06-02T09:18:36Z</time>
      </trkpt>
      <trkpt lat="42.57297" lon="1.96922">
        <ele>2223.19</ele>
        <time>2013-06-02T09:18:37Z</time>
      </trkpt>
      <trkpt lat="42.57296" lon="1.96924">
        <ele>2223.19</ele>
        <time>2013-06-02T09:18:38Z</time>
      </trkpt>
      <trkpt lat="42.57295" lon="1.96926">
        <ele>2223.19</ele>
        <time>2013-06-02T09:18:39Z</time>
      </trkpt>
      <trkpt lat="42.57294" lon="1.96928">
        <ele>2223.19</ele>
        <time>2013-06-02T09:18:40Z</time>
      </trkpt>
      <trkpt lat="42.57294" lon="1.9693">
        <ele>2223.19</ele>
        <time>2013-06-02T09:18:41Z</time>
      </trkpt>
      <trkpt lat="42.57293" lon="1.96932">
        <ele>2223.67</ele>
        <time>2013-06-02T09:18:42Z</time>
      </trkpt>
      <trkpt lat="42.57292" lon="1.96934">
        <ele>2224.15</ele>
        <time>2013-06-02T09:18:43Z</time>
      </trkpt>
      <trkpt lat="42.57291" lon="1.96936">
        <ele>2224.15</ele>
        <time>2013-06-02T09:18:44Z</time>
      </trkpt>
      <trkpt lat="42.57291" lon="1.96937">
        <ele>2224.63</ele>
        <time>2013-06-02T09:18:45Z</time>
      </trkpt>
      <trkpt lat="42.5729" lon="1.96939">
        <ele>2224.63</ele>
        <time>2013-06-02T09:18:46Z</time>
      </trkpt>
      <trkpt lat="42.57285" lon="1.96955">
        <ele>2226.55</ele>
        <time>2013-06-02T09:18:59Z</time>
      </trkpt>
      <trkpt lat="42.57283" lon="1.9696">
        <ele>2227.03</ele>
        <time>2013-06-02T09:19:07Z</time>
      </trkpt>
      <trkpt lat="42.57282" lon="1.96961">
        <ele>2227.03</ele>
        <time>2013-06-02T09:19:08Z</time>
      </trkpt>
      <trkpt lat="42.57281" lon="1.96966">
        <ele>2227.03</ele>
        <time>2013-06-02T09:19:12Z</time>
      </trkpt>
      <trkpt lat="42.5728" lon="1.96968">
        <ele>2227.03</ele>
        <time>2013-06-02T09:19:13Z</time>
      </trkpt>
      <trkpt lat="42.5728" lon="1.96969">
        <ele>2227.03</ele>
        <time>2013-06-02T09:19:14Z</time>
      </trkpt>
      <trkpt lat="42.5728" lon="1.96971">
        <ele>2227.03</ele>
        <time>2013-06-02T09:19:15Z</time>
      </trkpt>
      <trkpt lat="42.5728" lon="1.96973">
        <ele>2226.55</ele>
        <time>2013-06-02T09:19:16Z</time>
      </trkpt>
      <trkpt lat="42.5728" lon="1.96974">
        <ele>2226.55</ele>
        <time>2013-06-02T09:19:17Z</time>
      </trkpt>
      <trkpt lat="42.57279" lon="1.9698">
        <ele>2226.07</ele>
        <time>2013-06-02T09:19:22Z</time>
      </trkpt>
      <trkpt lat="42.57277" lon="1.96998">
        <ele>2226.07</ele>
        <time>2013-06-02T09:19:34Z</time>
      </trkpt>
      <trkpt lat="42.57277" lon="1.97">
        <ele>2225.59</ele>
        <time>2013-06-02T09:19:35Z</time>
      </trkpt>
      <trkpt lat="42.57277" lon="1.97002">
        <ele>2225.59</ele>
        <time>2013-06-02T09:19:36Z</time>
      </trkpt>
      <trkpt lat="42.57276" lon="1.97004">
        <ele>2225.11</ele>
        <time>2013-06-02T09:19:37Z</time>
      </trkpt>
      <trkpt lat="42.57276" lon="1.97007">
        <ele>2224.63</ele>
        <time>2013-06-02T09:19:38Z</time>
      </trkpt>
      <trkpt lat="42.57276" lon="1.97009">
        <ele>2224.63</ele>
        <time>2013-06-02T09:19:39Z</time>
      </trkpt>
      <trkpt lat="42.57276" lon="1.97012">
        <ele>2224.63</ele>
        <time>2013-06-02T09:19:40Z</time>
      </trkpt>
      <trkpt lat="42.57276" lon="1.97014">
        <ele>2224.63</ele>
        <time>2013-06-02T09:19:41Z</time>
      </trkpt>
      <trkpt lat="42.57277" lon="1.97022">
        <ele>2227.51</ele>
        <time>2013-06-02T09:19:54Z</time>
      </trkpt>
      <trkpt lat="42.57274" lon="1.97023">
        <ele>2228.47</ele>
        <time>2013-06-02T09:20:14Z</time>
      </trkpt>
      <trkpt lat="42.57275" lon="1.97022">
        <ele>2227.99</ele>
        <time>2013-06-02T09:20:35Z</time>
      </trkpt>
      <trkpt lat="42.57277" lon="1.97018">
        <ele>2225.11</ele>
        <time>2013-06-02T09:21:05Z</time>
      </trkpt>
      <trkpt lat="42.57276" lon="1.97019">
        <ele>2227.99</ele>
        <time>2013-06-02T09:21:38Z</time>
      </trkpt>
      <trkpt lat="42.57276" lon="1.97019">
        <ele>2227.03</ele>
        <time>2013-06-02T09:22:11Z</time>
      </trkpt>
      <trkpt lat="42.57274" lon="1.97021">
        <ele>2231.36</ele>
        <time>2013-06-02T09:22:35Z</time>
      </trkpt>
      <trkpt lat="42.57274" lon="1.97019">
        <ele>2229.92</ele>
        <time>2013-06-02T09:23:04Z</time>
      </trkpt>
      <trkpt lat="42.5727" lon="1.97029">
        <ele>2234.72</ele>
        <time>2013-06-02T09:23:27Z</time>
      </trkpt>
      <trkpt lat="42.57274" lon="1.97025">
        <ele>2234.72</ele>
        <time>2013-06-02T09:23:48Z</time>
      </trkpt>
      <trkpt lat="42.57273" lon="1.97024">
        <ele>2238.09</ele>
        <time>2013-06-02T09:24:22Z</time>
      </trkpt>
      <trkpt lat="42.57273" lon="1.97023">
        <ele>2234.24</ele>
        <time>2013-06-02T09:24:51Z</time>
      </trkpt>
      <trkpt lat="42.57276" lon="1.97018">
        <ele>2230.4</ele>
        <time>2013-06-02T09:25:30Z</time>
      </trkpt>
      <trkpt lat="42.57275" lon="1.97017">
        <ele>2231.84</ele>
        <time>2013-06-02T09:25:49Z</time>
      </trkpt>
      <trkpt lat="42.57275" lon="1.97018">
        <ele>2230.4</ele>
        <time>2013-06-02T09:26:06Z</time>
      </trkpt>
      <trkpt lat="42.57274" lon="1.97021">
        <ele>2230.4</ele>
        <time>2013-06-02T09:26:09Z</time>
      </trkpt>
      <trkpt lat="42.57273" lon="1.9704">
        <ele>2230.88</ele>
        <time>2013-06-02T09:26:20Z</time>
      </trkpt>
      <trkpt lat="42.57271" lon="1.97051">
        <ele>2230.88</ele>
        <time>2013-06-02T09:26:32Z</time>
      </trkpt>
      <trkpt lat="42.57272" lon="1.97057">
        <ele>2231.36</ele>
        <time>2013-06-02T09:26:38Z</time>
      </trkpt>
      <trkpt lat="42.57272" lon="1.97059">
        <ele>2231.36</ele>
        <time>2013-06-02T09:26:39Z</time>
      </trkpt>
      <trkpt lat="42.57274" lon="1.97074">
        <ele>2231.84</ele>
        <time>2013-06-02T09:26:52Z</time>
      </trkpt>
      <trkpt lat="42.57275" lon="1.97085">
        <ele>2233.28</ele>
        <time>2013-06-02T09:27:04Z</time>
      </trkpt>
      <trkpt lat="42.57272" lon="1.97089">
        <ele>2234.24</ele>
        <time>2013-06-02T09:27:08Z</time>
      </trkpt>
      <trkpt lat="42.57264" lon="1.97096">
        <ele>2234.72</ele>
        <time>2013-06-02T09:27:18Z</time>
      </trkpt>
      <trkpt lat="42.57263" lon="1.97098">
        <ele>2234.24</ele>
        <time>2013-06-02T09:27:20Z</time>
      </trkpt>
      <trkpt lat="42.5726" lon="1.97099">
        <ele>2234.24</ele>
        <time>2013-06-02T09:27:23Z</time>
      </trkpt>
      <trkpt lat="42.5725" lon="1.97108">
        <ele>2235.68</ele>
        <time>2013-06-02T09:27:35Z</time>
      </trkpt>
      <trkpt lat="42.57248" lon="1.97109">
        <ele>2235.68</ele>
        <time>2013-06-02T09:27:37Z</time>
      </trkpt>
      <trkpt lat="42.57235" lon="1.97112">
        <ele>2237.13</ele>
        <time>2013-06-02T09:27:49Z</time>
      </trkpt>
      <trkpt lat="42.57219" lon="1.97104">
        <ele>2237.13</ele>
        <time>2013-06-02T09:28:03Z</time>
      </trkpt>
      <trkpt lat="42.57202" lon="1.97094">
        <ele>2233.28</ele>
        <time>2013-06-02T09:28:14Z</time>
      </trkpt>
      <trkpt lat="42.57188" lon="1.97093">
        <ele>2235.2</ele>
        <time>2013-06-02T09:28:25Z</time>
      </trkpt>
      <trkpt lat="42.57172" lon="1.97091">
        <ele>2237.13</ele>
        <time>2013-06-02T09:28:39Z</time>
      </trkpt>
      <trkpt lat="42.57171" lon="1.97091">
        <ele>2237.13</ele>
        <time>2013-06-02T09:28:40Z</time>
      </trkpt>
      <trkpt lat="42.57159" lon="1.97093">
        <ele>2238.57</ele>
        <time>2013-06-02T09:28:52Z</time>
      </trkpt>
      <trkpt lat="42.57155" lon="1.97095">
        <ele>2238.09</ele>
        <time>2013-06-02T09:28:56Z</time>
      </trkpt>
      <trkpt lat="42.5715" lon="1.97096">
        <ele>2238.57</ele>
        <time>2013-06-02T09:29:00Z</time>
      </trkpt>
      <trkpt lat="42.57143" lon="1.971">
        <ele>2238.57</ele>
        <time>2013-06-02T09:29:06Z</time>
      </trkpt>
      <trkpt lat="42.57132" lon="1.97102">
        <ele>2239.05</ele>
        <time>2013-06-02T09:29:13Z</time>
      </trkpt>
      <trkpt lat="42.57126" lon="1.97104">
        <ele>2239.05</ele>
        <time>2013-06-02T09:29:17Z</time>
      </trkpt>
      <trkpt lat="42.57121" lon="1.97106">
        <ele>2239.05</ele>
        <time>2013-06-02T09:29:21Z</time>
      </trkpt>
      <trkpt lat="42.57119" lon="1.97107">
        <ele>2239.05</ele>
        <time>2013-06-02T09:29:23Z</time>
      </trkpt>
      <trkpt lat="42.57101" lon="1.97107">
        <ele>2237.13</ele>
        <time>2013-06-02T09:29:36Z</time>
      </trkpt>
      <trkpt lat="42.57085" lon="1.97107">
        <ele>2237.13</ele>
        <time>2013-06-02T09:29:48Z</time>
      </trkpt>
      <trkpt lat="42.5707" lon="1.97107">
        <ele>2236.16</ele>
        <time>2013-06-02T09:29:59Z</time>
      </trkpt>
      <trkpt lat="42.57057" lon="1.97106">
        <ele>2236.16</ele>
        <time>2013-06-02T09:30:10Z</time>
      </trkpt>
      <trkpt lat="42.57043" lon="1.97106">
        <ele>2235.2</ele>
        <time>2013-06-02T09:30:22Z</time>
      </trkpt>
      <trkpt lat="42.57028" lon="1.97108">
        <ele>2234.24</ele>
        <time>2013-06-02T09:30:34Z</time>
      </trkpt>
      <trkpt lat="42.57025" lon="1.97108">
        <ele>2234.72</ele>
        <time>2013-06-02T09:30:36Z</time>
      </trkpt>
      <trkpt lat="42.57019" lon="1.97109">
        <ele>2234.72</ele>
        <time>2013-06-02T09:30:40Z</time>
      </trkpt>
      <trkpt lat="42.56999" lon="1.97114">
        <ele>2233.28</ele>
        <time>2013-06-02T09:30:54Z</time>
      </trkpt>
      <trkpt lat="42.56988" lon="1.97127">
        <ele>2231.36</ele>
        <time>2013-06-02T09:31:03Z</time>
      </trkpt>
      <trkpt lat="42.56987" lon="1.97128">
        <ele>2230.88</ele>
        <time>2013-06-02T09:31:04Z</time>
      </trkpt>
      <trkpt lat="42.56985" lon="1.97129">
        <ele>2230.88</ele>
        <time>2013-06-02T09:31:05Z</time>
      </trkpt>
      <trkpt lat="42.56984" lon="1.97131">
        <ele>2230.4</ele>
        <time>2013-06-02T09:31:06Z</time>
      </trkpt>
      <trkpt lat="42.56982" lon="1.97132">
        <ele>2230.4</ele>
        <time>2013-06-02T09:31:07Z</time>
      </trkpt>
      <trkpt lat="42.5698" lon="1.97134">
        <ele>2229.92</ele>
        <time>2013-06-02T09:31:08Z</time>
      </trkpt>
      <trkpt lat="42.56978" lon="1.97135">
        <ele>2229.92</ele>
        <time>2013-06-02T09:31:09Z</time>
      </trkpt>
      <trkpt lat="42.56977" lon="1.97137">
        <ele>2229.43</ele>
        <time>2013-06-02T09:31:10Z</time>
      </trkpt>
      <trkpt lat="42.56958" lon="1.97157">
        <ele>2225.59</ele>
        <time>2013-06-02T09:31:22Z</time>
      </trkpt>
      <trkpt lat="42.56935" lon="1.9718">
        <ele>2220.78</ele>
        <time>2013-06-02T09:31:37Z</time>
      </trkpt>
      <trkpt lat="42.56934" lon="1.97181">
        <ele>2220.3</ele>
        <time>2013-06-02T09:31:38Z</time>
      </trkpt>
      <trkpt lat="42.56914" lon="1.97191">
        <ele>2216.94</ele>
        <time>2013-06-02T09:31:52Z</time>
      </trkpt>
      <trkpt lat="42.56899" lon="1.97199">
        <ele>2215.01</ele>
        <time>2013-06-02T09:32:03Z</time>
      </trkpt>
      <trkpt lat="42.56878" lon="1.97207">
        <ele>2213.57</ele>
        <time>2013-06-02T09:32:15Z</time>
      </trkpt>
      <trkpt lat="42.5686" lon="1.97216">
        <ele>2211.65</ele>
        <time>2013-06-02T09:32:26Z</time>
      </trkpt>
      <trkpt lat="42.56846" lon="1.97226">
        <ele>2208.29</ele>
        <time>2013-06-02T09:32:36Z</time>
      </trkpt>
      <trkpt lat="42.56825" lon="1.9724">
        <ele>2205.88</ele>
        <time>2013-06-02T09:32:50Z</time>
      </trkpt>
      <trkpt lat="42.56805" lon="1.97255">
        <ele>2203</ele>
        <time>2013-06-02T09:33:02Z</time>
      </trkpt>
      <trkpt lat="42.56786" lon="1.97269">
        <ele>2201.56</ele>
        <time>2013-06-02T09:33:15Z</time>
      </trkpt>
      <trkpt lat="42.5677" lon="1.97285">
        <ele>2199.63</ele>
        <time>2013-06-02T09:33:28Z</time>
      </trkpt>
      <trkpt lat="42.56751" lon="1.97301">
        <ele>2197.71</ele>
        <time>2013-06-02T09:33:43Z</time>
      </trkpt>
      <trkpt lat="42.56733" lon="1.97309">
        <ele>2198.19</ele>
        <time>2013-06-02T09:33:58Z</time>
      </trkpt>
      <trkpt lat="42.56717" lon="1.9732">
        <ele>2196.75</ele>
        <time>2013-06-02T09:34:10Z</time>
      </trkpt>
      <trkpt lat="42.56698" lon="1.97325">
        <ele>2196.75</ele>
        <time>2013-06-02T09:34:23Z</time>
      </trkpt>
      <trkpt lat="42.5668" lon="1.97331">
        <ele>2195.31</ele>
        <time>2013-06-02T09:34:35Z</time>
      </trkpt>
      <trkpt lat="42.56658" lon="1.97339">
        <ele>2194.35</ele>
        <time>2013-06-02T09:34:49Z</time>
      </trkpt>
      <trkpt lat="42.56636" lon="1.97349">
        <ele>2192.42</ele>
        <time>2013-06-02T09:35:04Z</time>
      </trkpt>
      <trkpt lat="42.56615" lon="1.97358">
        <ele>2190.98</ele>
        <time>2013-06-02T09:35:19Z</time>
      </trkpt>
      <trkpt lat="42.56601" lon="1.97361">
        <ele>2190.5</ele>
        <time>2013-06-02T09:35:32Z</time>
      </trkpt>
      <trkpt lat="42.56601" lon="1.9736">
        <ele>2190.5</ele>
        <time>2013-06-02T09:35:53Z</time>
      </trkpt>
      <trkpt lat="42.566" lon="1.97361">
        <ele>2190.5</ele>
        <time>2013-06-02T09:36:12Z</time>
      </trkpt>
      <trkpt lat="42.566" lon="1.97362">
        <ele>2190.02</ele>
        <time>2013-06-02T09:36:39Z</time>
      </trkpt>
      <trkpt lat="42.56598" lon="1.97361">
        <ele>2190.5</ele>
        <time>2013-06-02T09:37:04Z</time>
      </trkpt>
      <trkpt lat="42.56599" lon="1.97361">
        <ele>2190.02</ele>
        <time>2013-06-02T09:37:39Z</time>
      </trkpt>
      <trkpt lat="42.56599" lon="1.97363">
        <ele>2190.98</ele>
        <time>2013-06-02T09:38:10Z</time>
      </trkpt>
      <trkpt lat="42.56598" lon="1.97363">
        <ele>2190.5</ele>
        <time>2013-06-02T09:38:37Z</time>
      </trkpt>
      <trkpt lat="42.56598" lon="1.97363">
        <ele>2190.98</ele>
        <time>2013-06-02T09:39:02Z</time>
      </trkpt>
      <trkpt lat="42.56598" lon="1.97363">
        <ele>2190.02</ele>
        <time>2013-06-02T09:39:27Z</time>
      </trkpt>
      <trkpt lat="42.56598" lon="1.97363">
        <ele>2188.1</ele>
        <time>2013-06-02T09:39:53Z</time>
      </trkpt>
      <trkpt lat="42.56597" lon="1.97363">
        <ele>2188.1</ele>
        <time>2013-06-02T09:40:09Z</time>
      </trkpt>
      <trkpt lat="42.56592" lon="1.9736">
        <ele>2188.58</ele>
        <time>2013-06-02T09:40:14Z</time>
      </trkpt>
      <trkpt lat="42.56583" lon="1.97366">
        <ele>2188.58</ele>
        <time>2013-06-02T09:40:21Z</time>
      </trkpt>
      <trkpt lat="42.56566" lon="1.9737">
        <ele>2188.58</ele>
        <time>2013-06-02T09:40:33Z</time>
      </trkpt>
      <trkpt lat="42.56562" lon="1.9737">
        <ele>2189.06</ele>
        <time>2013-06-02T09:40:36Z</time>
      </trkpt>
      <trkpt lat="42.56546" lon="1.9737">
        <ele>2190.5</ele>
        <time>2013-06-02T09:40:49Z</time>
      </trkpt>
      <trkpt lat="42.56537" lon="1.97375">
        <ele>2190.02</ele>
        <time>2013-06-02T09:40:55Z</time>
      </trkpt>
      <trkpt lat="42.56528" lon="1.97373">
        <ele>2190.5</ele>
        <time>2013-06-02T09:41:04Z</time>
      </trkpt>
      <trkpt lat="42.56525" lon="1.97372">
        <ele>2190.5</ele>
        <time>2013-06-02T09:41:07Z</time>
      </trkpt>
      <trkpt lat="42.56522" lon="1.97372">
        <ele>2190.5</ele>
        <time>2013-06-02T09:41:10Z</time>
      </trkpt>
      <trkpt lat="42.56519" lon="1.97374">
        <ele>2190.5</ele>
        <time>2013-06-02T09:41:13Z</time>
      </trkpt>
      <trkpt lat="42.56514" lon="1.9738">
        <ele>2189.54</ele>
        <time>2013-06-02T09:41:18Z</time>
      </trkpt>
      <trkpt lat="42.56512" lon="1.97386">
        <ele>2188.58</ele>
        <time>2013-06-02T09:41:22Z</time>
      </trkpt>
      <trkpt lat="42.56502" lon="1.97408">
        <ele>2185.21</ele>
        <time>2013-06-02T09:41:36Z</time>
      </trkpt>
      <trkpt lat="42.56487" lon="1.9742">
        <ele>2183.77</ele>
        <time>2013-06-02T09:41:49Z</time>
      </trkpt>
      <trkpt lat="42.56486" lon="1.97421">
        <ele>2183.77</ele>
        <time>2013-06-02T09:41:52Z</time>
      </trkpt>
      <trkpt lat="42.56485" lon="1.97429">
        <ele>2182.33</ele>
        <time>2013-06-02T09:41:55Z</time>
      </trkpt>
      <trkpt lat="42.5649" lon="1.9744">
        <ele>2178.48</ele>
        <time>2013-06-02T09:42:00Z</time>
      </trkpt>
      <trkpt lat="42.56491" lon="1.97442">
        <ele>2178</ele>
        <time>2013-06-02T09:42:01Z</time>
      </trkpt>
      <trkpt lat="42.56493" lon="1.97445">
        <ele>2177.04</ele>
        <time>2013-06-02T09:42:02Z</time>
      </trkpt>
      <trkpt lat="42.56494" lon="1.97447">
        <ele>2176.56</ele>
        <time>2013-06-02T09:42:03Z</time>
      </trkpt>
      <trkpt lat="42.56506" lon="1.97482">
        <ele>2169.83</ele>
        <time>2013-06-02T09:42:16Z</time>
      </trkpt>
      <trkpt lat="42.56516" lon="1.97513">
        <ele>2165.51</ele>
        <time>2013-06-02T09:42:24Z</time>
      </trkpt>
      <trkpt lat="42.56521" lon="1.97522">
        <ele>2165.51</ele>
        <time>2013-06-02T09:42:31Z</time>
      </trkpt>
      <trkpt lat="42.56522" lon="1.97524">
        <ele>2165.51</ele>
        <time>2013-06-02T09:42:32Z</time>
      </trkpt>
      <trkpt lat="42.56522" lon="1.97525">
        <ele>2165.51</ele>
        <time>2013-06-02T09:42:33Z</time>
      </trkpt>
      <trkpt lat="42.56523" lon="1.97527">
        <ele>2165.51</ele>
        <time>2013-06-02T09:42:34Z</time>
      </trkpt>
      <trkpt lat="42.56524" lon="1.97529">
        <ele>2165.51</ele>
        <time>2013-06-02T09:42:35Z</time>
      </trkpt>
      <trkpt lat="42.56524" lon="1.9753">
        <ele>2165.51</ele>
        <time>2013-06-02T09:42:36Z</time>
      </trkpt>
      <trkpt lat="42.56525" lon="1.97531">
        <ele>2165.99</ele>
        <time>2013-06-02T09:42:37Z</time>
      </trkpt>
      <trkpt lat="42.56525" lon="1.97533">
        <ele>2165.99</ele>
        <time>2013-06-02T09:42:38Z</time>
      </trkpt>
      <trkpt lat="42.56526" lon="1.97535">
        <ele>2165.99</ele>
        <time>2013-06-02T09:42:40Z</time>
      </trkpt>
      <trkpt lat="42.56528" lon="1.9755">
        <ele>2171.27</ele>
        <time>2013-06-02T09:42:53Z</time>
      </trkpt>
      <trkpt lat="42.5653" lon="1.97561">
        <ele>2173.68</ele>
        <time>2013-06-02T09:43:04Z</time>
      </trkpt>
      <trkpt lat="42.56533" lon="1.97572">
        <ele>2175.12</ele>
        <time>2013-06-02T09:43:17Z</time>
      </trkpt>
      <trkpt lat="42.56535" lon="1.97581">
        <ele>2176.08</ele>
        <time>2013-06-02T09:43:24Z</time>
      </trkpt>
      <trkpt lat="42.56537" lon="1.97592">
        <ele>2175.6</ele>
        <time>2013-06-02T09:43:31Z</time>
      </trkpt>
      <trkpt lat="42.56541" lon="1.97602">
        <ele>2176.08</ele>
        <time>2013-06-02T09:43:39Z</time>
      </trkpt>
      <trkpt lat="42.56543" lon="1.97609">
        <ele>2176.08</ele>
        <time>2013-06-02T09:43:48Z</time>
      </trkpt>
      <trkpt lat="42.56547" lon="1.97625">
        <ele>2175.12</ele>
        <time>2013-06-02T09:44:01Z</time>
      </trkpt>
      <trkpt lat="42.56547" lon="1.97627">
        <ele>2174.64</ele>
        <time>2013-06-02T09:44:02Z</time>
      </trkpt>
      <trkpt lat="42.56548" lon="1.9763">
        <ele>2175.12</ele>
        <time>2013-06-02T09:44:04Z</time>
      </trkpt>
      <trkpt lat="42.56547" lon="1.97642">
        <ele>2177.52</ele>
        <time>2013-06-02T09:44:17Z</time>
      </trkpt>
      <trkpt lat="42.56538" lon="1.97651">
        <ele>2174.16</ele>
        <time>2013-06-02T09:44:30Z</time>
      </trkpt>
      <trkpt lat="42.56537" lon="1.97653">
        <ele>2173.68</ele>
        <time>2013-06-02T09:44:32Z</time>
      </trkpt>
      <trkpt lat="42.56534" lon="1.97656">
        <ele>2173.2</ele>
        <time>2013-06-02T09:44:35Z</time>
      </trkpt>
      <trkpt lat="42.56529" lon="1.97672">
        <ele>2172.72</ele>
        <time>2013-06-02T09:44:47Z</time>
      </trkpt>
      <trkpt lat="42.56525" lon="1.97691">
        <ele>2172.24</ele>
        <time>2013-06-02T09:44:59Z</time>
      </trkpt>
      <trkpt lat="42.5652" lon="1.97705">
        <ele>2170.79</ele>
        <time>2013-06-02T09:45:11Z</time>
      </trkpt>
      <trkpt lat="42.56519" lon="1.97716">
        <ele>2169.83</ele>
        <time>2013-06-02T09:45:22Z</time>
      </trkpt>
      <trkpt lat="42.56521" lon="1.97725">
        <ele>2169.35</ele>
        <time>2013-06-02T09:45:33Z</time>
      </trkpt>
      <trkpt lat="42.56521" lon="1.97727">
        <ele>2170.79</ele>
        <time>2013-06-02T09:45:47Z</time>
      </trkpt>
      <trkpt lat="42.56526" lon="1.97724">
        <ele>2171.76</ele>
        <time>2013-06-02T09:46:15Z</time>
      </trkpt>
      <trkpt lat="42.56526" lon="1.97725">
        <ele>2176.08</ele>
        <time>2013-06-02T09:46:47Z</time>
      </trkpt>
      <trkpt lat="42.56523" lon="1.97727">
        <ele>2175.6</ele>
        <time>2013-06-02T09:47:13Z</time>
      </trkpt>
      <trkpt lat="42.56524" lon="1.97726">
        <ele>2177.52</ele>
        <time>2013-06-02T09:47:35Z</time>
      </trkpt>
      <trkpt lat="42.56524" lon="1.97725">
        <ele>2178.48</ele>
        <time>2013-06-02T09:47:58Z</time>
      </trkpt>
      <trkpt lat="42.56522" lon="1.97725">
        <ele>2178</ele>
        <time>2013-06-02T09:48:26Z</time>
      </trkpt>
      <trkpt lat="42.56523" lon="1.97725">
        <ele>2178</ele>
        <time>2013-06-02T09:49:02Z</time>
      </trkpt>
      <trkpt lat="42.5652" lon="1.97726">
        <ele>2178</ele>
        <time>2013-06-02T09:49:21Z</time>
      </trkpt>
      <trkpt lat="42.56518" lon="1.97727">
        <ele>2177.52</ele>
        <time>2013-06-02T09:49:45Z</time>
      </trkpt>
      <trkpt lat="42.56516" lon="1.97727">
        <ele>2179.45</ele>
        <time>2013-06-02T09:50:19Z</time>
      </trkpt>
      <trkpt lat="42.56518" lon="1.97725">
        <ele>2179.93</ele>
        <time>2013-06-02T09:50:48Z</time>
      </trkpt>
      <trkpt lat="42.56514" lon="1.97725">
        <ele>2183.77</ele>
        <time>2013-06-02T09:51:20Z</time>
      </trkpt>
      <trkpt lat="42.56516" lon="1.97723">
        <ele>2187.62</ele>
        <time>2013-06-02T09:51:56Z</time>
      </trkpt>
      <trkpt lat="42.56515" lon="1.97726">
        <ele>2184.73</ele>
        <time>2013-06-02T09:52:28Z</time>
      </trkpt>
      <trkpt lat="42.56517" lon="1.97726">
        <ele>2181.85</ele>
        <time>2013-06-02T09:52:59Z</time>
      </trkpt>
      <trkpt lat="42.56516" lon="1.97726">
        <ele>2184.73</ele>
        <time>2013-06-02T09:53:39Z</time>
      </trkpt>
      <trkpt lat="42.56516" lon="1.97725">
        <ele>2187.62</ele>
        <time>2013-06-02T09:54:15Z</time>
      </trkpt>
      <trkpt lat="42.56519" lon="1.97725">
        <ele>2185.21</ele>
        <time>2013-06-02T09:55:00Z</time>
      </trkpt>
      <trkpt lat="42.56517" lon="1.97726">
        <ele>2185.21</ele>
        <time>2013-06-02T09:55:38Z</time>
      </trkpt>
      <trkpt lat="42.56521" lon="1.97727">
        <ele>2179.45</ele>
        <time>2013-06-02T09:56:18Z</time>
      </trkpt>
      <trkpt lat="42.56524" lon="1.97728">
        <ele>2178.97</ele>
        <time>2013-06-02T09:56:59Z</time>
      </trkpt>
      <trkpt lat="42.5652" lon="1.97726">
        <ele>2177.04</ele>
        <time>2013-06-02T09:57:47Z</time>
      </trkpt>
      <trkpt lat="42.56519" lon="1.97728">
        <ele>2176.56</ele>
        <time>2013-06-02T09:58:36Z</time>
      </trkpt>
      <trkpt lat="42.56517" lon="1.97727">
        <ele>2177.52</ele>
        <time>2013-06-02T09:59:20Z</time>
      </trkpt>
      <trkpt lat="42.56518" lon="1.97727">
        <ele>2176.08</ele>
        <time>2013-06-02T10:00:07Z</time>
      </trkpt>
      <trkpt lat="42.56517" lon="1.97728">
        <ele>2177.52</ele>
        <time>2013-06-02T10:00:56Z</time>
      </trkpt>
      <trkpt lat="42.56516" lon="1.97727">
        <ele>2178.48</ele>
        <time>2013-06-02T10:01:37Z</time>
      </trkpt>
      <trkpt lat="42.56516" lon="1.97726">
        <ele>2177.52</ele>
        <time>2013-06-02T10:01:58Z</time>
      </trkpt>
      <trkpt lat="42.56518" lon="1.97726">
        <ele>2177.52</ele>
        <time>2013-06-02T10:02:07Z</time>
      </trkpt>
      <trkpt lat="42.56517" lon="1.97728">
        <ele>2174.16</ele>
        <time>2013-06-02T10:02:25Z</time>
      </trkpt>
      <trkpt lat="42.56516" lon="1.97731">
        <ele>2172.72</ele>
        <time>2013-06-02T10:02:28Z</time>
      </trkpt>
      <trkpt lat="42.56504" lon="1.97748">
        <ele>2166.95</ele>
        <time>2013-06-02T10:02:42Z</time>
      </trkpt>
      <trkpt lat="42.56499" lon="1.97751">
        <ele>2165.51</ele>
        <time>2013-06-02T10:02:47Z</time>
      </trkpt>
      <trkpt lat="42.56496" lon="1.97752">
        <ele>2165.03</ele>
        <time>2013-06-02T10:02:50Z</time>
      </trkpt>
      <trkpt lat="42.56488" lon="1.97757">
        <ele>2163.1</ele>
        <time>2013-06-02T10:03:04Z</time>
      </trkpt>
      <trkpt lat="42.56483" lon="1.97757">
        <ele>2162.14</ele>
        <time>2013-06-02T10:03:21Z</time>
      </trkpt>
      <trkpt lat="42.56475" lon="1.97759">
        <ele>2162.62</ele>
        <time>2013-06-02T10:03:28Z</time>
      </trkpt>
      <trkpt lat="42.5647" lon="1.97762">
        <ele>2164.55</ele>
        <time>2013-06-02T10:03:32Z</time>
      </trkpt>
      <trkpt lat="42.56461" lon="1.97776">
        <ele>2165.99</ele>
        <time>2013-06-02T10:03:42Z</time>
      </trkpt>
      <trkpt lat="42.56467" lon="1.97798">
        <ele>2167.43</ele>
        <time>2013-06-02T10:03:59Z</time>
      </trkpt>
      <trkpt lat="42.56467" lon="1.978">
        <ele>2167.43</ele>
        <time>2013-06-02T10:04:01Z</time>
      </trkpt>
      <trkpt lat="42.56464" lon="1.97802">
        <ele>2168.87</ele>
        <time>2013-06-02T10:04:04Z</time>
      </trkpt>
      <trkpt lat="42.56459" lon="1.97807">
        <ele>2172.24</ele>
        <time>2013-06-02T10:04:15Z</time>
      </trkpt>
      <trkpt lat="42.5646" lon="1.97813">
        <ele>2173.2</ele>
        <time>2013-06-02T10:04:21Z</time>
      </trkpt>
      <trkpt lat="42.56469" lon="1.97836">
        <ele>2172.24</ele>
        <time>2013-06-02T10:04:35Z</time>
      </trkpt>
      <trkpt lat="42.56469" lon="1.97838">
        <ele>2171.76</ele>
        <time>2013-06-02T10:04:36Z</time>
      </trkpt>
      <trkpt lat="42.5647" lon="1.9784">
        <ele>2171.76</ele>
        <time>2013-06-02T10:04:37Z</time>
      </trkpt>
      <trkpt lat="42.56471" lon="1.97842">
        <ele>2171.27</ele>
        <time>2013-06-02T10:04:38Z</time>
      </trkpt>
      <trkpt lat="42.56472" lon="1.97844">
        <ele>2171.27</ele>
        <time>2013-06-02T10:04:39Z</time>
      </trkpt>
      <trkpt lat="42.56472" lon="1.97845">
        <ele>2170.79</ele>
        <time>2013-06-02T10:04:40Z</time>
      </trkpt>
      <trkpt lat="42.56472" lon="1.97847">
        <ele>2170.79</ele>
        <time>2013-06-02T10:04:41Z</time>
      </trkpt>
      <trkpt lat="42.56472" lon="1.97849">
        <ele>2170.79</ele>
        <time>2013-06-02T10:04:42Z</time>
      </trkpt>
      <trkpt lat="42.56472" lon="1.9785">
        <ele>2170.31</ele>
        <time>2013-06-02T10:04:43Z</time>
      </trkpt>
      <trkpt lat="42.56476" lon="1.97864">
        <ele>2169.83</ele>
        <time>2013-06-02T10:04:51Z</time>
      </trkpt>
      <trkpt lat="42.56481" lon="1.9788">
        <ele>2169.35</ele>
        <time>2013-06-02T10:05:03Z</time>
      </trkpt>
      <trkpt lat="42.56479" lon="1.97891">
        <ele>2168.87</ele>
        <time>2013-06-02T10:05:15Z</time>
      </trkpt>
      <trkpt lat="42.5647" lon="1.97894">
        <ele>2168.39</ele>
        <time>2013-06-02T10:05:27Z</time>
      </trkpt>
      <trkpt lat="42.56467" lon="1.97895">
        <ele>2168.87</ele>
        <time>2013-06-02T10:05:30Z</time>
      </trkpt>
      <trkpt lat="42.56462" lon="1.97906">
        <ele>2170.79</ele>
        <time>2013-06-02T10:05:41Z</time>
      </trkpt>
      <trkpt lat="42.56458" lon="1.97925">
        <ele>2171.27</ele>
        <time>2013-06-02T10:05:53Z</time>
      </trkpt>
      <trkpt lat="42.56455" lon="1.97944">
        <ele>2171.76</ele>
        <time>2013-06-02T10:06:05Z</time>
      </trkpt>
      <trkpt lat="42.56458" lon="1.97957">
        <ele>2172.24</ele>
        <time>2013-06-02T10:06:18Z</time>
      </trkpt>
      <trkpt lat="42.56459" lon="1.97957">
        <ele>2172.24</ele>
        <time>2013-06-02T10:06:19Z</time>
      </trkpt>
      <trkpt lat="42.56469" lon="1.97956">
        <ele>2174.16</ele>
        <time>2013-06-02T10:06:26Z</time>
      </trkpt>
      <trkpt lat="42.5648" lon="1.97958">
        <ele>2174.64</ele>
        <time>2013-06-02T10:06:35Z</time>
      </trkpt>
      <trkpt lat="42.56491" lon="1.97963">
        <ele>2175.12</ele>
        <time>2013-06-02T10:06:44Z</time>
      </trkpt>
      <trkpt lat="42.56493" lon="1.97963">
        <ele>2176.08</ele>
        <time>2013-06-02T10:06:46Z</time>
      </trkpt>
      <trkpt lat="42.56498" lon="1.97974">
        <ele>2176.56</ele>
        <time>2013-06-02T10:06:58Z</time>
      </trkpt>
      <trkpt lat="42.56502" lon="1.97988">
        <ele>2176.08</ele>
        <time>2013-06-02T10:07:13Z</time>
      </trkpt>
      <trkpt lat="42.56509" lon="1.9799">
        <ele>2176.56</ele>
        <time>2013-06-02T10:07:27Z</time>
      </trkpt>
      <trkpt lat="42.56517" lon="1.98019">
        <ele>2171.27</ele>
        <time>2013-06-02T10:07:42Z</time>
      </trkpt>
      <trkpt lat="42.56525" lon="1.98036">
        <ele>2171.27</ele>
        <time>2013-06-02T10:07:50Z</time>
      </trkpt>
      <trkpt lat="42.56532" lon="1.98047">
        <ele>2173.68</ele>
        <time>2013-06-02T10:08:03Z</time>
      </trkpt>
      <trkpt lat="42.56533" lon="1.98046">
        <ele>2173.68</ele>
        <time>2013-06-02T10:08:05Z</time>
      </trkpt>
      <trkpt lat="42.5654" lon="1.98036">
        <ele>2175.12</ele>
        <time>2013-06-02T10:08:18Z</time>
      </trkpt>
      <trkpt lat="42.56543" lon="1.98034">
        <ele>2176.56</ele>
        <time>2013-06-02T10:08:24Z</time>
      </trkpt>
      <trkpt lat="42.5655" lon="1.98034">
        <ele>2178.48</ele>
        <time>2013-06-02T10:08:36Z</time>
      </trkpt>
      <trkpt lat="42.56558" lon="1.98046">
        <ele>2178.48</ele>
        <time>2013-06-02T10:08:48Z</time>
      </trkpt>
      <trkpt lat="42.56561" lon="1.98049">
        <ele>2178</ele>
        <time>2013-06-02T10:08:53Z</time>
      </trkpt>
      <trkpt lat="42.56569" lon="1.98064">
        <ele>2175.12</ele>
        <time>2013-06-02T10:09:01Z</time>
      </trkpt>
      <trkpt lat="42.56574" lon="1.98072">
        <ele>2174.64</ele>
        <time>2013-06-02T10:09:05Z</time>
      </trkpt>
      <trkpt lat="42.56582" lon="1.98079">
        <ele>2176.56</ele>
        <time>2013-06-02T10:09:19Z</time>
      </trkpt>
      <trkpt lat="42.56592" lon="1.9808">
        <ele>2177.04</ele>
        <time>2013-06-02T10:09:27Z</time>
      </trkpt>
      <trkpt lat="42.566" lon="1.98075">
        <ele>2176.56</ele>
        <time>2013-06-02T10:09:34Z</time>
      </trkpt>
      <trkpt lat="42.5661" lon="1.98064">
        <ele>2177.52</ele>
        <time>2013-06-02T10:09:46Z</time>
      </trkpt>
      <trkpt lat="42.56615" lon="1.98055">
        <ele>2178</ele>
        <time>2013-06-02T10:09:58Z</time>
      </trkpt>
      <trkpt lat="42.56622" lon="1.98058">
        <ele>2179.93</ele>
        <time>2013-06-02T10:10:11Z</time>
      </trkpt>
      <trkpt lat="42.56627" lon="1.98062">
        <ele>2180.89</ele>
        <time>2013-06-02T10:10:23Z</time>
      </trkpt>
      <trkpt lat="42.56633" lon="1.98066">
        <ele>2180.41</ele>
        <time>2013-06-02T10:10:34Z</time>
      </trkpt>
      <trkpt lat="42.56636" lon="1.98075">
        <ele>2178.97</ele>
        <time>2013-06-02T10:10:40Z</time>
      </trkpt>
      <trkpt lat="42.56638" lon="1.98086">
        <ele>2178</ele>
        <time>2013-06-02T10:10:47Z</time>
      </trkpt>
      <trkpt lat="42.5664" lon="1.98092">
        <ele>2178.97</ele>
        <time>2013-06-02T10:11:01Z</time>
      </trkpt>
      <trkpt lat="42.5664" lon="1.98095">
        <ele>2178.48</ele>
        <time>2013-06-02T10:11:09Z</time>
      </trkpt>
      <trkpt lat="42.56638" lon="1.98108">
        <ele>2177.04</ele>
        <time>2013-06-02T10:11:21Z</time>
      </trkpt>
      <trkpt lat="42.56637" lon="1.98114">
        <ele>2177.04</ele>
        <time>2013-06-02T10:11:27Z</time>
      </trkpt>
      <trkpt lat="42.5664" lon="1.98124">
        <ele>2176.08</ele>
        <time>2013-06-02T10:11:32Z</time>
      </trkpt>
      <trkpt lat="42.56644" lon="1.98129">
        <ele>2175.12</ele>
        <time>2013-06-02T10:11:38Z</time>
      </trkpt>
      <trkpt lat="42.56651" lon="1.98135">
        <ele>2176.08</ele>
        <time>2013-06-02T10:11:46Z</time>
      </trkpt>
      <trkpt lat="42.56663" lon="1.98138">
        <ele>2178.97</ele>
        <time>2013-06-02T10:11:58Z</time>
      </trkpt>
      <trkpt lat="42.56667" lon="1.98134">
        <ele>2180.41</ele>
        <time>2013-06-02T10:12:04Z</time>
      </trkpt>
      <trkpt lat="42.56674" lon="1.98129">
        <ele>2183.77</ele>
        <time>2013-06-02T10:12:15Z</time>
      </trkpt>
      <trkpt lat="42.5668" lon="1.98123">
        <ele>2186.66</ele>
        <time>2013-06-02T10:12:27Z</time>
      </trkpt>
      <trkpt lat="42.56686" lon="1.98117">
        <ele>2188.1</ele>
        <time>2013-06-02T10:12:36Z</time>
      </trkpt>
      <trkpt lat="42.56695" lon="1.9811">
        <ele>2189.54</ele>
        <time>2013-06-02T10:12:45Z</time>
      </trkpt>
      <trkpt lat="42.56703" lon="1.98107">
        <ele>2190.5</ele>
        <time>2013-06-02T10:12:56Z</time>
      </trkpt>
      <trkpt lat="42.56713" lon="1.98101">
        <ele>2190.5</ele>
        <time>2013-06-02T10:13:10Z</time>
      </trkpt>
      <trkpt lat="42.56722" lon="1.98102">
        <ele>2189.54</ele>
        <time>2013-06-02T10:13:16Z</time>
      </trkpt>
      <trkpt lat="42.56736" lon="1.98114">
        <ele>2186.66</ele>
        <time>2013-06-02T10:13:30Z</time>
      </trkpt>
      <trkpt lat="42.56742" lon="1.98126">
        <ele>2188.58</ele>
        <time>2013-06-02T10:13:44Z</time>
      </trkpt>
      <trkpt lat="42.56745" lon="1.98135">
        <ele>2192.42</ele>
        <time>2013-06-02T10:13:57Z</time>
      </trkpt>
      <trkpt lat="42.56748" lon="1.98138">
        <ele>2190.98</ele>
        <time>2013-06-02T10:14:02Z</time>
      </trkpt>
      <trkpt lat="42.56775" lon="1.9814">
        <ele>2187.14</ele>
        <time>2013-06-02T10:14:16Z</time>
      </trkpt>
      <trkpt lat="42.56777" lon="1.98146">
        <ele>2186.18</ele>
        <time>2013-06-02T10:14:22Z</time>
      </trkpt>
      <trkpt lat="42.56776" lon="1.9815">
        <ele>2181.37</ele>
        <time>2013-06-02T10:14:36Z</time>
      </trkpt>
      <trkpt lat="42.56777" lon="1.9815">
        <ele>2177.52</ele>
        <time>2013-06-02T10:15:00Z</time>
      </trkpt>
      <trkpt lat="42.56771" lon="1.98159">
        <ele>2174.64</ele>
        <time>2013-06-02T10:15:15Z</time>
      </trkpt>
      <trkpt lat="42.56765" lon="1.98165">
        <ele>2173.68</ele>
        <time>2013-06-02T10:15:22Z</time>
      </trkpt>
      <trkpt lat="42.56763" lon="1.98168">
        <ele>2172.72</ele>
        <time>2013-06-02T10:15:25Z</time>
      </trkpt>
      <trkpt lat="42.56761" lon="1.98183">
        <ele>2171.27</ele>
        <time>2013-06-02T10:15:37Z</time>
      </trkpt>
      <trkpt lat="42.56763" lon="1.98192">
        <ele>2170.79</ele>
        <time>2013-06-02T10:15:45Z</time>
      </trkpt>
      <trkpt lat="42.56771" lon="1.98201">
        <ele>2174.64</ele>
        <time>2013-06-02T10:15:59Z</time>
      </trkpt>
      <trkpt lat="42.56774" lon="1.98201">
        <ele>2175.6</ele>
        <time>2013-06-02T10:16:13Z</time>
      </trkpt>
      <trkpt lat="42.5677" lon="1.98202">
        <ele>2175.12</ele>
        <time>2013-06-02T10:16:25Z</time>
      </trkpt>
      <trkpt lat="42.56756" lon="1.98212">
        <ele>2167.43</ele>
        <time>2013-06-02T10:16:38Z</time>
      </trkpt>
      <trkpt lat="42.56741" lon="1.98221">
        <ele>2164.55</ele>
        <time>2013-06-02T10:16:53Z</time>
      </trkpt>
      <trkpt lat="42.56738" lon="1.98224">
        <ele>2164.06</ele>
        <time>2013-06-02T10:16:55Z</time>
      </trkpt>
      <trkpt lat="42.56735" lon="1.98233">
        <ele>2163.58</ele>
        <time>2013-06-02T10:17:03Z</time>
      </trkpt>
      <trkpt lat="42.56733" lon="1.9824">
        <ele>2163.58</ele>
        <time>2013-06-02T10:17:11Z</time>
      </trkpt>
      <trkpt lat="42.56721" lon="1.98239">
        <ele>2165.03</ele>
        <time>2013-06-02T10:17:22Z</time>
      </trkpt>
      <trkpt lat="42.56709" lon="1.98236">
        <ele>2167.43</ele>
        <time>2013-06-02T10:17:37Z</time>
      </trkpt>
      <trkpt lat="42.56693" lon="1.98237">
        <ele>2168.39</ele>
        <time>2013-06-02T10:17:51Z</time>
      </trkpt>
      <trkpt lat="42.56676" lon="1.98242">
        <ele>2167.91</ele>
        <time>2013-06-02T10:18:04Z</time>
      </trkpt>
      <trkpt lat="42.56675" lon="1.98243">
        <ele>2167.91</ele>
        <time>2013-06-02T10:18:05Z</time>
      </trkpt>
      <trkpt lat="42.56661" lon="1.98246">
        <ele>2166.95</ele>
        <time>2013-06-02T10:18:17Z</time>
      </trkpt>
      <trkpt lat="42.56656" lon="1.98247">
        <ele>2165.99</ele>
        <time>2013-06-02T10:18:23Z</time>
      </trkpt>
      <trkpt lat="42.56646" lon="1.98254">
        <ele>2164.55</ele>
        <time>2013-06-02T10:18:34Z</time>
      </trkpt>
      <trkpt lat="42.56637" lon="1.98256">
        <ele>2162.14</ele>
        <time>2013-06-02T10:18:46Z</time>
      </trkpt>
      <trkpt lat="42.56625" lon="1.98262">
        <ele>2159.74</ele>
        <time>2013-06-02T10:18:56Z</time>
      </trkpt>
      <trkpt lat="42.56611" lon="1.98273">
        <ele>2155.41</ele>
        <time>2013-06-02T10:19:08Z</time>
      </trkpt>
      <trkpt lat="42.56596" lon="1.98276">
        <ele>2153.01</ele>
        <time>2013-06-02T10:19:22Z</time>
      </trkpt>
      <trkpt lat="42.56581" lon="1.9828">
        <ele>2150.13</ele>
        <time>2013-06-02T10:19:36Z</time>
      </trkpt>
      <trkpt lat="42.56571" lon="1.98288">
        <ele>2148.2</ele>
        <time>2013-06-02T10:19:47Z</time>
      </trkpt>
      <trkpt lat="42.56561" lon="1.98299">
        <ele>2147.24</ele>
        <time>2013-06-02T10:19:59Z</time>
      </trkpt>
      <trkpt lat="42.5655" lon="1.98313">
        <ele>2145.32</ele>
        <time>2013-06-02T10:20:11Z</time>
      </trkpt>
      <trkpt lat="42.56543" lon="1.98315">
        <ele>2145.8</ele>
        <time>2013-06-02T10:20:20Z</time>
      </trkpt>
      <trkpt lat="42.56533" lon="1.98323">
        <ele>2145.8</ele>
        <time>2013-06-02T10:20:33Z</time>
      </trkpt>
      <trkpt lat="42.56531" lon="1.98326">
        <ele>2145.8</ele>
        <time>2013-06-02T10:20:37Z</time>
      </trkpt>
      <trkpt lat="42.56525" lon="1.98339">
        <ele>2144.84</ele>
        <time>2013-06-02T10:20:50Z</time>
      </trkpt>
      <trkpt lat="42.56516" lon="1.98343">
        <ele>2146.28</ele>
        <time>2013-06-02T10:21:03Z</time>
      </trkpt>
      <trkpt lat="42.56514" lon="1.98344">
        <ele>2146.28</ele>
        <time>2013-06-02T10:21:05Z</time>
      </trkpt>
      <trkpt lat="42.56509" lon="1.9835">
        <ele>2148.68</ele>
        <time>2013-06-02T10:21:17Z</time>
      </trkpt>
      <trkpt lat="42.56508" lon="1.9835">
        <ele>2150.61</ele>
        <time>2013-06-02T10:21:39Z</time>
      </trkpt>
      <trkpt lat="42.56507" lon="1.9835">
        <ele>2150.61</ele>
        <time>2013-06-02T10:21:50Z</time>
      </trkpt>
      <trkpt lat="42.56507" lon="1.98352">
        <ele>2151.57</ele>
        <time>2013-06-02T10:22:05Z</time>
      </trkpt>
      <trkpt lat="42.56507" lon="1.98353">
        <ele>2151.57</ele>
        <time>2013-06-02T10:22:41Z</time>
      </trkpt>
      <trkpt lat="42.56506" lon="1.98353">
        <ele>2151.57</ele>
        <time>2013-06-02T10:23:01Z</time>
      </trkpt>
      <trkpt lat="42.56502" lon="1.98352">
        <ele>2148.68</ele>
        <time>2013-06-02T10:23:11Z</time>
      </trkpt>
      <trkpt lat="42.56496" lon="1.98345">
        <ele>2144.36</ele>
        <time>2013-06-02T10:23:22Z</time>
      </trkpt>
      <trkpt lat="42.56488" lon="1.98347">
        <ele>2146.28</ele>
        <time>2013-06-02T10:23:33Z</time>
      </trkpt>
      <trkpt lat="42.56488" lon="1.98348">
        <ele>2146.76</ele>
        <time>2013-06-02T10:23:34Z</time>
      </trkpt>
      <trkpt lat="42.56487" lon="1.9835">
        <ele>2146.76</ele>
        <time>2013-06-02T10:23:35Z</time>
      </trkpt>
      <trkpt lat="42.56486" lon="1.98361">
        <ele>2150.61</ele>
        <time>2013-06-02T10:23:46Z</time>
      </trkpt>
      <trkpt lat="42.5649" lon="1.98365">
        <ele>2150.61</ele>
        <time>2013-06-02T10:23:55Z</time>
      </trkpt>
      <trkpt lat="42.56497" lon="1.98377">
        <ele>2149.16</ele>
        <time>2013-06-02T10:24:06Z</time>
      </trkpt>
      <trkpt lat="42.56493" lon="1.98386">
        <ele>2147.72</ele>
        <time>2013-06-02T10:24:19Z</time>
      </trkpt>
      <trkpt lat="42.56487" lon="1.98404">
        <ele>2147.24</ele>
        <time>2013-06-02T10:24:34Z</time>
      </trkpt>
      <trkpt lat="42.56481" lon="1.98417">
        <ele>2146.28</ele>
        <time>2013-06-02T10:24:44Z</time>
      </trkpt>
      <trkpt lat="42.56477" lon="1.98433">
        <ele>2145.8</ele>
        <time>2013-06-02T10:24:55Z</time>
      </trkpt>
      <trkpt lat="42.5647" lon="1.98455">
        <ele>2149.65</ele>
        <time>2013-06-02T10:25:09Z</time>
      </trkpt>
      <trkpt lat="42.56463" lon="1.98467">
        <ele>2149.16</ele>
        <time>2013-06-02T10:25:18Z</time>
      </trkpt>
      <trkpt lat="42.56465" lon="1.98482">
        <ele>2148.68</ele>
        <time>2013-06-02T10:25:30Z</time>
      </trkpt>
      <trkpt lat="42.56465" lon="1.98485">
        <ele>2148.2</ele>
        <time>2013-06-02T10:25:32Z</time>
      </trkpt>
      <trkpt lat="42.56459" lon="1.98499">
        <ele>2146.28</ele>
        <time>2013-06-02T10:25:43Z</time>
      </trkpt>
      <trkpt lat="42.56455" lon="1.98502">
        <ele>2146.28</ele>
        <time>2013-06-02T10:25:48Z</time>
      </trkpt>
      <trkpt lat="42.56446" lon="1.98511">
        <ele>2144.36</ele>
        <time>2013-06-02T10:26:00Z</time>
      </trkpt>
      <trkpt lat="42.56444" lon="1.98514">
        <ele>2143.88</ele>
        <time>2013-06-02T10:26:02Z</time>
      </trkpt>
      <trkpt lat="42.56439" lon="1.98522">
        <ele>2145.32</ele>
        <time>2013-06-02T10:26:09Z</time>
      </trkpt>
      <trkpt lat="42.56439" lon="1.98524">
        <ele>2145.32</ele>
        <time>2013-06-02T10:26:10Z</time>
      </trkpt>
      <trkpt lat="42.56439" lon="1.98526">
        <ele>2145.8</ele>
        <time>2013-06-02T10:26:11Z</time>
      </trkpt>
      <trkpt lat="42.5644" lon="1.98527">
        <ele>2145.8</ele>
        <time>2013-06-02T10:26:12Z</time>
      </trkpt>
      <trkpt lat="42.5645" lon="1.98549">
        <ele>2144.84</ele>
        <time>2013-06-02T10:26:25Z</time>
      </trkpt>
      <trkpt lat="42.5645" lon="1.9855">
        <ele>2144.84</ele>
        <time>2013-06-02T10:26:27Z</time>
      </trkpt>
      <trkpt lat="42.56451" lon="1.98552">
        <ele>2144.84</ele>
        <time>2013-06-02T10:26:28Z</time>
      </trkpt>
      <trkpt lat="42.56451" lon="1.98554">
        <ele>2144.84</ele>
        <time>2013-06-02T10:26:29Z</time>
      </trkpt>
      <trkpt lat="42.56451" lon="1.98556">
        <ele>2144.84</ele>
        <time>2013-06-02T10:26:30Z</time>
      </trkpt>
      <trkpt lat="42.5645" lon="1.98558">
        <ele>2144.84</ele>
        <time>2013-06-02T10:26:31Z</time>
      </trkpt>
      <trkpt lat="42.5645" lon="1.9856">
        <ele>2144.84</ele>
        <time>2013-06-02T10:26:32Z</time>
      </trkpt>
      <trkpt lat="42.56449" lon="1.98563">
        <ele>2144.84</ele>
        <time>2013-06-02T10:26:33Z</time>
      </trkpt>
      <trkpt lat="42.56448" lon="1.98566">
        <ele>2144.84</ele>
        <time>2013-06-02T10:26:34Z</time>
      </trkpt>
      <trkpt lat="42.56446" lon="1.98579">
        <ele>2143.4</ele>
        <time>2013-06-02T10:26:44Z</time>
      </trkpt>
      <trkpt lat="42.56446" lon="1.98582">
        <ele>2142.92</ele>
        <time>2013-06-02T10:26:46Z</time>
      </trkpt>
      <trkpt lat="42.56442" lon="1.98588">
        <ele>2141.95</ele>
        <time>2013-06-02T10:26:50Z</time>
      </trkpt>
      <trkpt lat="42.56426" lon="1.98623">
        <ele>2134.74</ele>
        <time>2013-06-02T10:27:05Z</time>
      </trkpt>
      <trkpt lat="42.56422" lon="1.98629">
        <ele>2130.9</ele>
        <time>2013-06-02T10:27:17Z</time>
      </trkpt>
      <trkpt lat="42.56415" lon="1.98632">
        <ele>2130.42</ele>
        <time>2013-06-02T10:27:29Z</time>
      </trkpt>
      <trkpt lat="42.56408" lon="1.98636">
        <ele>2129.94</ele>
        <time>2013-06-02T10:27:40Z</time>
      </trkpt>
      <trkpt lat="42.56401" lon="1.98646">
        <ele>2128.5</ele>
        <time>2013-06-02T10:27:53Z</time>
      </trkpt>
      <trkpt lat="42.564" lon="1.98647">
        <ele>2128.5</ele>
        <time>2013-06-02T10:27:54Z</time>
      </trkpt>
      <trkpt lat="42.56391" lon="1.9865">
        <ele>2126.57</ele>
        <time>2013-06-02T10:27:58Z</time>
      </trkpt>
      <trkpt lat="42.56388" lon="1.98654">
        <ele>2125.13</ele>
        <time>2013-06-02T10:28:07Z</time>
      </trkpt>
      <trkpt lat="42.56379" lon="1.98664">
        <ele>2121.29</ele>
        <time>2013-06-02T10:28:18Z</time>
      </trkpt>
      <trkpt lat="42.56372" lon="1.98681">
        <ele>2120.32</ele>
        <time>2013-06-02T10:28:28Z</time>
      </trkpt>
      <trkpt lat="42.56358" lon="1.98696">
        <ele>2121.29</ele>
        <time>2013-06-02T10:28:40Z</time>
      </trkpt>
      <trkpt lat="42.56352" lon="1.98703">
        <ele>2121.77</ele>
        <time>2013-06-02T10:28:54Z</time>
      </trkpt>
      <trkpt lat="42.56351" lon="1.98704">
        <ele>2121.29</ele>
        <time>2013-06-02T10:29:22Z</time>
      </trkpt>
      <trkpt lat="42.56345" lon="1.98709">
        <ele>2130.42</ele>
        <time>2013-06-02T10:29:48Z</time>
      </trkpt>
      <trkpt lat="42.5635" lon="1.98706">
        <ele>2121.29</ele>
        <time>2013-06-02T10:30:23Z</time>
      </trkpt>
      <trkpt lat="42.56347" lon="1.98706">
        <ele>2124.17</ele>
        <time>2013-06-02T10:30:54Z</time>
      </trkpt>
      <trkpt lat="42.56349" lon="1.98707">
        <ele>2124.17</ele>
        <time>2013-06-02T10:31:18Z</time>
      </trkpt>
      <trkpt lat="42.56352" lon="1.98712">
        <ele>2124.65</ele>
        <time>2013-06-02T10:31:41Z</time>
      </trkpt>
      <trkpt lat="42.5635" lon="1.98708">
        <ele>2126.09</ele>
        <time>2013-06-02T10:32:06Z</time>
      </trkpt>
      <trkpt lat="42.56351" lon="1.98715">
        <ele>2126.57</ele>
        <time>2013-06-02T10:32:34Z</time>
      </trkpt>
      <trkpt lat="42.56352" lon="1.98717">
        <ele>2127.53</ele>
        <time>2013-06-02T10:33:00Z</time>
      </trkpt>
      <trkpt lat="42.56347" lon="1.9872">
        <ele>2130.42</ele>
        <time>2013-06-02T10:33:18Z</time>
      </trkpt>
      <trkpt lat="42.5634" lon="1.98699">
        <ele>2124.17</ele>
        <time>2013-06-02T10:33:26Z</time>
      </trkpt>
      <trkpt lat="42.56332" lon="1.98704">
        <ele>2122.25</ele>
        <time>2013-06-02T10:33:37Z</time>
      </trkpt>
      <trkpt lat="42.5633" lon="1.98704">
        <ele>2121.77</ele>
        <time>2013-06-02T10:33:40Z</time>
      </trkpt>
      <trkpt lat="42.56315" lon="1.98711">
        <ele>2121.29</ele>
        <time>2013-06-02T10:33:53Z</time>
      </trkpt>
      <trkpt lat="42.56312" lon="1.98717">
        <ele>2120.32</ele>
        <time>2013-06-02T10:33:56Z</time>
      </trkpt>
      <trkpt lat="42.56302" lon="1.98721">
        <ele>2119.36</ele>
        <time>2013-06-02T10:34:08Z</time>
      </trkpt>
      <trkpt lat="42.5629" lon="1.98717">
        <ele>2119.36</ele>
        <time>2013-06-02T10:34:23Z</time>
      </trkpt>
      <trkpt lat="42.56289" lon="1.98717">
        <ele>2119.36</ele>
        <time>2013-06-02T10:34:24Z</time>
      </trkpt>
      <trkpt lat="42.56276" lon="1.98722">
        <ele>2119.84</ele>
        <time>2013-06-02T10:34:37Z</time>
      </trkpt>
      <trkpt lat="42.56269" lon="1.98727">
        <ele>2120.81</ele>
        <time>2013-06-02T10:34:48Z</time>
      </trkpt>
      <trkpt lat="42.56268" lon="1.98728">
        <ele>2120.81</ele>
        <time>2013-06-02T10:34:49Z</time>
      </trkpt>
      <trkpt lat="42.56257" lon="1.98743">
        <ele>2118.88</ele>
        <time>2013-06-02T10:35:01Z</time>
      </trkpt>
      <trkpt lat="42.56256" lon="1.98746">
        <ele>2118.4</ele>
        <time>2013-06-02T10:35:04Z</time>
      </trkpt>
      <trkpt lat="42.56251" lon="1.98752">
        <ele>2116.48</ele>
        <time>2013-06-02T10:35:14Z</time>
      </trkpt>
      <trkpt lat="42.5625" lon="1.98754">
        <ele>2116.48</ele>
        <time>2013-06-02T10:35:16Z</time>
      </trkpt>
      <trkpt lat="42.56248" lon="1.98759">
        <ele>2116.48</ele>
        <time>2013-06-02T10:35:27Z</time>
      </trkpt>
      <trkpt lat="42.5624" lon="1.98775">
        <ele>2113.12</ele>
        <time>2013-06-02T10:35:39Z</time>
      </trkpt>
      <trkpt lat="42.5624" lon="1.98776">
        <ele>2112.63</ele>
        <time>2013-06-02T10:35:40Z</time>
      </trkpt>
      <trkpt lat="42.56238" lon="1.98782">
        <ele>2110.71</ele>
        <time>2013-06-02T10:35:43Z</time>
      </trkpt>
      <trkpt lat="42.56235" lon="1.98784">
        <ele>2109.27</ele>
        <time>2013-06-02T10:35:46Z</time>
      </trkpt>
      <trkpt lat="42.56234" lon="1.98785">
        <ele>2108.79</ele>
        <time>2013-06-02T10:35:47Z</time>
      </trkpt>
      <trkpt lat="42.56223" lon="1.98805">
        <ele>2105.42</ele>
        <time>2013-06-02T10:35:59Z</time>
      </trkpt>
      <trkpt lat="42.56218" lon="1.9882">
        <ele>2104.46</ele>
        <time>2013-06-02T10:36:12Z</time>
      </trkpt>
      <trkpt lat="42.56216" lon="1.98823">
        <ele>2104.46</ele>
        <time>2013-06-02T10:36:14Z</time>
      </trkpt>
      <trkpt lat="42.56213" lon="1.98825">
        <ele>2103.98</ele>
        <time>2013-06-02T10:36:19Z</time>
      </trkpt>
      <trkpt lat="42.56211" lon="1.98825">
        <ele>2103.5</ele>
        <time>2013-06-02T10:36:20Z</time>
      </trkpt>
      <trkpt lat="42.56205" lon="1.98829">
        <ele>2102.54</ele>
        <time>2013-06-02T10:36:32Z</time>
      </trkpt>
      <trkpt lat="42.56201" lon="1.98833">
        <ele>2100.62</ele>
        <time>2013-06-02T10:36:45Z</time>
      </trkpt>
      <trkpt lat="42.56199" lon="1.98836">
        <ele>2099.66</ele>
        <time>2013-06-02T10:36:59Z</time>
      </trkpt>
      <trkpt lat="42.56197" lon="1.98842">
        <ele>2102.06</ele>
        <time>2013-06-02T10:37:12Z</time>
      </trkpt>
      <trkpt lat="42.56183" lon="1.98852">
        <ele>2099.66</ele>
        <time>2013-06-02T10:37:24Z</time>
      </trkpt>
      <trkpt lat="42.56177" lon="1.98861">
        <ele>2098.7</ele>
        <time>2013-06-02T10:37:29Z</time>
      </trkpt>
      <trkpt lat="42.56176" lon="1.98862">
        <ele>2098.21</ele>
        <time>2013-06-02T10:37:30Z</time>
      </trkpt>
      <trkpt lat="42.56175" lon="1.98864">
        <ele>2098.21</ele>
        <time>2013-06-02T10:37:31Z</time>
      </trkpt>
      <trkpt lat="42.56163" lon="1.98887">
        <ele>2095.33</ele>
        <time>2013-06-02T10:37:44Z</time>
      </trkpt>
      <trkpt lat="42.56162" lon="1.98888">
        <ele>2094.85</ele>
        <time>2013-06-02T10:37:45Z</time>
      </trkpt>
      <trkpt lat="42.56161" lon="1.98889">
        <ele>2094.85</ele>
        <time>2013-06-02T10:37:46Z</time>
      </trkpt>
      <trkpt lat="42.56149" lon="1.98892">
        <ele>2092.93</ele>
        <time>2013-06-02T10:37:57Z</time>
      </trkpt>
      <trkpt lat="42.56144" lon="1.98893">
        <ele>2092.93</ele>
        <time>2013-06-02T10:38:08Z</time>
      </trkpt>
      <trkpt lat="42.56141" lon="1.98892">
        <ele>2092.45</ele>
        <time>2013-06-02T10:38:25Z</time>
      </trkpt>
      <trkpt lat="42.56136" lon="1.98902">
        <ele>2093.89</ele>
        <time>2013-06-02T10:38:38Z</time>
      </trkpt>
      <trkpt lat="42.56134" lon="1.98903">
        <ele>2093.89</ele>
        <time>2013-06-02T10:38:39Z</time>
      </trkpt>
      <trkpt lat="42.56133" lon="1.98904">
        <ele>2093.89</ele>
        <time>2013-06-02T10:38:40Z</time>
      </trkpt>
      <trkpt lat="42.56132" lon="1.98904">
        <ele>2093.89</ele>
        <time>2013-06-02T10:38:41Z</time>
      </trkpt>
      <trkpt lat="42.56126" lon="1.98907">
        <ele>2093.41</ele>
        <time>2013-06-02T10:38:53Z</time>
      </trkpt>
      <trkpt lat="42.56121" lon="1.98909">
        <ele>2092.93</ele>
        <time>2013-06-02T10:39:03Z</time>
      </trkpt>
      <trkpt lat="42.56113" lon="1.98919">
        <ele>2092.93</ele>
        <time>2013-06-02T10:39:15Z</time>
      </trkpt>
      <trkpt lat="42.56109" lon="1.9893">
        <ele>2093.89</ele>
        <time>2013-06-02T10:39:28Z</time>
      </trkpt>
      <trkpt lat="42.56106" lon="1.98935">
        <ele>2091.49</ele>
        <time>2013-06-02T10:39:41Z</time>
      </trkpt>
      <trkpt lat="42.56106" lon="1.98944">
        <ele>2090.52</ele>
        <time>2013-06-02T10:39:54Z</time>
      </trkpt>
      <trkpt lat="42.56106" lon="1.98946">
        <ele>2090.52</ele>
        <time>2013-06-02T10:39:55Z</time>
      </trkpt>
      <trkpt lat="42.56107" lon="1.98952">
        <ele>2089.56</ele>
        <time>2013-06-02T10:40:01Z</time>
      </trkpt>
      <trkpt lat="42.5611" lon="1.98954">
        <ele>2091</ele>
        <time>2013-06-02T10:40:07Z</time>
      </trkpt>
      <trkpt lat="42.56112" lon="1.98957">
        <ele>2091.49</ele>
        <time>2013-06-02T10:40:19Z</time>
      </trkpt>
      <trkpt lat="42.56114" lon="1.98961">
        <ele>2091.97</ele>
        <time>2013-06-02T10:40:33Z</time>
      </trkpt>
      <trkpt lat="42.56115" lon="1.98966">
        <ele>2091</ele>
        <time>2013-06-02T10:40:44Z</time>
      </trkpt>
      <trkpt lat="42.56117" lon="1.98967">
        <ele>2090.04</ele>
        <time>2013-06-02T10:40:58Z</time>
      </trkpt>
      <trkpt lat="42.56117" lon="1.98968">
        <ele>2089.56</ele>
        <time>2013-06-02T10:41:13Z</time>
      </trkpt>
      <trkpt lat="42.56118" lon="1.98968">
        <ele>2090.52</ele>
        <time>2013-06-02T10:41:24Z</time>
      </trkpt>
      <trkpt lat="42.56117" lon="1.98969">
        <ele>2084.76</ele>
        <time>2013-06-02T10:41:37Z</time>
      </trkpt>
      <trkpt lat="42.56115" lon="1.98965">
        <ele>2086.2</ele>
        <time>2013-06-02T10:42:09Z</time>
      </trkpt>
      <trkpt lat="42.56121" lon="1.98966">
        <ele>2090.04</ele>
        <time>2013-06-02T10:42:35Z</time>
      </trkpt>
      <trkpt lat="42.56119" lon="1.98964">
        <ele>2088.6</ele>
        <time>2013-06-02T10:42:44Z</time>
      </trkpt>
      <trkpt lat="42.56119" lon="1.98967">
        <ele>2086.2</ele>
        <time>2013-06-02T10:42:55Z</time>
      </trkpt>
      <trkpt lat="42.56116" lon="1.98963">
        <ele>2086.68</ele>
        <time>2013-06-02T10:43:01Z</time>
      </trkpt>
      <trkpt lat="42.56113" lon="1.98968">
        <ele>2087.16</ele>
        <time>2013-06-02T10:43:06Z</time>
      </trkpt>
      <trkpt lat="42.56106" lon="1.98985">
        <ele>2089.08</ele>
        <time>2013-06-02T10:43:20Z</time>
      </trkpt>
      <trkpt lat="42.56102" lon="1.98994">
        <ele>2087.16</ele>
        <time>2013-06-02T10:43:32Z</time>
      </trkpt>
      <trkpt lat="42.56099" lon="1.99006">
        <ele>2084.76</ele>
        <time>2013-06-02T10:43:44Z</time>
      </trkpt>
      <trkpt lat="42.56098" lon="1.9901">
        <ele>2083.79</ele>
        <time>2013-06-02T10:43:48Z</time>
      </trkpt>
      <trkpt lat="42.5609" lon="1.99011">
        <ele>2083.79</ele>
        <time>2013-06-02T10:43:55Z</time>
      </trkpt>
      <trkpt lat="42.56079" lon="1.99017">
        <ele>2083.79</ele>
        <time>2013-06-02T10:44:08Z</time>
      </trkpt>
      <trkpt lat="42.56072" lon="1.99026">
        <ele>2082.35</ele>
        <time>2013-06-02T10:44:18Z</time>
      </trkpt>
      <trkpt lat="42.5606" lon="1.99036">
        <ele>2079.47</ele>
        <time>2013-06-02T10:44:33Z</time>
      </trkpt>
      <trkpt lat="42.56047" lon="1.99043">
        <ele>2081.87</ele>
        <time>2013-06-02T10:44:45Z</time>
      </trkpt>
      <trkpt lat="42.56041" lon="1.99059">
        <ele>2079.47</ele>
        <time>2013-06-02T10:44:56Z</time>
      </trkpt>
      <trkpt lat="42.56037" lon="1.99066">
        <ele>2078.51</ele>
        <time>2013-06-02T10:45:07Z</time>
      </trkpt>
      <trkpt lat="42.56027" lon="1.99072">
        <ele>2077.07</ele>
        <time>2013-06-02T10:45:20Z</time>
      </trkpt>
      <trkpt lat="42.56021" lon="1.99078">
        <ele>2076.59</ele>
        <time>2013-06-02T10:45:28Z</time>
      </trkpt>
      <trkpt lat="42.56016" lon="1.99077">
        <ele>2076.1</ele>
        <time>2013-06-02T10:45:33Z</time>
      </trkpt>
      <trkpt lat="42.56008" lon="1.99083">
        <ele>2074.66</ele>
        <time>2013-06-02T10:45:46Z</time>
      </trkpt>
      <trkpt lat="42.56002" lon="1.99095">
        <ele>2072.74</ele>
        <time>2013-06-02T10:45:59Z</time>
      </trkpt>
      <trkpt lat="42.55998" lon="1.99112">
        <ele>2075.14</ele>
        <time>2013-06-02T10:46:10Z</time>
      </trkpt>
      <trkpt lat="42.55997" lon="1.99122">
        <ele>2074.18</ele>
        <time>2013-06-02T10:46:22Z</time>
      </trkpt>
      <trkpt lat="42.55991" lon="1.99122">
        <ele>2073.22</ele>
        <time>2013-06-02T10:46:35Z</time>
      </trkpt>
      <trkpt lat="42.55984" lon="1.9912">
        <ele>2069.86</ele>
        <time>2013-06-02T10:46:46Z</time>
      </trkpt>
      <trkpt lat="42.55979" lon="1.99126">
        <ele>2068.41</ele>
        <time>2013-06-02T10:46:57Z</time>
      </trkpt>
      <trkpt lat="42.55974" lon="1.99134">
        <ele>2066.97</ele>
        <time>2013-06-02T10:47:08Z</time>
      </trkpt>
      <trkpt lat="42.55963" lon="1.99148">
        <ele>2064.57</ele>
        <time>2013-06-02T10:47:22Z</time>
      </trkpt>
      <trkpt lat="42.55959" lon="1.99149">
        <ele>2063.13</ele>
        <time>2013-06-02T10:47:29Z</time>
      </trkpt>
      <trkpt lat="42.55954" lon="1.99151">
        <ele>2063.13</ele>
        <time>2013-06-02T10:47:40Z</time>
      </trkpt>
      <trkpt lat="42.55959" lon="1.99152">
        <ele>2063.61</ele>
        <time>2013-06-02T10:47:53Z</time>
      </trkpt>
      <trkpt lat="42.55965" lon="1.99162">
        <ele>2063.61</ele>
        <time>2013-06-02T10:48:06Z</time>
      </trkpt>
      <trkpt lat="42.55968" lon="1.99164">
        <ele>2062.65</ele>
        <time>2013-06-02T10:48:12Z</time>
      </trkpt>
      <trkpt lat="42.55979" lon="1.99169">
        <ele>2062.65</ele>
        <time>2013-06-02T10:48:24Z</time>
      </trkpt>
      <trkpt lat="42.55991" lon="1.99173">
        <ele>2064.57</ele>
        <time>2013-06-02T10:48:36Z</time>
      </trkpt>
      <trkpt lat="42.55998" lon="1.99181">
        <ele>2065.53</ele>
        <time>2013-06-02T10:48:49Z</time>
      </trkpt>
      <trkpt lat="42.56003" lon="1.99187">
        <ele>2064.09</ele>
        <time>2013-06-02T10:49:03Z</time>
      </trkpt>
      <trkpt lat="42.56004" lon="1.99197">
        <ele>2063.13</ele>
        <time>2013-06-02T10:49:15Z</time>
      </trkpt>
      <trkpt lat="42.56003" lon="1.99212">
        <ele>2062.65</ele>
        <time>2013-06-02T10:49:27Z</time>
      </trkpt>
      <trkpt lat="42.55998" lon="1.99231">
        <ele>2067.93</ele>
        <time>2013-06-02T10:49:42Z</time>
      </trkpt>
      <trkpt lat="42.55993" lon="1.9924">
        <ele>2069.38</ele>
        <time>2013-06-02T10:49:53Z</time>
      </trkpt>
      <trkpt lat="42.55992" lon="1.99247">
        <ele>2068.41</ele>
        <time>2013-06-02T10:50:03Z</time>
      </trkpt>
      <trkpt lat="42.55985" lon="1.99249">
        <ele>2065.53</ele>
        <time>2013-06-02T10:50:14Z</time>
      </trkpt>
      <trkpt lat="42.55984" lon="1.99251">
        <ele>2065.53</ele>
        <time>2013-06-02T10:50:16Z</time>
      </trkpt>
      <trkpt lat="42.55977" lon="1.99258">
        <ele>2064.09</ele>
        <time>2013-06-02T10:50:28Z</time>
      </trkpt>
      <trkpt lat="42.55974" lon="1.99262">
        <ele>2063.13</ele>
        <time>2013-06-02T10:50:40Z</time>
      </trkpt>
      <trkpt lat="42.55976" lon="1.99269">
        <ele>2062.17</ele>
        <time>2013-06-02T10:50:52Z</time>
      </trkpt>
      <trkpt lat="42.55971" lon="1.99274">
        <ele>2060.72</ele>
        <time>2013-06-02T10:51:04Z</time>
      </trkpt>
      <trkpt lat="42.55967" lon="1.99276">
        <ele>2062.17</ele>
        <time>2013-06-02T10:51:18Z</time>
      </trkpt>
      <trkpt lat="42.55971" lon="1.99282">
        <ele>2059.76</ele>
        <time>2013-06-02T10:51:30Z</time>
      </trkpt>
      <trkpt lat="42.55974" lon="1.99285">
        <ele>2060.24</ele>
        <time>2013-06-02T10:51:40Z</time>
      </trkpt>
      <trkpt lat="42.55973" lon="1.99293">
        <ele>2061.68</ele>
        <time>2013-06-02T10:51:49Z</time>
      </trkpt>
      <trkpt lat="42.5597" lon="1.99313">
        <ele>2059.76</ele>
        <time>2013-06-02T10:52:06Z</time>
      </trkpt>
      <trkpt lat="42.55968" lon="1.9933">
        <ele>2058.8</ele>
        <time>2013-06-02T10:52:19Z</time>
      </trkpt>
      <trkpt lat="42.55964" lon="1.99339">
        <ele>2057.84</ele>
        <time>2013-06-02T10:52:30Z</time>
      </trkpt>
      <trkpt lat="42.55962" lon="1.99356">
        <ele>2053.51</ele>
        <time>2013-06-02T10:52:46Z</time>
      </trkpt>
      <trkpt lat="42.55962" lon="1.99369">
        <ele>2051.59</ele>
        <time>2013-06-02T10:52:59Z</time>
      </trkpt>
      <trkpt lat="42.55966" lon="1.99378">
        <ele>2053.03</ele>
        <time>2013-06-02T10:53:13Z</time>
      </trkpt>
      <trkpt lat="42.5597" lon="1.99379">
        <ele>2053.51</ele>
        <time>2013-06-02T10:53:25Z</time>
      </trkpt>
      <trkpt lat="42.55971" lon="1.99383">
        <ele>2055.92</ele>
        <time>2013-06-02T10:53:37Z</time>
      </trkpt>
      <trkpt lat="42.55973" lon="1.99388">
        <ele>2055.92</ele>
        <time>2013-06-02T10:53:42Z</time>
      </trkpt>
      <trkpt lat="42.55976" lon="1.99391">
        <ele>2056.4</ele>
        <time>2013-06-02T10:53:47Z</time>
      </trkpt>
      <trkpt lat="42.55978" lon="1.99392">
        <ele>2056.4</ele>
        <time>2013-06-02T10:53:49Z</time>
      </trkpt>
      <trkpt lat="42.55983" lon="1.99401">
        <ele>2052.55</ele>
        <time>2013-06-02T10:54:02Z</time>
      </trkpt>
      <trkpt lat="42.5599" lon="1.99409">
        <ele>2051.11</ele>
        <time>2013-06-02T10:54:15Z</time>
      </trkpt>
      <trkpt lat="42.55991" lon="1.99412">
        <ele>2050.63</ele>
        <time>2013-06-02T10:54:19Z</time>
      </trkpt>
      <trkpt lat="42.55998" lon="1.9942">
        <ele>2053.03</ele>
        <time>2013-06-02T10:54:31Z</time>
      </trkpt>
      <trkpt lat="42.56006" lon="1.99427">
        <ele>2053.51</ele>
        <time>2013-06-02T10:54:43Z</time>
      </trkpt>
      <trkpt lat="42.56011" lon="1.99434">
        <ele>2052.55</ele>
        <time>2013-06-02T10:54:54Z</time>
      </trkpt>
      <trkpt lat="42.56013" lon="1.99435">
        <ele>2053.51</ele>
        <time>2013-06-02T10:55:05Z</time>
      </trkpt>
      <trkpt lat="42.56022" lon="1.99443">
        <ele>2053.03</ele>
        <time>2013-06-02T10:55:19Z</time>
      </trkpt>
      <trkpt lat="42.56024" lon="1.99448">
        <ele>2053.03</ele>
        <time>2013-06-02T10:55:32Z</time>
      </trkpt>
      <trkpt lat="42.56022" lon="1.99453">
        <ele>2049.19</ele>
        <time>2013-06-02T10:55:46Z</time>
      </trkpt>
      <trkpt lat="42.56019" lon="1.99459">
        <ele>2046.78</ele>
        <time>2013-06-02T10:55:52Z</time>
      </trkpt>
      <trkpt lat="42.56026" lon="1.99475">
        <ele>2045.82</ele>
        <time>2013-06-02T10:56:06Z</time>
      </trkpt>
      <trkpt lat="42.56031" lon="1.9948">
        <ele>2046.3</ele>
        <time>2013-06-02T10:56:12Z</time>
      </trkpt>
      <trkpt lat="42.56032" lon="1.99483">
        <ele>2047.26</ele>
        <time>2013-06-02T10:56:15Z</time>
      </trkpt>
      <trkpt lat="42.56032" lon="1.99491">
        <ele>2049.19</ele>
        <time>2013-06-02T10:56:25Z</time>
      </trkpt>
      <trkpt lat="42.56033" lon="1.995">
        <ele>2048.23</ele>
        <time>2013-06-02T10:56:38Z</time>
      </trkpt>
      <trkpt lat="42.56028" lon="1.99505">
        <ele>2045.34</ele>
        <time>2013-06-02T10:56:51Z</time>
      </trkpt>
      <trkpt lat="42.56023" lon="1.99517">
        <ele>2041.98</ele>
        <time>2013-06-02T10:57:04Z</time>
      </trkpt>
      <trkpt lat="42.56026" lon="1.99521">
        <ele>2041.02</ele>
        <time>2013-06-02T10:57:17Z</time>
      </trkpt>
      <trkpt lat="42.56024" lon="1.99526">
        <ele>2042.94</ele>
        <time>2013-06-02T10:57:46Z</time>
      </trkpt>
      <trkpt lat="42.56027" lon="1.99524">
        <ele>2045.34</ele>
        <time>2013-06-02T10:58:07Z</time>
      </trkpt>
      <trkpt lat="42.56021" lon="1.9952">
        <ele>2042.94</ele>
        <time>2013-06-02T10:58:23Z</time>
      </trkpt>
      <trkpt lat="42.56011" lon="1.99528">
        <ele>2040.54</ele>
        <time>2013-06-02T10:58:38Z</time>
      </trkpt>
      <trkpt lat="42.56009" lon="1.99544">
        <ele>2036.69</ele>
        <time>2013-06-02T10:58:50Z</time>
      </trkpt>
      <trkpt lat="42.5601" lon="1.99549">
        <ele>2035.73</ele>
        <time>2013-06-02T10:58:54Z</time>
      </trkpt>
      <trkpt lat="42.5601" lon="1.99552">
        <ele>2036.21</ele>
        <time>2013-06-02T10:58:56Z</time>
      </trkpt>
      <trkpt lat="42.56009" lon="1.99556">
        <ele>2036.69</ele>
        <time>2013-06-02T10:58:59Z</time>
      </trkpt>
      <trkpt lat="42.56009" lon="1.99563">
        <ele>2036.69</ele>
        <time>2013-06-02T10:59:03Z</time>
      </trkpt>
      <trkpt lat="42.56007" lon="1.99574">
        <ele>2035.25</ele>
        <time>2013-06-02T10:59:16Z</time>
      </trkpt>
      <trkpt lat="42.56003" lon="1.99589">
        <ele>2035.25</ele>
        <time>2013-06-02T10:59:28Z</time>
      </trkpt>
      <trkpt lat="42.56001" lon="1.99599">
        <ele>2032.84</ele>
        <time>2013-06-02T10:59:41Z</time>
      </trkpt>
      <trkpt lat="42.55998" lon="1.996">
        <ele>2032.84</ele>
        <time>2013-06-02T10:59:44Z</time>
      </trkpt>
      <trkpt lat="42.55998" lon="1.99602">
        <ele>2032.84</ele>
        <time>2013-06-02T10:59:46Z</time>
      </trkpt>
      <trkpt lat="42.55997" lon="1.99605">
        <ele>2032.84</ele>
        <time>2013-06-02T10:59:48Z</time>
      </trkpt>
      <trkpt lat="42.55995" lon="1.99621">
        <ele>2030.92</ele>
        <time>2013-06-02T11:00:01Z</time>
      </trkpt>
      <trkpt lat="42.55986" lon="1.99645">
        <ele>2030.92</ele>
        <time>2013-06-02T11:00:15Z</time>
      </trkpt>
      <trkpt lat="42.55977" lon="1.99669">
        <ele>2031.88</ele>
        <time>2013-06-02T11:00:29Z</time>
      </trkpt>
      <trkpt lat="42.55975" lon="1.99683">
        <ele>2032.36</ele>
        <time>2013-06-02T11:00:37Z</time>
      </trkpt>
      <trkpt lat="42.55982" lon="1.99694">
        <ele>2031.4</ele>
        <time>2013-06-02T11:00:45Z</time>
      </trkpt>
      <trkpt lat="42.55992" lon="1.99702">
        <ele>2030.92</ele>
        <time>2013-06-02T11:00:54Z</time>
      </trkpt>
      <trkpt lat="42.56008" lon="1.99721">
        <ele>2030.92</ele>
        <time>2013-06-02T11:01:09Z</time>
      </trkpt>
      <trkpt lat="42.56019" lon="1.99737">
        <ele>2027.08</ele>
        <time>2013-06-02T11:01:23Z</time>
      </trkpt>
      <trkpt lat="42.56026" lon="1.99739">
        <ele>2026.6</ele>
        <time>2013-06-02T11:01:29Z</time>
      </trkpt>
      <trkpt lat="42.56036" lon="1.99753">
        <ele>2024.19</ele>
        <time>2013-06-02T11:01:40Z</time>
      </trkpt>
      <trkpt lat="42.56037" lon="1.99765">
        <ele>2022.27</ele>
        <time>2013-06-02T11:01:47Z</time>
      </trkpt>
      <trkpt lat="42.56034" lon="1.99771">
        <ele>2021.79</ele>
        <time>2013-06-02T11:01:51Z</time>
      </trkpt>
      <trkpt lat="42.56032" lon="1.99776">
        <ele>2021.79</ele>
        <time>2013-06-02T11:01:54Z</time>
      </trkpt>
      <trkpt lat="42.56029" lon="1.99785">
        <ele>2021.79</ele>
        <time>2013-06-02T11:02:01Z</time>
      </trkpt>
      <trkpt lat="42.56028" lon="1.9979">
        <ele>2022.27</ele>
        <time>2013-06-02T11:02:03Z</time>
      </trkpt>
      <trkpt lat="42.56021" lon="1.99819">
        <ele>2021.79</ele>
        <time>2013-06-02T11:02:20Z</time>
      </trkpt>
      <trkpt lat="42.56016" lon="1.99841">
        <ele>2022.27</ele>
        <time>2013-06-02T11:02:34Z</time>
      </trkpt>
      <trkpt lat="42.56005" lon="1.99858">
        <ele>2021.79</ele>
        <time>2013-06-02T11:02:48Z</time>
      </trkpt>
      <trkpt lat="42.55992" lon="1.99874">
        <ele>2022.27</ele>
        <time>2013-06-02T11:03:02Z</time>
      </trkpt>
      <trkpt lat="42.55974" lon="1.99888">
        <ele>2021.79</ele>
        <time>2013-06-02T11:03:18Z</time>
      </trkpt>
      <trkpt lat="42.55973" lon="1.99894">
        <ele>2021.31</ele>
        <time>2013-06-02T11:03:22Z</time>
      </trkpt>
      <trkpt lat="42.55978" lon="1.99922">
        <ele>2018.43</ele>
        <time>2013-06-02T11:03:38Z</time>
      </trkpt>
      <trkpt lat="42.55981" lon="1.99945">
        <ele>2019.39</ele>
        <time>2013-06-02T11:03:52Z</time>
      </trkpt>
      <trkpt lat="42.55985" lon="1.99971">
        <ele>2017.94</ele>
        <time>2013-06-02T11:04:07Z</time>
      </trkpt>
      <trkpt lat="42.5599" lon="1.99998">
        <ele>2023.23</ele>
        <time>2013-06-02T11:04:23Z</time>
      </trkpt>
      <trkpt lat="42.55993" lon="2.00014">
        <ele>2021.79</ele>
        <time>2013-06-02T11:04:33Z</time>
      </trkpt>
      <trkpt lat="42.55998" lon="2.00041">
        <ele>2019.39</ele>
        <time>2013-06-02T11:04:49Z</time>
      </trkpt>
      <trkpt lat="42.56003" lon="2.0007">
        <ele>2016.98</ele>
        <time>2013-06-02T11:05:07Z</time>
      </trkpt>
      <trkpt lat="42.56008" lon="2.00097">
        <ele>2016.5</ele>
        <time>2013-06-02T11:05:23Z</time>
      </trkpt>
      <trkpt lat="42.56012" lon="2.0012">
        <ele>2016.5</ele>
        <time>2013-06-02T11:05:37Z</time>
      </trkpt>
      <trkpt lat="42.56016" lon="2.00145">
        <ele>2016.02</ele>
        <time>2013-06-02T11:05:52Z</time>
      </trkpt>
      <trkpt lat="42.5602" lon="2.00172">
        <ele>2015.54</ele>
        <time>2013-06-02T11:06:08Z</time>
      </trkpt>
      <trkpt lat="42.56024" lon="2.00196">
        <ele>2015.06</ele>
        <time>2013-06-02T11:06:23Z</time>
      </trkpt>
      <trkpt lat="42.56029" lon="2.00225">
        <ele>2014.1</ele>
        <time>2013-06-02T11:06:41Z</time>
      </trkpt>
      <trkpt lat="42.56033" lon="2.00252">
        <ele>2013.14</ele>
        <time>2013-06-02T11:06:57Z</time>
      </trkpt>
      <trkpt lat="42.56038" lon="2.00282">
        <ele>2014.1</ele>
        <time>2013-06-02T11:07:16Z</time>
      </trkpt>
      <trkpt lat="42.56042" lon="2.00312">
        <ele>2015.54</ele>
        <time>2013-06-02T11:07:35Z</time>
      </trkpt>
      <trkpt lat="42.56043" lon="2.00324">
        <ele>2015.54</ele>
        <time>2013-06-02T11:07:43Z</time>
      </trkpt>
      <trkpt lat="42.56041" lon="2.00328">
        <ele>2015.06</ele>
        <time>2013-06-02T11:07:46Z</time>
      </trkpt>
      <trkpt lat="42.56019" lon="2.00337">
        <ele>2011.7</ele>
        <time>2013-06-02T11:08:05Z</time>
      </trkpt>
      <trkpt lat="42.56017" lon="2.00339">
        <ele>2011.7</ele>
        <time>2013-06-02T11:08:07Z</time>
      </trkpt>
      <trkpt lat="42.56012" lon="2.00349">
        <ele>2011.7</ele>
        <time>2013-06-02T11:08:14Z</time>
      </trkpt>
      <trkpt lat="42.56003" lon="2.0037">
        <ele>2013.62</ele>
        <time>2013-06-02T11:08:29Z</time>
      </trkpt>
      <trkpt lat="42.55998" lon="2.00375">
        <ele>2013.14</ele>
        <time>2013-06-02T11:08:34Z</time>
      </trkpt>
      <trkpt lat="42.55986" lon="2.00375">
        <ele>2011.7</ele>
        <time>2013-06-02T11:08:43Z</time>
      </trkpt>
      <trkpt lat="42.55969" lon="2.00373">
        <ele>2010.73</ele>
        <time>2013-06-02T11:08:58Z</time>
      </trkpt>
      <trkpt lat="42.55953" lon="2.00356">
        <ele>2009.77</ele>
        <time>2013-06-02T11:09:14Z</time>
      </trkpt>
      <trkpt lat="42.55951" lon="2.00349">
        <ele>2008.81</ele>
        <time>2013-06-02T11:09:24Z</time>
      </trkpt>
      <trkpt lat="42.5594" lon="2.00339">
        <ele>2009.77</ele>
        <time>2013-06-02T11:09:34Z</time>
      </trkpt>
      <trkpt lat="42.55933" lon="2.00329">
        <ele>2008.81</ele>
        <time>2013-06-02T11:09:42Z</time>
      </trkpt>
      <trkpt lat="42.55929" lon="2.00324">
        <ele>2007.85</ele>
        <time>2013-06-02T11:09:46Z</time>
      </trkpt>
      <trkpt lat="42.55908" lon="2.00313">
        <ele>2005.45</ele>
        <time>2013-06-02T11:10:03Z</time>
      </trkpt>
      <trkpt lat="42.559" lon="2.00312">
        <ele>2005.93</ele>
        <time>2013-06-02T11:10:09Z</time>
      </trkpt>
      <trkpt lat="42.55893" lon="2.00326">
        <ele>2009.29</ele>
        <time>2013-06-02T11:10:24Z</time>
      </trkpt>
      <trkpt lat="42.55894" lon="2.00339">
        <ele>2007.37</ele>
        <time>2013-06-02T11:10:35Z</time>
      </trkpt>
      <trkpt lat="42.55894" lon="2.00348">
        <ele>2007.37</ele>
        <time>2013-06-02T11:10:51Z</time>
      </trkpt>
      <trkpt lat="42.5589" lon="2.00351">
        <ele>2008.81</ele>
        <time>2013-06-02T11:11:14Z</time>
      </trkpt>
      <trkpt lat="42.55891" lon="2.00342">
        <ele>2007.85</ele>
        <time>2013-06-02T11:11:24Z</time>
      </trkpt>
      <trkpt lat="42.55892" lon="2.00339">
        <ele>2006.41</ele>
        <time>2013-06-02T11:11:28Z</time>
      </trkpt>
      <trkpt lat="42.55888" lon="2.00324">
        <ele>2004.49</ele>
        <time>2013-06-02T11:11:38Z</time>
      </trkpt>
      <trkpt lat="42.55881" lon="2.00316">
        <ele>2007.85</ele>
        <time>2013-06-02T11:11:54Z</time>
      </trkpt>
      <trkpt lat="42.5588" lon="2.00318">
        <ele>2008.33</ele>
        <time>2013-06-02T11:12:11Z</time>
      </trkpt>
      <trkpt lat="42.5588" lon="2.00322">
        <ele>2009.29</ele>
        <time>2013-06-02T11:12:28Z</time>
      </trkpt>
      <trkpt lat="42.5588" lon="2.00323">
        <ele>2009.29</ele>
        <time>2013-06-02T11:12:51Z</time>
      </trkpt>
      <trkpt lat="42.5588" lon="2.00329">
        <ele>2007.85</ele>
        <time>2013-06-02T11:13:24Z</time>
      </trkpt>
      <trkpt lat="42.5588" lon="2.00333">
        <ele>2009.29</ele>
        <time>2013-06-02T11:13:53Z</time>
      </trkpt>
      <trkpt lat="42.55878" lon="2.00332">
        <ele>2006.41</ele>
        <time>2013-06-02T11:14:24Z</time>
      </trkpt>
      <trkpt lat="42.55879" lon="2.00332">
        <ele>2009.29</ele>
        <time>2013-06-02T11:14:51Z</time>
      </trkpt>
      <trkpt lat="42.55877" lon="2.00331">
        <ele>2009.29</ele>
        <time>2013-06-02T11:15:18Z</time>
      </trkpt>
      <trkpt lat="42.55877" lon="2.00326">
        <ele>2013.14</ele>
        <time>2013-06-02T11:15:38Z</time>
      </trkpt>
      <trkpt lat="42.5588" lon="2.00325">
        <ele>2010.73</ele>
        <time>2013-06-02T11:16:00Z</time>
      </trkpt>
      <trkpt lat="42.55879" lon="2.00326">
        <ele>2005.93</ele>
        <time>2013-06-02T11:16:26Z</time>
      </trkpt>
      <trkpt lat="42.55879" lon="2.00327">
        <ele>2005.45</ele>
        <time>2013-06-02T11:17:02Z</time>
      </trkpt>
      <trkpt lat="42.55879" lon="2.00329">
        <ele>2007.37</ele>
        <time>2013-06-02T11:17:24Z</time>
      </trkpt>
      <trkpt lat="42.55879" lon="2.00327">
        <ele>2007.85</ele>
        <time>2013-06-02T11:17:50Z</time>
      </trkpt>
      <trkpt lat="42.55879" lon="2.00328">
        <ele>2005.93</ele>
        <time>2013-06-02T11:18:15Z</time>
      </trkpt>
      <trkpt lat="42.55879" lon="2.00327">
        <ele>2005.45</ele>
        <time>2013-06-02T11:18:41Z</time>
      </trkpt>
      <trkpt lat="42.55879" lon="2.00327">
        <ele>2006.89</ele>
        <time>2013-06-02T11:19:11Z</time>
      </trkpt>
      <trkpt lat="42.55879" lon="2.00327">
        <ele>2010.25</ele>
        <time>2013-06-02T11:19:50Z</time>
      </trkpt>
      <trkpt lat="42.5588" lon="2.00328">
        <ele>2005.45</ele>
        <time>2013-06-02T11:20:25Z</time>
      </trkpt>
      <trkpt lat="42.55878" lon="2.00329">
        <ele>2004.01</ele>
        <time>2013-06-02T11:20:46Z</time>
      </trkpt>
      <trkpt lat="42.55879" lon="2.0033">
        <ele>2001.6</ele>
        <time>2013-06-02T11:21:21Z</time>
      </trkpt>
      <trkpt lat="42.55878" lon="2.00326">
        <ele>2000.64</ele>
        <time>2013-06-02T11:21:47Z</time>
      </trkpt>
      <trkpt lat="42.55879" lon="2.00325">
        <ele>1998.24</ele>
        <time>2013-06-02T11:22:15Z</time>
      </trkpt>
      <trkpt lat="42.55879" lon="2.00326">
        <ele>1994.39</ele>
        <time>2013-06-02T11:22:40Z</time>
      </trkpt>
      <trkpt lat="42.55878" lon="2.00327">
        <ele>1996.8</ele>
        <time>2013-06-02T11:22:59Z</time>
      </trkpt>
      <trkpt lat="42.55879" lon="2.00324">
        <ele>2001.6</ele>
        <time>2013-06-02T11:23:19Z</time>
      </trkpt>
      <trkpt lat="42.55879" lon="2.00322">
        <ele>2003.52</ele>
        <time>2013-06-02T11:23:33Z</time>
      </trkpt>
      <trkpt lat="42.55879" lon="2.00321">
        <ele>2006.41</ele>
        <time>2013-06-02T11:23:56Z</time>
      </trkpt>
      <trkpt lat="42.5588" lon="2.00318">
        <ele>2009.77</ele>
        <time>2013-06-02T11:24:09Z</time>
      </trkpt>
      <trkpt lat="42.5588" lon="2.00318">
        <ele>2008.33</ele>
        <time>2013-06-02T11:24:22Z</time>
      </trkpt>
      <trkpt lat="42.55881" lon="2.00319">
        <ele>2008.33</ele>
        <time>2013-06-02T11:24:30Z</time>
      </trkpt>
      <trkpt lat="42.55887" lon="2.00321">
        <ele>2010.73</ele>
        <time>2013-06-02T11:24:38Z</time>
      </trkpt>
      <trkpt lat="42.55888" lon="2.00334">
        <ele>2013.14</ele>
        <time>2013-06-02T11:24:48Z</time>
      </trkpt>
      <trkpt lat="42.5589" lon="2.0034">
        <ele>2015.54</ele>
        <time>2013-06-02T11:25:00Z</time>
      </trkpt>
      <trkpt lat="42.55884" lon="2.00343">
        <ele>2020.35</ele>
        <time>2013-06-02T11:25:17Z</time>
      </trkpt>
      <trkpt lat="42.55888" lon="2.00344">
        <ele>2027.08</ele>
        <time>2013-06-02T11:25:39Z</time>
      </trkpt>
      <trkpt lat="42.5589" lon="2.00343">
        <ele>2029</ele>
        <time>2013-06-02T11:26:10Z</time>
      </trkpt>
      <trkpt lat="42.5589" lon="2.0034">
        <ele>2029</ele>
        <time>2013-06-02T11:26:35Z</time>
      </trkpt>
      <trkpt lat="42.55882" lon="2.00338">
        <ele>2029.48</ele>
        <time>2013-06-02T11:26:59Z</time>
      </trkpt>
      <trkpt lat="42.55886" lon="2.00339">
        <ele>2030.92</ele>
        <time>2013-06-02T11:27:29Z</time>
      </trkpt>
      <trkpt lat="42.55894" lon="2.00344">
        <ele>2030.92</ele>
        <time>2013-06-02T11:27:52Z</time>
      </trkpt>
    </trkseg>
  </trk>
</gpx>